<?xml version="1.0" encoding="UTF-8" standalone="no" ?>
<gpx xmlns="http://www.topografix.com/GPX/1/1" xmlns:xsi="http://www.w3.org/2001/XMLSchema-instance" xsi:schemaLocation="http://www.topografix.com/GPX/1/1 http://www.topografix.com/GPX/1/1/gpx.xsd" version="1.1" creator="VisuGPX - https://www.visugpx.com">
  <metadata>
    <name>Les Cascades, les crêtes du Mont-Dore  2021-07-20 15:51:45</name>
  </metadata>
  <trk>
    <name><![CDATA[2021-07-20 15:51:45]]></name>
    <trkseg>
      <trkpt lat="45.58843" lon="2.80353">
        <ele>1022.2</ele>
        <time>2021-07-20T07:10:04Z</time>
      </trkpt>
      <trkpt lat="45.58841" lon="2.80344">
        <ele>1021.5</ele>
        <time>2021-07-20T07:10:10Z</time>
      </trkpt>
      <trkpt lat="45.58836" lon="2.80328">
        <ele>1020.7</ele>
        <time>2021-07-20T07:10:21Z</time>
      </trkpt>
      <trkpt lat="45.58826" lon="2.8031">
        <ele>1022.7</ele>
        <time>2021-07-20T07:10:37Z</time>
      </trkpt>
      <trkpt lat="45.58818" lon="2.80308">
        <ele>1024.6</ele>
        <time>2021-07-20T07:10:51Z</time>
      </trkpt>
      <trkpt lat="45.58814" lon="2.80297">
        <ele>1024.9</ele>
        <time>2021-07-20T07:11:07Z</time>
      </trkpt>
      <trkpt lat="45.58813" lon="2.80287">
        <ele>1024.7</ele>
        <time>2021-07-20T07:11:15Z</time>
      </trkpt>
      <trkpt lat="45.58812" lon="2.80286">
        <ele>1024.6</ele>
        <time>2021-07-20T07:11:16Z</time>
      </trkpt>
      <trkpt lat="45.58805" lon="2.80264">
        <ele>1024</ele>
        <time>2021-07-20T07:11:31Z</time>
      </trkpt>
      <trkpt lat="45.58795" lon="2.80248">
        <ele>1023.3</ele>
        <time>2021-07-20T07:11:46Z</time>
      </trkpt>
      <trkpt lat="45.58785" lon="2.80235">
        <ele>1022.6</ele>
        <time>2021-07-20T07:11:57Z</time>
      </trkpt>
      <trkpt lat="45.58776" lon="2.80222">
        <ele>1021.6</ele>
        <time>2021-07-20T07:12:08Z</time>
      </trkpt>
      <trkpt lat="45.58767" lon="2.80216">
        <ele>1021.4</ele>
        <time>2021-07-20T07:12:18Z</time>
      </trkpt>
      <trkpt lat="45.58762" lon="2.80205">
        <ele>1020.1</ele>
        <time>2021-07-20T07:12:26Z</time>
      </trkpt>
      <trkpt lat="45.58756" lon="2.80192">
        <ele>1018.6</ele>
        <time>2021-07-20T07:12:36Z</time>
      </trkpt>
      <trkpt lat="45.58754" lon="2.80188">
        <ele>1018.1</ele>
        <time>2021-07-20T07:12:39Z</time>
      </trkpt>
      <trkpt lat="45.58744" lon="2.80176">
        <ele>1016.5</ele>
        <time>2021-07-20T07:12:49Z</time>
      </trkpt>
      <trkpt lat="45.58735" lon="2.8017">
        <ele>1015.4</ele>
        <time>2021-07-20T07:12:59Z</time>
      </trkpt>
      <trkpt lat="45.58732" lon="2.80168">
        <ele>1015.1</ele>
        <time>2021-07-20T07:13:02Z</time>
      </trkpt>
      <trkpt lat="45.58716" lon="2.80162">
        <ele>1014.1</ele>
        <time>2021-07-20T07:13:15Z</time>
      </trkpt>
      <trkpt lat="45.58703" lon="2.8016">
        <ele>1013.7</ele>
        <time>2021-07-20T07:13:27Z</time>
      </trkpt>
      <trkpt lat="45.58689" lon="2.8016">
        <ele>1013.5</ele>
        <time>2021-07-20T07:13:39Z</time>
      </trkpt>
      <trkpt lat="45.58668" lon="2.80163">
        <ele>1013.6</ele>
        <time>2021-07-20T07:13:55Z</time>
      </trkpt>
      <trkpt lat="45.58651" lon="2.80167">
        <ele>1012</ele>
        <time>2021-07-20T07:14:09Z</time>
      </trkpt>
      <trkpt lat="45.58634" lon="2.80174">
        <ele>1011.2</ele>
        <time>2021-07-20T07:14:24Z</time>
      </trkpt>
      <trkpt lat="45.58617" lon="2.80181">
        <ele>1010.5</ele>
        <time>2021-07-20T07:14:37Z</time>
      </trkpt>
      <trkpt lat="45.58601" lon="2.80185">
        <ele>1009.4</ele>
        <time>2021-07-20T07:14:50Z</time>
      </trkpt>
      <trkpt lat="45.58589" lon="2.80192">
        <ele>1009.7</ele>
        <time>2021-07-20T07:15:03Z</time>
      </trkpt>
      <trkpt lat="45.58578" lon="2.80204">
        <ele>1010.8</ele>
        <time>2021-07-20T07:15:14Z</time>
      </trkpt>
      <trkpt lat="45.58558" lon="2.80219">
        <ele>1010.4</ele>
        <time>2021-07-20T07:15:32Z</time>
      </trkpt>
      <trkpt lat="45.58543" lon="2.80233">
        <ele>1010.1</ele>
        <time>2021-07-20T07:15:48Z</time>
      </trkpt>
      <trkpt lat="45.5853" lon="2.80244">
        <ele>1009.3</ele>
        <time>2021-07-20T07:16:00Z</time>
      </trkpt>
      <trkpt lat="45.58513" lon="2.80257">
        <ele>1008.3</ele>
        <time>2021-07-20T07:16:13Z</time>
      </trkpt>
      <trkpt lat="45.58503" lon="2.80266">
        <ele>1008.8</ele>
        <time>2021-07-20T07:16:23Z</time>
      </trkpt>
      <trkpt lat="45.5849" lon="2.80276">
        <ele>1009.2</ele>
        <time>2021-07-20T07:16:36Z</time>
      </trkpt>
      <trkpt lat="45.58479" lon="2.80282">
        <ele>1008.8</ele>
        <time>2021-07-20T07:16:47Z</time>
      </trkpt>
      <trkpt lat="45.58465" lon="2.80292">
        <ele>1008.7</ele>
        <time>2021-07-20T07:17:00Z</time>
      </trkpt>
      <trkpt lat="45.58451" lon="2.803">
        <ele>1008</ele>
        <time>2021-07-20T07:17:12Z</time>
      </trkpt>
      <trkpt lat="45.58437" lon="2.8031">
        <ele>1007.1</ele>
        <time>2021-07-20T07:17:25Z</time>
      </trkpt>
      <trkpt lat="45.58427" lon="2.80316">
        <ele>1006.2</ele>
        <time>2021-07-20T07:17:35Z</time>
      </trkpt>
      <trkpt lat="45.58413" lon="2.80325">
        <ele>1005</ele>
        <time>2021-07-20T07:17:47Z</time>
      </trkpt>
      <trkpt lat="45.58398" lon="2.80334">
        <ele>1004.9</ele>
        <time>2021-07-20T07:18:01Z</time>
      </trkpt>
      <trkpt lat="45.58382" lon="2.80346">
        <ele>1006.4</ele>
        <time>2021-07-20T07:18:15Z</time>
      </trkpt>
      <trkpt lat="45.58382" lon="2.80347">
        <ele>1006.6</ele>
        <time>2021-07-20T07:18:16Z</time>
      </trkpt>
      <trkpt lat="45.58376" lon="2.80359">
        <ele>1009.3</ele>
        <time>2021-07-20T07:18:28Z</time>
      </trkpt>
      <trkpt lat="45.58372" lon="2.80366">
        <ele>1010.5</ele>
        <time>2021-07-20T07:18:34Z</time>
      </trkpt>
      <trkpt lat="45.58362" lon="2.80377">
        <ele>1011.3</ele>
        <time>2021-07-20T07:18:44Z</time>
      </trkpt>
      <trkpt lat="45.58355" lon="2.80385">
        <ele>1011.4</ele>
        <time>2021-07-20T07:18:53Z</time>
      </trkpt>
      <trkpt lat="45.58346" lon="2.80392">
        <ele>1010.9</ele>
        <time>2021-07-20T07:19:06Z</time>
      </trkpt>
      <trkpt lat="45.58349" lon="2.804">
        <ele>1013.3</ele>
        <time>2021-07-20T07:19:20Z</time>
      </trkpt>
      <trkpt lat="45.58353" lon="2.80406">
        <ele>1015.9</ele>
        <time>2021-07-20T07:19:35Z</time>
      </trkpt>
      <trkpt lat="45.58354" lon="2.8041">
        <ele>1017.2</ele>
        <time>2021-07-20T07:19:49Z</time>
      </trkpt>
      <trkpt lat="45.58349" lon="2.80416">
        <ele>1017</ele>
        <time>2021-07-20T07:20:05Z</time>
      </trkpt>
      <trkpt lat="45.58345" lon="2.8042">
        <ele>1017.3</ele>
        <time>2021-07-20T07:20:22Z</time>
      </trkpt>
      <trkpt lat="45.58341" lon="2.80427">
        <ele>1018.3</ele>
        <time>2021-07-20T07:20:39Z</time>
      </trkpt>
      <trkpt lat="45.58338" lon="2.80437">
        <ele>1020.8</ele>
        <time>2021-07-20T07:20:55Z</time>
      </trkpt>
      <trkpt lat="45.58335" lon="2.80446">
        <ele>1023.3</ele>
        <time>2021-07-20T07:21:13Z</time>
      </trkpt>
      <trkpt lat="45.58333" lon="2.80454">
        <ele>1025.3</ele>
        <time>2021-07-20T07:21:28Z</time>
      </trkpt>
      <trkpt lat="45.58333" lon="2.80461">
        <ele>1027.8</ele>
        <time>2021-07-20T07:21:45Z</time>
      </trkpt>
      <trkpt lat="45.58335" lon="2.80466">
        <ele>1030.2</ele>
        <time>2021-07-20T07:22:02Z</time>
      </trkpt>
      <trkpt lat="45.58336" lon="2.80467">
        <ele>1031.3</ele>
        <time>2021-07-20T07:22:18Z</time>
      </trkpt>
      <trkpt lat="45.58337" lon="2.80466">
        <ele>1031.2</ele>
        <time>2021-07-20T07:22:34Z</time>
      </trkpt>
      <trkpt lat="45.58335" lon="2.80471">
        <ele>1031.9</ele>
        <time>2021-07-20T07:22:48Z</time>
      </trkpt>
      <trkpt lat="45.58332" lon="2.80477">
        <ele>1033.2</ele>
        <time>2021-07-20T07:22:56Z</time>
      </trkpt>
      <trkpt lat="45.58335" lon="2.80487">
        <ele>1037.8</ele>
        <time>2021-07-20T07:23:10Z</time>
      </trkpt>
      <trkpt lat="45.58337" lon="2.80492">
        <ele>1040.7</ele>
        <time>2021-07-20T07:23:24Z</time>
      </trkpt>
      <trkpt lat="45.58339" lon="2.80495">
        <ele>1042.1</ele>
        <time>2021-07-20T07:23:39Z</time>
      </trkpt>
      <trkpt lat="45.58347" lon="2.80492">
        <ele>1044</ele>
        <time>2021-07-20T07:23:54Z</time>
      </trkpt>
      <trkpt lat="45.58349" lon="2.80495">
        <ele>1045.8</ele>
        <time>2021-07-20T07:24:10Z</time>
      </trkpt>
      <trkpt lat="45.58348" lon="2.80505">
        <ele>1049.9</ele>
        <time>2021-07-20T07:24:25Z</time>
      </trkpt>
      <trkpt lat="45.58347" lon="2.8051">
        <ele>1051.6</ele>
        <time>2021-07-20T07:24:39Z</time>
      </trkpt>
      <trkpt lat="45.58341" lon="2.80517">
        <ele>1052.6</ele>
        <time>2021-07-20T07:24:55Z</time>
      </trkpt>
      <trkpt lat="45.58338" lon="2.80526">
        <ele>1055.7</ele>
        <time>2021-07-20T07:25:11Z</time>
      </trkpt>
      <trkpt lat="45.58333" lon="2.80532">
        <ele>1056.4</ele>
        <time>2021-07-20T07:25:26Z</time>
      </trkpt>
      <trkpt lat="45.58327" lon="2.80541">
        <ele>1058.2</ele>
        <time>2021-07-20T07:25:42Z</time>
      </trkpt>
      <trkpt lat="45.58321" lon="2.80553">
        <ele>1061.2</ele>
        <time>2021-07-20T07:25:56Z</time>
      </trkpt>
      <trkpt lat="45.58316" lon="2.80566">
        <ele>1064.6</ele>
        <time>2021-07-20T07:26:13Z</time>
      </trkpt>
      <trkpt lat="45.58312" lon="2.80577">
        <ele>1067.9</ele>
        <time>2021-07-20T07:26:29Z</time>
      </trkpt>
      <trkpt lat="45.58309" lon="2.80585">
        <ele>1069.7</ele>
        <time>2021-07-20T07:26:43Z</time>
      </trkpt>
      <trkpt lat="45.58303" lon="2.80596">
        <ele>1071</ele>
        <time>2021-07-20T07:26:59Z</time>
      </trkpt>
      <trkpt lat="45.58296" lon="2.80606">
        <ele>1071.7</ele>
        <time>2021-07-20T07:27:14Z</time>
      </trkpt>
      <trkpt lat="45.58289" lon="2.80615">
        <ele>1072</ele>
        <time>2021-07-20T07:27:30Z</time>
      </trkpt>
      <trkpt lat="45.58285" lon="2.80623">
        <ele>1073.1</ele>
        <time>2021-07-20T07:27:44Z</time>
      </trkpt>
      <trkpt lat="45.58282" lon="2.80634">
        <ele>1075.8</ele>
        <time>2021-07-20T07:27:58Z</time>
      </trkpt>
      <trkpt lat="45.58278" lon="2.80644">
        <ele>1078</ele>
        <time>2021-07-20T07:28:12Z</time>
      </trkpt>
      <trkpt lat="45.58276" lon="2.80653">
        <ele>1080.2</ele>
        <time>2021-07-20T07:28:26Z</time>
      </trkpt>
      <trkpt lat="45.58276" lon="2.80658">
        <ele>1082.1</ele>
        <time>2021-07-20T07:28:41Z</time>
      </trkpt>
      <trkpt lat="45.58275" lon="2.80659">
        <ele>1082.2</ele>
        <time>2021-07-20T07:28:59Z</time>
      </trkpt>
      <trkpt lat="45.58276" lon="2.80665">
        <ele>1084.6</ele>
        <time>2021-07-20T07:29:21Z</time>
      </trkpt>
      <trkpt lat="45.58277" lon="2.8067">
        <ele>1087.1</ele>
        <time>2021-07-20T07:29:42Z</time>
      </trkpt>
      <trkpt lat="45.58276" lon="2.80672">
        <ele>1087.7</ele>
        <time>2021-07-20T07:29:57Z</time>
      </trkpt>
      <trkpt lat="45.58273" lon="2.80669">
        <ele>1084.9</ele>
        <time>2021-07-20T07:30:09Z</time>
      </trkpt>
      <trkpt lat="45.58272" lon="2.80671">
        <ele>1085</ele>
        <time>2021-07-20T07:30:11Z</time>
      </trkpt>
      <trkpt lat="45.5826" lon="2.8068">
        <ele>1083.8</ele>
        <time>2021-07-20T07:30:25Z</time>
      </trkpt>
      <trkpt lat="45.58259" lon="2.80682">
        <ele>1084</ele>
        <time>2021-07-20T07:30:27Z</time>
      </trkpt>
      <trkpt lat="45.58254" lon="2.80687">
        <ele>1083.9</ele>
        <time>2021-07-20T07:30:35Z</time>
      </trkpt>
      <trkpt lat="45.58247" lon="2.80689">
        <ele>1082.1</ele>
        <time>2021-07-20T07:30:44Z</time>
      </trkpt>
      <trkpt lat="45.58239" lon="2.80696">
        <ele>1081.8</ele>
        <time>2021-07-20T07:30:52Z</time>
      </trkpt>
      <trkpt lat="45.58232" lon="2.80702">
        <ele>1081.6</ele>
        <time>2021-07-20T07:30:59Z</time>
      </trkpt>
      <trkpt lat="45.58229" lon="2.80702">
        <ele>1080.8</ele>
        <time>2021-07-20T07:31:01Z</time>
      </trkpt>
      <trkpt lat="45.58224" lon="2.80704">
        <ele>1079.5</ele>
        <time>2021-07-20T07:31:06Z</time>
      </trkpt>
      <trkpt lat="45.58219" lon="2.80705">
        <ele>1077.8</ele>
        <time>2021-07-20T07:31:11Z</time>
      </trkpt>
      <trkpt lat="45.58207" lon="2.80716">
        <ele>1076.9</ele>
        <time>2021-07-20T07:31:22Z</time>
      </trkpt>
      <trkpt lat="45.58205" lon="2.80717">
        <ele>1076.6</ele>
        <time>2021-07-20T07:31:24Z</time>
      </trkpt>
      <trkpt lat="45.582" lon="2.80722">
        <ele>1076.2</ele>
        <time>2021-07-20T07:31:28Z</time>
      </trkpt>
      <trkpt lat="45.58193" lon="2.80733">
        <ele>1076.8</ele>
        <time>2021-07-20T07:31:38Z</time>
      </trkpt>
      <trkpt lat="45.58187" lon="2.80739">
        <ele>1076</ele>
        <time>2021-07-20T07:31:47Z</time>
      </trkpt>
      <trkpt lat="45.58187" lon="2.8074">
        <ele>1076.2</ele>
        <time>2021-07-20T07:31:48Z</time>
      </trkpt>
      <trkpt lat="45.58182" lon="2.80745">
        <ele>1076</ele>
        <time>2021-07-20T07:31:55Z</time>
      </trkpt>
      <trkpt lat="45.5817" lon="2.80758">
        <ele>1075.3</ele>
        <time>2021-07-20T07:32:08Z</time>
      </trkpt>
      <trkpt lat="45.58162" lon="2.80768">
        <ele>1077</ele>
        <time>2021-07-20T07:32:18Z</time>
      </trkpt>
      <trkpt lat="45.58161" lon="2.8077">
        <ele>1077.4</ele>
        <time>2021-07-20T07:32:20Z</time>
      </trkpt>
      <trkpt lat="45.58151" lon="2.8078">
        <ele>1078.9</ele>
        <time>2021-07-20T07:32:32Z</time>
      </trkpt>
      <trkpt lat="45.58148" lon="2.80783">
        <ele>1079.2</ele>
        <time>2021-07-20T07:32:36Z</time>
      </trkpt>
      <trkpt lat="45.58144" lon="2.80786">
        <ele>1079.6</ele>
        <time>2021-07-20T07:32:41Z</time>
      </trkpt>
      <trkpt lat="45.5814" lon="2.8079">
        <ele>1080</ele>
        <time>2021-07-20T07:32:45Z</time>
      </trkpt>
      <trkpt lat="45.58134" lon="2.80797">
        <ele>1081.2</ele>
        <time>2021-07-20T07:32:52Z</time>
      </trkpt>
      <trkpt lat="45.5813" lon="2.808">
        <ele>1081.3</ele>
        <time>2021-07-20T07:32:56Z</time>
      </trkpt>
      <trkpt lat="45.5812" lon="2.80813">
        <ele>1082.9</ele>
        <time>2021-07-20T07:33:08Z</time>
      </trkpt>
      <trkpt lat="45.58117" lon="2.80815">
        <ele>1082.9</ele>
        <time>2021-07-20T07:33:11Z</time>
      </trkpt>
      <trkpt lat="45.58111" lon="2.8082">
        <ele>1082.6</ele>
        <time>2021-07-20T07:33:18Z</time>
      </trkpt>
      <trkpt lat="45.58107" lon="2.80822">
        <ele>1082.3</ele>
        <time>2021-07-20T07:33:22Z</time>
      </trkpt>
      <trkpt lat="45.58099" lon="2.80828">
        <ele>1081.4</ele>
        <time>2021-07-20T07:33:31Z</time>
      </trkpt>
      <trkpt lat="45.58094" lon="2.80843">
        <ele>1086.1</ele>
        <time>2021-07-20T07:33:42Z</time>
      </trkpt>
      <trkpt lat="45.58088" lon="2.80847">
        <ele>1085.6</ele>
        <time>2021-07-20T07:33:48Z</time>
      </trkpt>
      <trkpt lat="45.58081" lon="2.80848">
        <ele>1083.8</ele>
        <time>2021-07-20T07:33:53Z</time>
      </trkpt>
      <trkpt lat="45.58069" lon="2.80851">
        <ele>1081.9</ele>
        <time>2021-07-20T07:34:02Z</time>
      </trkpt>
      <trkpt lat="45.58061" lon="2.80849">
        <ele>1078.8</ele>
        <time>2021-07-20T07:34:10Z</time>
      </trkpt>
      <trkpt lat="45.58056" lon="2.80849">
        <ele>1077.7</ele>
        <time>2021-07-20T07:34:16Z</time>
      </trkpt>
      <trkpt lat="45.58052" lon="2.8085">
        <ele>1077.4</ele>
        <time>2021-07-20T07:34:19Z</time>
      </trkpt>
      <trkpt lat="45.58041" lon="2.80852">
        <ele>1075.1</ele>
        <time>2021-07-20T07:34:29Z</time>
      </trkpt>
      <trkpt lat="45.58031" lon="2.80864">
        <ele>1077.4</ele>
        <time>2021-07-20T07:34:40Z</time>
      </trkpt>
      <trkpt lat="45.58022" lon="2.8087">
        <ele>1077.4</ele>
        <time>2021-07-20T07:34:53Z</time>
      </trkpt>
      <trkpt lat="45.58018" lon="2.80872">
        <ele>1077.3</ele>
        <time>2021-07-20T07:34:57Z</time>
      </trkpt>
      <trkpt lat="45.58006" lon="2.80886">
        <ele>1079.4</ele>
        <time>2021-07-20T07:35:10Z</time>
      </trkpt>
      <trkpt lat="45.58" lon="2.80889">
        <ele>1079.1</ele>
        <time>2021-07-20T07:35:14Z</time>
      </trkpt>
      <trkpt lat="45.57997" lon="2.80892">
        <ele>1079.7</ele>
        <time>2021-07-20T07:35:17Z</time>
      </trkpt>
      <trkpt lat="45.57994" lon="2.80894">
        <ele>1079.8</ele>
        <time>2021-07-20T07:35:19Z</time>
      </trkpt>
      <trkpt lat="45.57992" lon="2.80894">
        <ele>1079.6</ele>
        <time>2021-07-20T07:35:21Z</time>
      </trkpt>
      <trkpt lat="45.57986" lon="2.80899">
        <ele>1080.5</ele>
        <time>2021-07-20T07:35:27Z</time>
      </trkpt>
      <trkpt lat="45.57977" lon="2.80901">
        <ele>1079.5</ele>
        <time>2021-07-20T07:35:37Z</time>
      </trkpt>
      <trkpt lat="45.57974" lon="2.80901">
        <ele>1078.7</ele>
        <time>2021-07-20T07:35:40Z</time>
      </trkpt>
      <trkpt lat="45.57963" lon="2.80901">
        <ele>1076.7</ele>
        <time>2021-07-20T07:35:54Z</time>
      </trkpt>
      <trkpt lat="45.57951" lon="2.80912">
        <ele>1078.4</ele>
        <time>2021-07-20T07:36:08Z</time>
      </trkpt>
      <trkpt lat="45.57938" lon="2.80922">
        <ele>1079.8</ele>
        <time>2021-07-20T07:36:22Z</time>
      </trkpt>
      <trkpt lat="45.57923" lon="2.80931">
        <ele>1080.9</ele>
        <time>2021-07-20T07:36:36Z</time>
      </trkpt>
      <trkpt lat="45.57908" lon="2.80953">
        <ele>1087.6</ele>
        <time>2021-07-20T07:36:50Z</time>
      </trkpt>
      <trkpt lat="45.57895" lon="2.8096">
        <ele>1087.5</ele>
        <time>2021-07-20T07:37:03Z</time>
      </trkpt>
      <trkpt lat="45.5788" lon="2.80967">
        <ele>1087.6</ele>
        <time>2021-07-20T07:37:17Z</time>
      </trkpt>
      <trkpt lat="45.57867" lon="2.80969">
        <ele>1085.8</ele>
        <time>2021-07-20T07:37:31Z</time>
      </trkpt>
      <trkpt lat="45.57862" lon="2.80979">
        <ele>1088.7</ele>
        <time>2021-07-20T07:37:41Z</time>
      </trkpt>
      <trkpt lat="45.57851" lon="2.80984">
        <ele>1088.4</ele>
        <time>2021-07-20T07:37:51Z</time>
      </trkpt>
      <trkpt lat="45.5784" lon="2.80988">
        <ele>1087.4</ele>
        <time>2021-07-20T07:38:05Z</time>
      </trkpt>
      <trkpt lat="45.5783" lon="2.80994">
        <ele>1088.1</ele>
        <time>2021-07-20T07:38:18Z</time>
      </trkpt>
      <trkpt lat="45.57819" lon="2.80999">
        <ele>1088.8</ele>
        <time>2021-07-20T07:38:29Z</time>
      </trkpt>
      <trkpt lat="45.57803" lon="2.81003">
        <ele>1088.6</ele>
        <time>2021-07-20T07:38:42Z</time>
      </trkpt>
      <trkpt lat="45.57792" lon="2.81007">
        <ele>1089.2</ele>
        <time>2021-07-20T07:38:56Z</time>
      </trkpt>
      <trkpt lat="45.57779" lon="2.81009">
        <ele>1088.1</ele>
        <time>2021-07-20T07:39:10Z</time>
      </trkpt>
      <trkpt lat="45.57765" lon="2.81014">
        <ele>1088.9</ele>
        <time>2021-07-20T07:39:21Z</time>
      </trkpt>
      <trkpt lat="45.5775" lon="2.81019">
        <ele>1089.3</ele>
        <time>2021-07-20T07:39:33Z</time>
      </trkpt>
      <trkpt lat="45.57739" lon="2.81026">
        <ele>1089.6</ele>
        <time>2021-07-20T07:39:41Z</time>
      </trkpt>
      <trkpt lat="45.57724" lon="2.81026">
        <ele>1086.2</ele>
        <time>2021-07-20T07:39:52Z</time>
      </trkpt>
      <trkpt lat="45.57714" lon="2.8103">
        <ele>1085.3</ele>
        <time>2021-07-20T07:40:01Z</time>
      </trkpt>
      <trkpt lat="45.57702" lon="2.81034">
        <ele>1084.2</ele>
        <time>2021-07-20T07:40:12Z</time>
      </trkpt>
      <trkpt lat="45.57694" lon="2.8104">
        <ele>1085.7</ele>
        <time>2021-07-20T07:40:20Z</time>
      </trkpt>
      <trkpt lat="45.5769" lon="2.81043">
        <ele>1086.1</ele>
        <time>2021-07-20T07:40:24Z</time>
      </trkpt>
      <trkpt lat="45.57681" lon="2.8105">
        <ele>1087.1</ele>
        <time>2021-07-20T07:40:33Z</time>
      </trkpt>
      <trkpt lat="45.57666" lon="2.81063">
        <ele>1089.9</ele>
        <time>2021-07-20T07:40:48Z</time>
      </trkpt>
      <trkpt lat="45.57664" lon="2.81064">
        <ele>1089.8</ele>
        <time>2021-07-20T07:40:49Z</time>
      </trkpt>
      <trkpt lat="45.57652" lon="2.81071">
        <ele>1088.7</ele>
        <time>2021-07-20T07:40:59Z</time>
      </trkpt>
      <trkpt lat="45.57648" lon="2.81071">
        <ele>1087.1</ele>
        <time>2021-07-20T07:41:04Z</time>
      </trkpt>
      <trkpt lat="45.57642" lon="2.81072">
        <ele>1086.1</ele>
        <time>2021-07-20T07:41:10Z</time>
      </trkpt>
      <trkpt lat="45.57628" lon="2.81085">
        <ele>1086.2</ele>
        <time>2021-07-20T07:41:24Z</time>
      </trkpt>
      <trkpt lat="45.57617" lon="2.81099">
        <ele>1087.6</ele>
        <time>2021-07-20T07:41:36Z</time>
      </trkpt>
      <trkpt lat="45.57605" lon="2.81108">
        <ele>1086.8</ele>
        <time>2021-07-20T07:41:49Z</time>
      </trkpt>
      <trkpt lat="45.57598" lon="2.8112">
        <ele>1089.2</ele>
        <time>2021-07-20T07:42:01Z</time>
      </trkpt>
      <trkpt lat="45.57582" lon="2.81131">
        <ele>1088.1</ele>
        <time>2021-07-20T07:42:14Z</time>
      </trkpt>
      <trkpt lat="45.5757" lon="2.8114">
        <ele>1088.8</ele>
        <time>2021-07-20T07:42:28Z</time>
      </trkpt>
      <trkpt lat="45.57559" lon="2.81155">
        <ele>1091.9</ele>
        <time>2021-07-20T07:42:42Z</time>
      </trkpt>
      <trkpt lat="45.57543" lon="2.81166">
        <ele>1092</ele>
        <time>2021-07-20T07:42:56Z</time>
      </trkpt>
      <trkpt lat="45.57527" lon="2.81179">
        <ele>1092</ele>
        <time>2021-07-20T07:43:10Z</time>
      </trkpt>
      <trkpt lat="45.57513" lon="2.81184">
        <ele>1090</ele>
        <time>2021-07-20T07:43:24Z</time>
      </trkpt>
      <trkpt lat="45.57512" lon="2.81184">
        <ele>1089.9</ele>
        <time>2021-07-20T07:43:25Z</time>
      </trkpt>
      <trkpt lat="45.57504" lon="2.81186">
        <ele>1088.4</ele>
        <time>2021-07-20T07:43:40Z</time>
      </trkpt>
      <trkpt lat="45.57495" lon="2.81187">
        <ele>1087.4</ele>
        <time>2021-07-20T07:43:53Z</time>
      </trkpt>
      <trkpt lat="45.57491" lon="2.81185">
        <ele>1086.2</ele>
        <time>2021-07-20T07:44:00Z</time>
      </trkpt>
      <trkpt lat="45.57474" lon="2.81186">
        <ele>1085.1</ele>
        <time>2021-07-20T07:44:16Z</time>
      </trkpt>
      <trkpt lat="45.57455" lon="2.81195">
        <ele>1086.7</ele>
        <time>2021-07-20T07:44:30Z</time>
      </trkpt>
      <trkpt lat="45.57436" lon="2.81203">
        <ele>1088.2</ele>
        <time>2021-07-20T07:44:45Z</time>
      </trkpt>
      <trkpt lat="45.57418" lon="2.81215">
        <ele>1092</ele>
        <time>2021-07-20T07:44:58Z</time>
      </trkpt>
      <trkpt lat="45.57409" lon="2.81223">
        <ele>1093.4</ele>
        <time>2021-07-20T07:45:13Z</time>
      </trkpt>
      <trkpt lat="45.57395" lon="2.81225">
        <ele>1092</ele>
        <time>2021-07-20T07:45:29Z</time>
      </trkpt>
      <trkpt lat="45.57376" lon="2.81227">
        <ele>1089.2</ele>
        <time>2021-07-20T07:45:44Z</time>
      </trkpt>
      <trkpt lat="45.57359" lon="2.81232">
        <ele>1088</ele>
        <time>2021-07-20T07:46:00Z</time>
      </trkpt>
      <trkpt lat="45.57358" lon="2.81232">
        <ele>1087.9</ele>
        <time>2021-07-20T07:46:01Z</time>
      </trkpt>
      <trkpt lat="45.57355" lon="2.81234">
        <ele>1088.2</ele>
        <time>2021-07-20T07:46:03Z</time>
      </trkpt>
      <trkpt lat="45.57344" lon="2.81237">
        <ele>1087.3</ele>
        <time>2021-07-20T07:46:14Z</time>
      </trkpt>
      <trkpt lat="45.57343" lon="2.81237">
        <ele>1087.1</ele>
        <time>2021-07-20T07:46:15Z</time>
      </trkpt>
      <trkpt lat="45.57332" lon="2.81242">
        <ele>1086.6</ele>
        <time>2021-07-20T07:46:29Z</time>
      </trkpt>
      <trkpt lat="45.57322" lon="2.81248">
        <ele>1087.5</ele>
        <time>2021-07-20T07:46:37Z</time>
      </trkpt>
      <trkpt lat="45.57307" lon="2.81255">
        <ele>1087.6</ele>
        <time>2021-07-20T07:46:47Z</time>
      </trkpt>
      <trkpt lat="45.57291" lon="2.81259">
        <ele>1086.7</ele>
        <time>2021-07-20T07:47:02Z</time>
      </trkpt>
      <trkpt lat="45.57273" lon="2.8127">
        <ele>1087.6</ele>
        <time>2021-07-20T07:47:17Z</time>
      </trkpt>
      <trkpt lat="45.57264" lon="2.81274">
        <ele>1087.7</ele>
        <time>2021-07-20T07:47:29Z</time>
      </trkpt>
      <trkpt lat="45.57251" lon="2.81279">
        <ele>1087.8</ele>
        <time>2021-07-20T07:47:44Z</time>
      </trkpt>
      <trkpt lat="45.57239" lon="2.81292">
        <ele>1090.2</ele>
        <time>2021-07-20T07:47:59Z</time>
      </trkpt>
      <trkpt lat="45.57224" lon="2.81305">
        <ele>1092.3</ele>
        <time>2021-07-20T07:48:14Z</time>
      </trkpt>
      <trkpt lat="45.57216" lon="2.81308">
        <ele>1091.7</ele>
        <time>2021-07-20T07:48:24Z</time>
      </trkpt>
      <trkpt lat="45.57215" lon="2.8131">
        <ele>1092.2</ele>
        <time>2021-07-20T07:48:26Z</time>
      </trkpt>
      <trkpt lat="45.572" lon="2.81318">
        <ele>1092.3</ele>
        <time>2021-07-20T07:48:40Z</time>
      </trkpt>
      <trkpt lat="45.57191" lon="2.8132">
        <ele>1091.3</ele>
        <time>2021-07-20T07:48:49Z</time>
      </trkpt>
      <trkpt lat="45.57185" lon="2.8132">
        <ele>1090.3</ele>
        <time>2021-07-20T07:48:55Z</time>
      </trkpt>
      <trkpt lat="45.57173" lon="2.81322">
        <ele>1088.5</ele>
        <time>2021-07-20T07:49:05Z</time>
      </trkpt>
      <trkpt lat="45.57149" lon="2.8132">
        <ele>1084.7</ele>
        <time>2021-07-20T07:49:21Z</time>
      </trkpt>
      <trkpt lat="45.57135" lon="2.81323">
        <ele>1083.9</ele>
        <time>2021-07-20T07:49:35Z</time>
      </trkpt>
      <trkpt lat="45.5712" lon="2.81329">
        <ele>1083.9</ele>
        <time>2021-07-20T07:49:46Z</time>
      </trkpt>
      <trkpt lat="45.57112" lon="2.81335">
        <ele>1084.5</ele>
        <time>2021-07-20T07:49:53Z</time>
      </trkpt>
      <trkpt lat="45.57101" lon="2.8134">
        <ele>1084.9</ele>
        <time>2021-07-20T07:50:04Z</time>
      </trkpt>
      <trkpt lat="45.57092" lon="2.8135">
        <ele>1088</ele>
        <time>2021-07-20T07:50:18Z</time>
      </trkpt>
      <trkpt lat="45.57082" lon="2.81355">
        <ele>1088.6</ele>
        <time>2021-07-20T07:50:30Z</time>
      </trkpt>
      <trkpt lat="45.57068" lon="2.81362">
        <ele>1090.3</ele>
        <time>2021-07-20T07:50:44Z</time>
      </trkpt>
      <trkpt lat="45.57053" lon="2.81369">
        <ele>1091.9</ele>
        <time>2021-07-20T07:50:57Z</time>
      </trkpt>
      <trkpt lat="45.57038" lon="2.81367">
        <ele>1089.8</ele>
        <time>2021-07-20T07:51:10Z</time>
      </trkpt>
      <trkpt lat="45.57023" lon="2.81369">
        <ele>1089</ele>
        <time>2021-07-20T07:51:23Z</time>
      </trkpt>
      <trkpt lat="45.57014" lon="2.81375">
        <ele>1090.2</ele>
        <time>2021-07-20T07:51:37Z</time>
      </trkpt>
      <trkpt lat="45.57014" lon="2.81375">
        <ele>1090.4</ele>
        <time>2021-07-20T07:51:38Z</time>
      </trkpt>
      <trkpt lat="45.57003" lon="2.8139">
        <ele>1094.2</ele>
        <time>2021-07-20T07:51:44Z</time>
      </trkpt>
      <trkpt lat="45.56979" lon="2.81409">
        <ele>1099.4</ele>
        <time>2021-07-20T07:51:55Z</time>
      </trkpt>
      <trkpt lat="45.56964" lon="2.81427">
        <ele>1104.7</ele>
        <time>2021-07-20T07:52:05Z</time>
      </trkpt>
      <trkpt lat="45.56954" lon="2.81447">
        <ele>1111.4</ele>
        <time>2021-07-20T07:52:15Z</time>
      </trkpt>
      <trkpt lat="45.5695" lon="2.8146">
        <ele>1115.6</ele>
        <time>2021-07-20T07:52:20Z</time>
      </trkpt>
      <trkpt lat="45.56945" lon="2.81474">
        <ele>1120.2</ele>
        <time>2021-07-20T07:52:27Z</time>
      </trkpt>
      <trkpt lat="45.56942" lon="2.81476">
        <ele>1120.9</ele>
        <time>2021-07-20T07:52:30Z</time>
      </trkpt>
      <trkpt lat="45.56935" lon="2.81487">
        <ele>1124.2</ele>
        <time>2021-07-20T07:52:39Z</time>
      </trkpt>
      <trkpt lat="45.56928" lon="2.81497">
        <ele>1127</ele>
        <time>2021-07-20T07:52:46Z</time>
      </trkpt>
      <trkpt lat="45.5692" lon="2.81504">
        <ele>1129</ele>
        <time>2021-07-20T07:52:57Z</time>
      </trkpt>
      <trkpt lat="45.56915" lon="2.81511">
        <ele>1131.5</ele>
        <time>2021-07-20T07:53:05Z</time>
      </trkpt>
      <trkpt lat="45.56912" lon="2.81518">
        <ele>1133.9</ele>
        <time>2021-07-20T07:53:12Z</time>
      </trkpt>
      <trkpt lat="45.56907" lon="2.8152">
        <ele>1134.1</ele>
        <time>2021-07-20T07:53:24Z</time>
      </trkpt>
      <trkpt lat="45.56906" lon="2.81517">
        <ele>1132.8</ele>
        <time>2021-07-20T07:53:37Z</time>
      </trkpt>
      <trkpt lat="45.56915" lon="2.81512">
        <ele>1131.9</ele>
        <time>2021-07-20T07:53:54Z</time>
      </trkpt>
      <trkpt lat="45.56923" lon="2.81503">
        <ele>1128.9</ele>
        <time>2021-07-20T07:54:10Z</time>
      </trkpt>
      <trkpt lat="45.56931" lon="2.81499">
        <ele>1128.1</ele>
        <time>2021-07-20T07:54:24Z</time>
      </trkpt>
      <trkpt lat="45.56939" lon="2.81494">
        <ele>1127.2</ele>
        <time>2021-07-20T07:54:36Z</time>
      </trkpt>
      <trkpt lat="45.56948" lon="2.81493">
        <ele>1127.3</ele>
        <time>2021-07-20T07:54:49Z</time>
      </trkpt>
      <trkpt lat="45.56957" lon="2.8149">
        <ele>1127.3</ele>
        <time>2021-07-20T07:55:02Z</time>
      </trkpt>
      <trkpt lat="45.56967" lon="2.81483">
        <ele>1125.6</ele>
        <time>2021-07-20T07:55:18Z</time>
      </trkpt>
      <trkpt lat="45.56977" lon="2.81478">
        <ele>1124.5</ele>
        <time>2021-07-20T07:55:33Z</time>
      </trkpt>
      <trkpt lat="45.56989" lon="2.81477">
        <ele>1125.4</ele>
        <time>2021-07-20T07:55:50Z</time>
      </trkpt>
      <trkpt lat="45.57" lon="2.81481">
        <ele>1127.9</ele>
        <time>2021-07-20T07:56:05Z</time>
      </trkpt>
      <trkpt lat="45.57003" lon="2.81486">
        <ele>1130.1</ele>
        <time>2021-07-20T07:56:17Z</time>
      </trkpt>
      <trkpt lat="45.56999" lon="2.81492">
        <ele>1132</ele>
        <time>2021-07-20T07:56:31Z</time>
      </trkpt>
      <trkpt lat="45.56993" lon="2.815">
        <ele>1134.1</ele>
        <time>2021-07-20T07:56:46Z</time>
      </trkpt>
      <trkpt lat="45.56984" lon="2.8151">
        <ele>1139</ele>
        <time>2021-07-20T07:57:04Z</time>
      </trkpt>
      <trkpt lat="45.56974" lon="2.81527">
        <ele>1146.3</ele>
        <time>2021-07-20T07:57:19Z</time>
      </trkpt>
      <trkpt lat="45.56965" lon="2.81538">
        <ele>1150.8</ele>
        <time>2021-07-20T07:57:36Z</time>
      </trkpt>
      <trkpt lat="45.56955" lon="2.81543">
        <ele>1151.9</ele>
        <time>2021-07-20T07:57:52Z</time>
      </trkpt>
      <trkpt lat="45.56947" lon="2.81547">
        <ele>1152</ele>
        <time>2021-07-20T07:58:05Z</time>
      </trkpt>
      <trkpt lat="45.56937" lon="2.81554">
        <ele>1153.7</ele>
        <time>2021-07-20T07:58:19Z</time>
      </trkpt>
      <trkpt lat="45.56925" lon="2.8156">
        <ele>1154.3</ele>
        <time>2021-07-20T07:58:32Z</time>
      </trkpt>
      <trkpt lat="45.56914" lon="2.81568">
        <ele>1155.7</ele>
        <time>2021-07-20T07:58:48Z</time>
      </trkpt>
      <trkpt lat="45.56907" lon="2.81568">
        <ele>1154.3</ele>
        <time>2021-07-20T07:59:01Z</time>
      </trkpt>
      <trkpt lat="45.56893" lon="2.81578">
        <ele>1155.9</ele>
        <time>2021-07-20T07:59:14Z</time>
      </trkpt>
      <trkpt lat="45.56881" lon="2.8159">
        <ele>1159.2</ele>
        <time>2021-07-20T07:59:32Z</time>
      </trkpt>
      <trkpt lat="45.56875" lon="2.81605">
        <ele>1165</ele>
        <time>2021-07-20T07:59:47Z</time>
      </trkpt>
      <trkpt lat="45.56868" lon="2.81619">
        <ele>1170.7</ele>
        <time>2021-07-20T08:00:01Z</time>
      </trkpt>
      <trkpt lat="45.56864" lon="2.81627">
        <ele>1174.1</ele>
        <time>2021-07-20T08:00:15Z</time>
      </trkpt>
      <trkpt lat="45.56858" lon="2.81633">
        <ele>1175.9</ele>
        <time>2021-07-20T08:00:29Z</time>
      </trkpt>
      <trkpt lat="45.5685" lon="2.81649">
        <ele>1182.8</ele>
        <time>2021-07-20T08:00:45Z</time>
      </trkpt>
      <trkpt lat="45.56839" lon="2.81662">
        <ele>1187.2</ele>
        <time>2021-07-20T08:01:00Z</time>
      </trkpt>
      <trkpt lat="45.56829" lon="2.81671">
        <ele>1190.1</ele>
        <time>2021-07-20T08:01:15Z</time>
      </trkpt>
      <trkpt lat="45.56822" lon="2.81679">
        <ele>1192.8</ele>
        <time>2021-07-20T08:01:29Z</time>
      </trkpt>
      <trkpt lat="45.56816" lon="2.81686">
        <ele>1194.4</ele>
        <time>2021-07-20T08:01:42Z</time>
      </trkpt>
      <trkpt lat="45.56809" lon="2.81698">
        <ele>1198.3</ele>
        <time>2021-07-20T08:01:56Z</time>
      </trkpt>
      <trkpt lat="45.56804" lon="2.81708">
        <ele>1201.3</ele>
        <time>2021-07-20T08:02:09Z</time>
      </trkpt>
      <trkpt lat="45.568" lon="2.81714">
        <ele>1202.9</ele>
        <time>2021-07-20T08:02:22Z</time>
      </trkpt>
      <trkpt lat="45.568" lon="2.81718">
        <ele>1204.1</ele>
        <time>2021-07-20T08:02:27Z</time>
      </trkpt>
      <trkpt lat="45.56795" lon="2.81725">
        <ele>1205.7</ele>
        <time>2021-07-20T08:02:41Z</time>
      </trkpt>
      <trkpt lat="45.56789" lon="2.81728">
        <ele>1205.2</ele>
        <time>2021-07-20T08:02:50Z</time>
      </trkpt>
      <trkpt lat="45.56781" lon="2.81739">
        <ele>1206.5</ele>
        <time>2021-07-20T08:03:06Z</time>
      </trkpt>
      <trkpt lat="45.56775" lon="2.81749">
        <ele>1208.5</ele>
        <time>2021-07-20T08:03:21Z</time>
      </trkpt>
      <trkpt lat="45.5677" lon="2.81759">
        <ele>1211.3</ele>
        <time>2021-07-20T08:03:34Z</time>
      </trkpt>
      <trkpt lat="45.56762" lon="2.81772">
        <ele>1214.3</ele>
        <time>2021-07-20T08:03:49Z</time>
      </trkpt>
      <trkpt lat="45.56757" lon="2.81779">
        <ele>1216.1</ele>
        <time>2021-07-20T08:04:02Z</time>
      </trkpt>
      <trkpt lat="45.5675" lon="2.81792">
        <ele>1219.5</ele>
        <time>2021-07-20T08:04:18Z</time>
      </trkpt>
      <trkpt lat="45.56744" lon="2.81799">
        <ele>1224.4</ele>
        <time>2021-07-20T08:04:34Z</time>
      </trkpt>
      <trkpt lat="45.56731" lon="2.8181">
        <ele>1231.6</ele>
        <time>2021-07-20T08:04:49Z</time>
      </trkpt>
      <trkpt lat="45.5672" lon="2.81817">
        <ele>1236.5</ele>
        <time>2021-07-20T08:05:05Z</time>
      </trkpt>
      <trkpt lat="45.56712" lon="2.81824">
        <ele>1240.1</ele>
        <time>2021-07-20T08:05:17Z</time>
      </trkpt>
      <trkpt lat="45.56706" lon="2.81832">
        <ele>1243.4</ele>
        <time>2021-07-20T08:05:31Z</time>
      </trkpt>
      <trkpt lat="45.56706" lon="2.81828">
        <ele>1242.1</ele>
        <time>2021-07-20T08:05:45Z</time>
      </trkpt>
      <trkpt lat="45.56704" lon="2.81819">
        <ele>1239.7</ele>
        <time>2021-07-20T08:05:58Z</time>
      </trkpt>
      <trkpt lat="45.56703" lon="2.81819">
        <ele>1239.9</ele>
        <time>2021-07-20T08:06:12Z</time>
      </trkpt>
      <trkpt lat="45.56705" lon="2.81824">
        <ele>1241.1</ele>
        <time>2021-07-20T08:06:24Z</time>
      </trkpt>
      <trkpt lat="45.5671" lon="2.8183">
        <ele>1242.3</ele>
        <time>2021-07-20T08:06:38Z</time>
      </trkpt>
      <trkpt lat="45.56715" lon="2.81831">
        <ele>1242</ele>
        <time>2021-07-20T08:06:53Z</time>
      </trkpt>
      <trkpt lat="45.56716" lon="2.81836">
        <ele>1243.8</ele>
        <time>2021-07-20T08:07:07Z</time>
      </trkpt>
      <trkpt lat="45.56713" lon="2.81848">
        <ele>1248.7</ele>
        <time>2021-07-20T08:07:22Z</time>
      </trkpt>
      <trkpt lat="45.56709" lon="2.81863">
        <ele>1254.3</ele>
        <time>2021-07-20T08:07:37Z</time>
      </trkpt>
      <trkpt lat="45.56707" lon="2.81864">
        <ele>1254.9</ele>
        <time>2021-07-20T08:07:46Z</time>
      </trkpt>
      <trkpt lat="45.56705" lon="2.81865">
        <ele>1255</ele>
        <time>2021-07-20T08:07:50Z</time>
      </trkpt>
      <trkpt lat="45.56711" lon="2.81872">
        <ele>1257.7</ele>
        <time>2021-07-20T08:08:04Z</time>
      </trkpt>
      <trkpt lat="45.56715" lon="2.81872">
        <ele>1257.7</ele>
        <time>2021-07-20T08:08:15Z</time>
      </trkpt>
      <trkpt lat="45.56721" lon="2.81878">
        <ele>1260.3</ele>
        <time>2021-07-20T08:08:35Z</time>
      </trkpt>
      <trkpt lat="45.56723" lon="2.81879">
        <ele>1260.7</ele>
        <time>2021-07-20T08:08:38Z</time>
      </trkpt>
      <trkpt lat="45.56733" lon="2.81896">
        <ele>1268.7</ele>
        <time>2021-07-20T08:09:04Z</time>
      </trkpt>
      <trkpt lat="45.56731" lon="2.81888">
        <ele>1265.1</ele>
        <time>2021-07-20T08:09:25Z</time>
      </trkpt>
      <trkpt lat="45.5673" lon="2.81882">
        <ele>1262.4</ele>
        <time>2021-07-20T08:09:46Z</time>
      </trkpt>
      <trkpt lat="45.56728" lon="2.81877">
        <ele>1260.3</ele>
        <time>2021-07-20T08:10:02Z</time>
      </trkpt>
      <trkpt lat="45.56719" lon="2.81871">
        <ele>1257.4</ele>
        <time>2021-07-20T08:10:25Z</time>
      </trkpt>
      <trkpt lat="45.56719" lon="2.81875">
        <ele>1258.9</ele>
        <time>2021-07-20T08:10:41Z</time>
      </trkpt>
      <trkpt lat="45.56724" lon="2.81869">
        <ele>1256.8</ele>
        <time>2021-07-20T08:10:53Z</time>
      </trkpt>
      <trkpt lat="45.56724" lon="2.81864">
        <ele>1254.8</ele>
        <time>2021-07-20T08:11:06Z</time>
      </trkpt>
      <trkpt lat="45.56723" lon="2.81864">
        <ele>1254.6</ele>
        <time>2021-07-20T08:11:12Z</time>
      </trkpt>
      <trkpt lat="45.56731" lon="2.81861">
        <ele>1253.5</ele>
        <time>2021-07-20T08:11:26Z</time>
      </trkpt>
      <trkpt lat="45.56745" lon="2.81848">
        <ele>1246.5</ele>
        <time>2021-07-20T08:11:40Z</time>
      </trkpt>
      <trkpt lat="45.56748" lon="2.8185">
        <ele>1247.3</ele>
        <time>2021-07-20T08:11:46Z</time>
      </trkpt>
      <trkpt lat="45.56752" lon="2.81847">
        <ele>1246.7</ele>
        <time>2021-07-20T08:11:54Z</time>
      </trkpt>
      <trkpt lat="45.56765" lon="2.81851">
        <ele>1252.4</ele>
        <time>2021-07-20T08:12:10Z</time>
      </trkpt>
      <trkpt lat="45.56765" lon="2.81859">
        <ele>1256.4</ele>
        <time>2021-07-20T08:12:27Z</time>
      </trkpt>
      <trkpt lat="45.56766" lon="2.81866">
        <ele>1260</ele>
        <time>2021-07-20T08:12:41Z</time>
      </trkpt>
      <trkpt lat="45.56764" lon="2.81882">
        <ele>1267.3</ele>
        <time>2021-07-20T08:12:57Z</time>
      </trkpt>
      <trkpt lat="45.56757" lon="2.81894">
        <ele>1271.6</ele>
        <time>2021-07-20T08:13:13Z</time>
      </trkpt>
      <trkpt lat="45.56748" lon="2.81909">
        <ele>1276.6</ele>
        <time>2021-07-20T08:13:28Z</time>
      </trkpt>
      <trkpt lat="45.56741" lon="2.81921">
        <ele>1281.8</ele>
        <time>2021-07-20T08:13:40Z</time>
      </trkpt>
      <trkpt lat="45.56738" lon="2.8193">
        <ele>1287.3</ele>
        <time>2021-07-20T08:13:48Z</time>
      </trkpt>
      <trkpt lat="45.56733" lon="2.8194">
        <ele>1292.3</ele>
        <time>2021-07-20T08:14:04Z</time>
      </trkpt>
      <trkpt lat="45.56726" lon="2.81949">
        <ele>1296</ele>
        <time>2021-07-20T08:14:17Z</time>
      </trkpt>
      <trkpt lat="45.56721" lon="2.81954">
        <ele>1298</ele>
        <time>2021-07-20T08:14:29Z</time>
      </trkpt>
      <trkpt lat="45.56714" lon="2.81965">
        <ele>1302.8</ele>
        <time>2021-07-20T08:14:45Z</time>
      </trkpt>
      <trkpt lat="45.56706" lon="2.81972">
        <ele>1304.9</ele>
        <time>2021-07-20T08:14:58Z</time>
      </trkpt>
      <trkpt lat="45.56702" lon="2.81974">
        <ele>1305</ele>
        <time>2021-07-20T08:15:12Z</time>
      </trkpt>
      <trkpt lat="45.56697" lon="2.81987">
        <ele>1311.1</ele>
        <time>2021-07-20T08:15:28Z</time>
      </trkpt>
      <trkpt lat="45.56694" lon="2.81989">
        <ele>1311.3</ele>
        <time>2021-07-20T08:15:32Z</time>
      </trkpt>
      <trkpt lat="45.56688" lon="2.81996">
        <ele>1313.8</ele>
        <time>2021-07-20T08:15:47Z</time>
      </trkpt>
      <trkpt lat="45.56688" lon="2.81995">
        <ele>1313.2</ele>
        <time>2021-07-20T08:15:48Z</time>
      </trkpt>
      <trkpt lat="45.56682" lon="2.81996">
        <ele>1312.2</ele>
        <time>2021-07-20T08:16:01Z</time>
      </trkpt>
      <trkpt lat="45.56676" lon="2.82003">
        <ele>1313.5</ele>
        <time>2021-07-20T08:16:17Z</time>
      </trkpt>
      <trkpt lat="45.56667" lon="2.82005">
        <ele>1311.9</ele>
        <time>2021-07-20T08:16:30Z</time>
      </trkpt>
      <trkpt lat="45.56664" lon="2.82006">
        <ele>1312.9</ele>
        <time>2021-07-20T08:16:44Z</time>
      </trkpt>
      <trkpt lat="45.56662" lon="2.82006">
        <ele>1313</ele>
        <time>2021-07-20T08:16:54Z</time>
      </trkpt>
      <trkpt lat="45.56658" lon="2.82003">
        <ele>1313</ele>
        <time>2021-07-20T08:17:10Z</time>
      </trkpt>
      <trkpt lat="45.56658" lon="2.82004">
        <ele>1313</ele>
        <time>2021-07-20T08:17:26Z</time>
      </trkpt>
      <trkpt lat="45.56657" lon="2.82001">
        <ele>1312.5</ele>
        <time>2021-07-20T08:17:41Z</time>
      </trkpt>
      <trkpt lat="45.56657" lon="2.82002">
        <ele>1312.5</ele>
        <time>2021-07-20T08:17:44Z</time>
      </trkpt>
      <trkpt lat="45.5666" lon="2.82001">
        <ele>1311.8</ele>
        <time>2021-07-20T08:18:03Z</time>
      </trkpt>
      <trkpt lat="45.56657" lon="2.82005">
        <ele>1313.8</ele>
        <time>2021-07-20T08:18:19Z</time>
      </trkpt>
      <trkpt lat="45.56657" lon="2.82003">
        <ele>1313</ele>
        <time>2021-07-20T08:18:30Z</time>
      </trkpt>
      <trkpt lat="45.56661" lon="2.82">
        <ele>1311</ele>
        <time>2021-07-20T08:18:45Z</time>
      </trkpt>
      <trkpt lat="45.56662" lon="2.82002">
        <ele>1311.6</ele>
        <time>2021-07-20T08:18:49Z</time>
      </trkpt>
      <trkpt lat="45.56664" lon="2.82002">
        <ele>1311.1</ele>
        <time>2021-07-20T08:19:06Z</time>
      </trkpt>
      <trkpt lat="45.56663" lon="2.81998">
        <ele>1309.5</ele>
        <time>2021-07-20T08:19:17Z</time>
      </trkpt>
      <trkpt lat="45.56658" lon="2.82004">
        <ele>1313</ele>
        <time>2021-07-20T08:19:32Z</time>
      </trkpt>
      <trkpt lat="45.56646" lon="2.81999">
        <ele>1313.9</ele>
        <time>2021-07-20T08:19:49Z</time>
      </trkpt>
      <trkpt lat="45.56641" lon="2.81992">
        <ele>1311.9</ele>
        <time>2021-07-20T08:19:59Z</time>
      </trkpt>
      <trkpt lat="45.56641" lon="2.8198">
        <ele>1307</ele>
        <time>2021-07-20T08:20:19Z</time>
      </trkpt>
      <trkpt lat="45.56642" lon="2.81978">
        <ele>1305.8</ele>
        <time>2021-07-20T08:20:32Z</time>
      </trkpt>
      <trkpt lat="45.56643" lon="2.81973">
        <ele>1303.3</ele>
        <time>2021-07-20T08:20:48Z</time>
      </trkpt>
      <trkpt lat="45.5664" lon="2.81979">
        <ele>1306.9</ele>
        <time>2021-07-20T08:20:59Z</time>
      </trkpt>
      <trkpt lat="45.56635" lon="2.81982">
        <ele>1309.2</ele>
        <time>2021-07-20T08:21:12Z</time>
      </trkpt>
      <trkpt lat="45.56634" lon="2.81978">
        <ele>1307.8</ele>
        <time>2021-07-20T08:21:23Z</time>
      </trkpt>
      <trkpt lat="45.56626" lon="2.81976">
        <ele>1309.5</ele>
        <time>2021-07-20T08:21:36Z</time>
      </trkpt>
      <trkpt lat="45.56625" lon="2.81969">
        <ele>1307.1</ele>
        <time>2021-07-20T08:21:50Z</time>
      </trkpt>
      <trkpt lat="45.56624" lon="2.81962">
        <ele>1305.3</ele>
        <time>2021-07-20T08:22:04Z</time>
      </trkpt>
      <trkpt lat="45.56619" lon="2.81956">
        <ele>1305.2</ele>
        <time>2021-07-20T08:22:18Z</time>
      </trkpt>
      <trkpt lat="45.56614" lon="2.81953">
        <ele>1306</ele>
        <time>2021-07-20T08:22:32Z</time>
      </trkpt>
      <trkpt lat="45.56607" lon="2.81944">
        <ele>1305.6</ele>
        <time>2021-07-20T08:22:45Z</time>
      </trkpt>
      <trkpt lat="45.56608" lon="2.81939">
        <ele>1303.9</ele>
        <time>2021-07-20T08:22:54Z</time>
      </trkpt>
      <trkpt lat="45.56604" lon="2.81929">
        <ele>1302.8</ele>
        <time>2021-07-20T08:23:09Z</time>
      </trkpt>
      <trkpt lat="45.56602" lon="2.81932">
        <ele>1304.7</ele>
        <time>2021-07-20T08:23:24Z</time>
      </trkpt>
      <trkpt lat="45.566" lon="2.81936">
        <ele>1306.7</ele>
        <time>2021-07-20T08:23:36Z</time>
      </trkpt>
      <trkpt lat="45.56598" lon="2.81939">
        <ele>1308.3</ele>
        <time>2021-07-20T08:23:50Z</time>
      </trkpt>
      <trkpt lat="45.56591" lon="2.81936">
        <ele>1310.6</ele>
        <time>2021-07-20T08:24:05Z</time>
      </trkpt>
      <trkpt lat="45.56583" lon="2.81933">
        <ele>1313.6</ele>
        <time>2021-07-20T08:24:21Z</time>
      </trkpt>
      <trkpt lat="45.56579" lon="2.81928">
        <ele>1313.6</ele>
        <time>2021-07-20T08:24:34Z</time>
      </trkpt>
      <trkpt lat="45.56578" lon="2.81924">
        <ele>1313.4</ele>
        <time>2021-07-20T08:24:50Z</time>
      </trkpt>
      <trkpt lat="45.5658" lon="2.81923">
        <ele>1312.4</ele>
        <time>2021-07-20T08:25:03Z</time>
      </trkpt>
      <trkpt lat="45.56579" lon="2.81927">
        <ele>1313.6</ele>
        <time>2021-07-20T08:25:18Z</time>
      </trkpt>
      <trkpt lat="45.56576" lon="2.81934">
        <ele>1316.1</ele>
        <time>2021-07-20T08:25:34Z</time>
      </trkpt>
      <trkpt lat="45.56576" lon="2.81936">
        <ele>1316.4</ele>
        <time>2021-07-20T08:25:46Z</time>
      </trkpt>
      <trkpt lat="45.56576" lon="2.81936">
        <ele>1316.5</ele>
        <time>2021-07-20T08:26:05Z</time>
      </trkpt>
      <trkpt lat="45.56576" lon="2.81936">
        <ele>1316.5</ele>
        <time>2021-07-20T08:26:17Z</time>
      </trkpt>
      <trkpt lat="45.56575" lon="2.81933">
        <ele>1316.1</ele>
        <time>2021-07-20T08:26:29Z</time>
      </trkpt>
      <trkpt lat="45.56576" lon="2.81929">
        <ele>1315.1</ele>
        <time>2021-07-20T08:26:43Z</time>
      </trkpt>
      <trkpt lat="45.56572" lon="2.81927">
        <ele>1315.8</ele>
        <time>2021-07-20T08:26:57Z</time>
      </trkpt>
      <trkpt lat="45.56569" lon="2.81922">
        <ele>1316.2</ele>
        <time>2021-07-20T08:27:12Z</time>
      </trkpt>
      <trkpt lat="45.56565" lon="2.81919">
        <ele>1317</ele>
        <time>2021-07-20T08:27:28Z</time>
      </trkpt>
      <trkpt lat="45.56561" lon="2.81917">
        <ele>1318</ele>
        <time>2021-07-20T08:27:50Z</time>
      </trkpt>
      <trkpt lat="45.56559" lon="2.8191">
        <ele>1318</ele>
        <time>2021-07-20T08:28:07Z</time>
      </trkpt>
      <trkpt lat="45.56557" lon="2.819">
        <ele>1317.2</ele>
        <time>2021-07-20T08:28:20Z</time>
      </trkpt>
      <trkpt lat="45.56556" lon="2.8189">
        <ele>1316.2</ele>
        <time>2021-07-20T08:28:32Z</time>
      </trkpt>
      <trkpt lat="45.56557" lon="2.81888">
        <ele>1315.8</ele>
        <time>2021-07-20T08:28:45Z</time>
      </trkpt>
      <trkpt lat="45.56556" lon="2.81887">
        <ele>1315.8</ele>
        <time>2021-07-20T08:29:00Z</time>
      </trkpt>
      <trkpt lat="45.56558" lon="2.81876">
        <ele>1313.8</ele>
        <time>2021-07-20T08:29:12Z</time>
      </trkpt>
      <trkpt lat="45.56559" lon="2.81864">
        <ele>1311.8</ele>
        <time>2021-07-20T08:29:23Z</time>
      </trkpt>
      <trkpt lat="45.5656" lon="2.81852">
        <ele>1310</ele>
        <time>2021-07-20T08:29:33Z</time>
      </trkpt>
      <trkpt lat="45.56561" lon="2.81843">
        <ele>1308.4</ele>
        <time>2021-07-20T08:29:49Z</time>
      </trkpt>
      <trkpt lat="45.56562" lon="2.81841">
        <ele>1307.8</ele>
        <time>2021-07-20T08:30:04Z</time>
      </trkpt>
      <trkpt lat="45.56565" lon="2.8184">
        <ele>1306.9</ele>
        <time>2021-07-20T08:30:21Z</time>
      </trkpt>
      <trkpt lat="45.56564" lon="2.81841">
        <ele>1307.4</ele>
        <time>2021-07-20T08:30:38Z</time>
      </trkpt>
      <trkpt lat="45.56565" lon="2.81842">
        <ele>1307</ele>
        <time>2021-07-20T08:31:10Z</time>
      </trkpt>
      <trkpt lat="45.56565" lon="2.81841">
        <ele>1307</ele>
        <time>2021-07-20T08:31:28Z</time>
      </trkpt>
      <trkpt lat="45.56563" lon="2.81843">
        <ele>1307.6</ele>
        <time>2021-07-20T08:31:40Z</time>
      </trkpt>
      <trkpt lat="45.56557" lon="2.81848">
        <ele>1310.4</ele>
        <time>2021-07-20T08:31:53Z</time>
      </trkpt>
      <trkpt lat="45.56552" lon="2.8185">
        <ele>1312.5</ele>
        <time>2021-07-20T08:32:06Z</time>
      </trkpt>
      <trkpt lat="45.56545" lon="2.81851">
        <ele>1315</ele>
        <time>2021-07-20T08:32:17Z</time>
      </trkpt>
      <trkpt lat="45.56537" lon="2.81847">
        <ele>1317</ele>
        <time>2021-07-20T08:32:31Z</time>
      </trkpt>
      <trkpt lat="45.56528" lon="2.81851">
        <ele>1320.3</ele>
        <time>2021-07-20T08:32:45Z</time>
      </trkpt>
      <trkpt lat="45.5652" lon="2.81851">
        <ele>1323</ele>
        <time>2021-07-20T08:32:59Z</time>
      </trkpt>
      <trkpt lat="45.56511" lon="2.8185">
        <ele>1325.9</ele>
        <time>2021-07-20T08:33:15Z</time>
      </trkpt>
      <trkpt lat="45.56503" lon="2.8185">
        <ele>1328.6</ele>
        <time>2021-07-20T08:33:29Z</time>
      </trkpt>
      <trkpt lat="45.56496" lon="2.81851">
        <ele>1330.5</ele>
        <time>2021-07-20T08:33:45Z</time>
      </trkpt>
      <trkpt lat="45.56489" lon="2.8185">
        <ele>1331.3</ele>
        <time>2021-07-20T08:33:58Z</time>
      </trkpt>
      <trkpt lat="45.5648" lon="2.8185">
        <ele>1332.7</ele>
        <time>2021-07-20T08:34:13Z</time>
      </trkpt>
      <trkpt lat="45.56477" lon="2.8185">
        <ele>1333.1</ele>
        <time>2021-07-20T08:34:26Z</time>
      </trkpt>
      <trkpt lat="45.56473" lon="2.81849">
        <ele>1333.5</ele>
        <time>2021-07-20T08:34:38Z</time>
      </trkpt>
      <trkpt lat="45.56468" lon="2.81848">
        <ele>1334.1</ele>
        <time>2021-07-20T08:34:55Z</time>
      </trkpt>
      <trkpt lat="45.5646" lon="2.81848">
        <ele>1335.3</ele>
        <time>2021-07-20T08:35:09Z</time>
      </trkpt>
      <trkpt lat="45.56452" lon="2.81853">
        <ele>1337.5</ele>
        <time>2021-07-20T08:35:23Z</time>
      </trkpt>
      <trkpt lat="45.56448" lon="2.81857">
        <ele>1339</ele>
        <time>2021-07-20T08:35:36Z</time>
      </trkpt>
      <trkpt lat="45.56439" lon="2.81861">
        <ele>1341.5</ele>
        <time>2021-07-20T08:35:50Z</time>
      </trkpt>
      <trkpt lat="45.56431" lon="2.81863">
        <ele>1343</ele>
        <time>2021-07-20T08:36:03Z</time>
      </trkpt>
      <trkpt lat="45.56422" lon="2.81863">
        <ele>1344.6</ele>
        <time>2021-07-20T08:36:19Z</time>
      </trkpt>
      <trkpt lat="45.56416" lon="2.81862">
        <ele>1345.3</ele>
        <time>2021-07-20T08:36:31Z</time>
      </trkpt>
      <trkpt lat="45.56411" lon="2.81867">
        <ele>1347.1</ele>
        <time>2021-07-20T08:36:44Z</time>
      </trkpt>
      <trkpt lat="45.56406" lon="2.81874">
        <ele>1349.5</ele>
        <time>2021-07-20T08:36:55Z</time>
      </trkpt>
      <trkpt lat="45.56398" lon="2.81883">
        <ele>1352.9</ele>
        <time>2021-07-20T08:37:12Z</time>
      </trkpt>
      <trkpt lat="45.56394" lon="2.81885">
        <ele>1354</ele>
        <time>2021-07-20T08:37:23Z</time>
      </trkpt>
      <trkpt lat="45.56388" lon="2.81888">
        <ele>1355.7</ele>
        <time>2021-07-20T08:37:35Z</time>
      </trkpt>
      <trkpt lat="45.56382" lon="2.81891">
        <ele>1357.3</ele>
        <time>2021-07-20T08:37:50Z</time>
      </trkpt>
      <trkpt lat="45.56376" lon="2.81897">
        <ele>1359.7</ele>
        <time>2021-07-20T08:38:03Z</time>
      </trkpt>
      <trkpt lat="45.56367" lon="2.819">
        <ele>1361.7</ele>
        <time>2021-07-20T08:38:17Z</time>
      </trkpt>
      <trkpt lat="45.56357" lon="2.81905">
        <ele>1364.7</ele>
        <time>2021-07-20T08:38:33Z</time>
      </trkpt>
      <trkpt lat="45.56353" lon="2.81906">
        <ele>1365.8</ele>
        <time>2021-07-20T08:38:45Z</time>
      </trkpt>
      <trkpt lat="45.56343" lon="2.81911">
        <ele>1368.8</ele>
        <time>2021-07-20T08:38:57Z</time>
      </trkpt>
      <trkpt lat="45.56339" lon="2.81912">
        <ele>1369.7</ele>
        <time>2021-07-20T08:39:04Z</time>
      </trkpt>
      <trkpt lat="45.56328" lon="2.81912">
        <ele>1370.7</ele>
        <time>2021-07-20T08:39:19Z</time>
      </trkpt>
      <trkpt lat="45.56322" lon="2.81913">
        <ele>1371.3</ele>
        <time>2021-07-20T08:39:34Z</time>
      </trkpt>
      <trkpt lat="45.56312" lon="2.81911">
        <ele>1371.4</ele>
        <time>2021-07-20T08:39:50Z</time>
      </trkpt>
      <trkpt lat="45.56302" lon="2.81911">
        <ele>1371.8</ele>
        <time>2021-07-20T08:40:05Z</time>
      </trkpt>
      <trkpt lat="45.56293" lon="2.81914">
        <ele>1373.6</ele>
        <time>2021-07-20T08:40:20Z</time>
      </trkpt>
      <trkpt lat="45.56283" lon="2.8192">
        <ele>1375.5</ele>
        <time>2021-07-20T08:40:34Z</time>
      </trkpt>
      <trkpt lat="45.56272" lon="2.81928">
        <ele>1377.7</ele>
        <time>2021-07-20T08:40:52Z</time>
      </trkpt>
      <trkpt lat="45.5626" lon="2.81935">
        <ele>1379.8</ele>
        <time>2021-07-20T08:41:10Z</time>
      </trkpt>
      <trkpt lat="45.56251" lon="2.81941">
        <ele>1381.8</ele>
        <time>2021-07-20T08:41:24Z</time>
      </trkpt>
      <trkpt lat="45.56242" lon="2.81952">
        <ele>1384.1</ele>
        <time>2021-07-20T08:41:39Z</time>
      </trkpt>
      <trkpt lat="45.56236" lon="2.81961">
        <ele>1386.2</ele>
        <time>2021-07-20T08:41:51Z</time>
      </trkpt>
      <trkpt lat="45.5623" lon="2.81972">
        <ele>1388.8</ele>
        <time>2021-07-20T08:42:04Z</time>
      </trkpt>
      <trkpt lat="45.56225" lon="2.81974">
        <ele>1389.5</ele>
        <time>2021-07-20T08:42:12Z</time>
      </trkpt>
      <trkpt lat="45.56216" lon="2.81977">
        <ele>1390.7</ele>
        <time>2021-07-20T08:42:25Z</time>
      </trkpt>
      <trkpt lat="45.56211" lon="2.81991">
        <ele>1394.7</ele>
        <time>2021-07-20T08:42:39Z</time>
      </trkpt>
      <trkpt lat="45.56212" lon="2.81996">
        <ele>1396</ele>
        <time>2021-07-20T08:42:45Z</time>
      </trkpt>
      <trkpt lat="45.56209" lon="2.82014">
        <ele>1398.6</ele>
        <time>2021-07-20T08:42:59Z</time>
      </trkpt>
      <trkpt lat="45.56205" lon="2.82029">
        <ele>1400.2</ele>
        <time>2021-07-20T08:43:11Z</time>
      </trkpt>
      <trkpt lat="45.562" lon="2.82045">
        <ele>1402.4</ele>
        <time>2021-07-20T08:43:26Z</time>
      </trkpt>
      <trkpt lat="45.56194" lon="2.82058">
        <ele>1404.6</ele>
        <time>2021-07-20T08:43:41Z</time>
      </trkpt>
      <trkpt lat="45.56192" lon="2.82067">
        <ele>1405.8</ele>
        <time>2021-07-20T08:43:52Z</time>
      </trkpt>
      <trkpt lat="45.56188" lon="2.82076">
        <ele>1407.4</ele>
        <time>2021-07-20T08:44:06Z</time>
      </trkpt>
      <trkpt lat="45.56186" lon="2.82082">
        <ele>1408.4</ele>
        <time>2021-07-20T08:44:16Z</time>
      </trkpt>
      <trkpt lat="45.56184" lon="2.82089">
        <ele>1409.6</ele>
        <time>2021-07-20T08:44:28Z</time>
      </trkpt>
      <trkpt lat="45.5618" lon="2.82095">
        <ele>1411.2</ele>
        <time>2021-07-20T08:44:40Z</time>
      </trkpt>
      <trkpt lat="45.56175" lon="2.82096">
        <ele>1412.2</ele>
        <time>2021-07-20T08:44:52Z</time>
      </trkpt>
      <trkpt lat="45.56169" lon="2.82098">
        <ele>1413.5</ele>
        <time>2021-07-20T08:45:03Z</time>
      </trkpt>
      <trkpt lat="45.56164" lon="2.82097">
        <ele>1413.6</ele>
        <time>2021-07-20T08:45:09Z</time>
      </trkpt>
      <trkpt lat="45.56154" lon="2.82097">
        <ele>1412.2</ele>
        <time>2021-07-20T08:45:21Z</time>
      </trkpt>
      <trkpt lat="45.56142" lon="2.82099">
        <ele>1411.1</ele>
        <time>2021-07-20T08:45:35Z</time>
      </trkpt>
      <trkpt lat="45.56125" lon="2.82101">
        <ele>1409.4</ele>
        <time>2021-07-20T08:45:54Z</time>
      </trkpt>
      <trkpt lat="45.56116" lon="2.82104">
        <ele>1409.2</ele>
        <time>2021-07-20T08:46:08Z</time>
      </trkpt>
      <trkpt lat="45.56106" lon="2.82113">
        <ele>1410.7</ele>
        <time>2021-07-20T08:46:23Z</time>
      </trkpt>
      <trkpt lat="45.56098" lon="2.82122">
        <ele>1412.6</ele>
        <time>2021-07-20T08:46:36Z</time>
      </trkpt>
      <trkpt lat="45.56095" lon="2.82126">
        <ele>1413.5</ele>
        <time>2021-07-20T08:46:41Z</time>
      </trkpt>
      <trkpt lat="45.56086" lon="2.82131">
        <ele>1414.6</ele>
        <time>2021-07-20T08:46:54Z</time>
      </trkpt>
      <trkpt lat="45.56075" lon="2.8213">
        <ele>1412.6</ele>
        <time>2021-07-20T08:47:08Z</time>
      </trkpt>
      <trkpt lat="45.56064" lon="2.82138">
        <ele>1413.4</ele>
        <time>2021-07-20T08:47:26Z</time>
      </trkpt>
      <trkpt lat="45.56054" lon="2.82143">
        <ele>1413.6</ele>
        <time>2021-07-20T08:47:40Z</time>
      </trkpt>
      <trkpt lat="45.56042" lon="2.82146">
        <ele>1413</ele>
        <time>2021-07-20T08:47:55Z</time>
      </trkpt>
      <trkpt lat="45.56033" lon="2.82156">
        <ele>1416.2</ele>
        <time>2021-07-20T08:48:12Z</time>
      </trkpt>
      <trkpt lat="45.56027" lon="2.82163">
        <ele>1419</ele>
        <time>2021-07-20T08:48:23Z</time>
      </trkpt>
      <trkpt lat="45.56021" lon="2.8217">
        <ele>1421.2</ele>
        <time>2021-07-20T08:48:36Z</time>
      </trkpt>
      <trkpt lat="45.56017" lon="2.82176">
        <ele>1423</ele>
        <time>2021-07-20T08:48:48Z</time>
      </trkpt>
      <trkpt lat="45.56015" lon="2.82185">
        <ele>1425.9</ele>
        <time>2021-07-20T08:49:02Z</time>
      </trkpt>
      <trkpt lat="45.56012" lon="2.82198">
        <ele>1430.3</ele>
        <time>2021-07-20T08:49:18Z</time>
      </trkpt>
      <trkpt lat="45.56007" lon="2.82206">
        <ele>1432.9</ele>
        <time>2021-07-20T08:49:30Z</time>
      </trkpt>
      <trkpt lat="45.55997" lon="2.82214">
        <ele>1435</ele>
        <time>2021-07-20T08:49:45Z</time>
      </trkpt>
      <trkpt lat="45.55993" lon="2.82219">
        <ele>1436.5</ele>
        <time>2021-07-20T08:49:57Z</time>
      </trkpt>
      <trkpt lat="45.55987" lon="2.82227">
        <ele>1438.7</ele>
        <time>2021-07-20T08:50:10Z</time>
      </trkpt>
      <trkpt lat="45.55977" lon="2.82234">
        <ele>1440.4</ele>
        <time>2021-07-20T08:50:24Z</time>
      </trkpt>
      <trkpt lat="45.55964" lon="2.82242">
        <ele>1442.5</ele>
        <time>2021-07-20T08:50:40Z</time>
      </trkpt>
      <trkpt lat="45.55955" lon="2.82249">
        <ele>1444.9</ele>
        <time>2021-07-20T08:50:52Z</time>
      </trkpt>
      <trkpt lat="45.55944" lon="2.82252">
        <ele>1444.9</ele>
        <time>2021-07-20T08:51:07Z</time>
      </trkpt>
      <trkpt lat="45.55944" lon="2.82254">
        <ele>1445.2</ele>
        <time>2021-07-20T08:51:31Z</time>
      </trkpt>
      <trkpt lat="45.55944" lon="2.82253">
        <ele>1445</ele>
        <time>2021-07-20T08:52:00Z</time>
      </trkpt>
      <trkpt lat="45.55944" lon="2.82254">
        <ele>1445.2</ele>
        <time>2021-07-20T08:52:23Z</time>
      </trkpt>
      <trkpt lat="45.55941" lon="2.82256">
        <ele>1445.5</ele>
        <time>2021-07-20T08:52:45Z</time>
      </trkpt>
      <trkpt lat="45.55934" lon="2.82259">
        <ele>1445.9</ele>
        <time>2021-07-20T08:52:58Z</time>
      </trkpt>
      <trkpt lat="45.55923" lon="2.82264">
        <ele>1446.3</ele>
        <time>2021-07-20T08:53:13Z</time>
      </trkpt>
      <trkpt lat="45.55913" lon="2.82266">
        <ele>1446.7</ele>
        <time>2021-07-20T08:53:26Z</time>
      </trkpt>
      <trkpt lat="45.55899" lon="2.8227">
        <ele>1448.2</ele>
        <time>2021-07-20T08:53:42Z</time>
      </trkpt>
      <trkpt lat="45.55886" lon="2.82274">
        <ele>1449.8</ele>
        <time>2021-07-20T08:53:58Z</time>
      </trkpt>
      <trkpt lat="45.55873" lon="2.82279">
        <ele>1451.9</ele>
        <time>2021-07-20T08:54:14Z</time>
      </trkpt>
      <trkpt lat="45.55862" lon="2.82282">
        <ele>1453.5</ele>
        <time>2021-07-20T08:54:28Z</time>
      </trkpt>
      <trkpt lat="45.55849" lon="2.82287">
        <ele>1455.7</ele>
        <time>2021-07-20T08:54:44Z</time>
      </trkpt>
      <trkpt lat="45.55839" lon="2.82292">
        <ele>1457.8</ele>
        <time>2021-07-20T08:54:56Z</time>
      </trkpt>
      <trkpt lat="45.55828" lon="2.82295">
        <ele>1459.3</ele>
        <time>2021-07-20T08:55:09Z</time>
      </trkpt>
      <trkpt lat="45.55819" lon="2.823">
        <ele>1461.2</ele>
        <time>2021-07-20T08:55:22Z</time>
      </trkpt>
      <trkpt lat="45.55808" lon="2.82305">
        <ele>1463.1</ele>
        <time>2021-07-20T08:55:35Z</time>
      </trkpt>
      <trkpt lat="45.55799" lon="2.82311">
        <ele>1465.3</ele>
        <time>2021-07-20T08:55:48Z</time>
      </trkpt>
      <trkpt lat="45.55795" lon="2.82312">
        <ele>1465.8</ele>
        <time>2021-07-20T08:56:00Z</time>
      </trkpt>
      <trkpt lat="45.55796" lon="2.82311">
        <ele>1465.2</ele>
        <time>2021-07-20T08:56:11Z</time>
      </trkpt>
      <trkpt lat="45.55795" lon="2.8231">
        <ele>1464.8</ele>
        <time>2021-07-20T08:56:31Z</time>
      </trkpt>
      <trkpt lat="45.55794" lon="2.82309">
        <ele>1464.7</ele>
        <time>2021-07-20T08:56:51Z</time>
      </trkpt>
      <trkpt lat="45.55788" lon="2.82312">
        <ele>1465.8</ele>
        <time>2021-07-20T08:57:01Z</time>
      </trkpt>
      <trkpt lat="45.55779" lon="2.82319">
        <ele>1468.1</ele>
        <time>2021-07-20T08:57:15Z</time>
      </trkpt>
      <trkpt lat="45.55769" lon="2.82324">
        <ele>1469.9</ele>
        <time>2021-07-20T08:57:28Z</time>
      </trkpt>
      <trkpt lat="45.55768" lon="2.82324">
        <ele>1470</ele>
        <time>2021-07-20T08:57:29Z</time>
      </trkpt>
      <trkpt lat="45.55766" lon="2.82326">
        <ele>1470.4</ele>
        <time>2021-07-20T08:57:32Z</time>
      </trkpt>
      <trkpt lat="45.55756" lon="2.82331">
        <ele>1472.2</ele>
        <time>2021-07-20T08:57:45Z</time>
      </trkpt>
      <trkpt lat="45.55745" lon="2.82337">
        <ele>1473.7</ele>
        <time>2021-07-20T08:58:00Z</time>
      </trkpt>
      <trkpt lat="45.55738" lon="2.82342">
        <ele>1474.6</ele>
        <time>2021-07-20T08:58:09Z</time>
      </trkpt>
      <trkpt lat="45.55728" lon="2.82351">
        <ele>1476.3</ele>
        <time>2021-07-20T08:58:24Z</time>
      </trkpt>
      <trkpt lat="45.55717" lon="2.82354">
        <ele>1477.3</ele>
        <time>2021-07-20T08:58:38Z</time>
      </trkpt>
      <trkpt lat="45.55706" lon="2.82355">
        <ele>1478</ele>
        <time>2021-07-20T08:58:53Z</time>
      </trkpt>
      <trkpt lat="45.55691" lon="2.82355">
        <ele>1478.8</ele>
        <time>2021-07-20T08:59:09Z</time>
      </trkpt>
      <trkpt lat="45.55681" lon="2.82362">
        <ele>1480.8</ele>
        <time>2021-07-20T08:59:24Z</time>
      </trkpt>
      <trkpt lat="45.55681" lon="2.82363">
        <ele>1481</ele>
        <time>2021-07-20T08:59:25Z</time>
      </trkpt>
      <trkpt lat="45.55676" lon="2.82366">
        <ele>1481.9</ele>
        <time>2021-07-20T08:59:31Z</time>
      </trkpt>
      <trkpt lat="45.55668" lon="2.82372">
        <ele>1483.7</ele>
        <time>2021-07-20T08:59:42Z</time>
      </trkpt>
      <trkpt lat="45.55661" lon="2.82376">
        <ele>1485.1</ele>
        <time>2021-07-20T08:59:52Z</time>
      </trkpt>
      <trkpt lat="45.55652" lon="2.8238">
        <ele>1486.5</ele>
        <time>2021-07-20T09:00:04Z</time>
      </trkpt>
      <trkpt lat="45.55644" lon="2.82385">
        <ele>1488.3</ele>
        <time>2021-07-20T09:00:15Z</time>
      </trkpt>
      <trkpt lat="45.55636" lon="2.82394">
        <ele>1491.5</ele>
        <time>2021-07-20T09:00:28Z</time>
      </trkpt>
      <trkpt lat="45.55629" lon="2.824">
        <ele>1493.9</ele>
        <time>2021-07-20T09:00:38Z</time>
      </trkpt>
      <trkpt lat="45.5562" lon="2.82407">
        <ele>1496.9</ele>
        <time>2021-07-20T09:00:50Z</time>
      </trkpt>
      <trkpt lat="45.55612" lon="2.82413">
        <ele>1499.8</ele>
        <time>2021-07-20T09:01:02Z</time>
      </trkpt>
      <trkpt lat="45.55603" lon="2.82418">
        <ele>1502.6</ele>
        <time>2021-07-20T09:01:15Z</time>
      </trkpt>
      <trkpt lat="45.55595" lon="2.82422">
        <ele>1504</ele>
        <time>2021-07-20T09:01:25Z</time>
      </trkpt>
      <trkpt lat="45.55585" lon="2.82428">
        <ele>1506</ele>
        <time>2021-07-20T09:01:39Z</time>
      </trkpt>
      <trkpt lat="45.5558" lon="2.82431">
        <ele>1506.5</ele>
        <time>2021-07-20T09:01:52Z</time>
      </trkpt>
      <trkpt lat="45.55573" lon="2.82437">
        <ele>1507.3</ele>
        <time>2021-07-20T09:02:03Z</time>
      </trkpt>
      <trkpt lat="45.55567" lon="2.82443">
        <ele>1508.1</ele>
        <time>2021-07-20T09:02:13Z</time>
      </trkpt>
      <trkpt lat="45.55558" lon="2.82448">
        <ele>1509.1</ele>
        <time>2021-07-20T09:02:27Z</time>
      </trkpt>
      <trkpt lat="45.55551" lon="2.82451">
        <ele>1509.9</ele>
        <time>2021-07-20T09:02:39Z</time>
      </trkpt>
      <trkpt lat="45.55544" lon="2.82455">
        <ele>1511</ele>
        <time>2021-07-20T09:02:52Z</time>
      </trkpt>
      <trkpt lat="45.55543" lon="2.82455">
        <ele>1511.1</ele>
        <time>2021-07-20T09:02:53Z</time>
      </trkpt>
      <trkpt lat="45.55543" lon="2.82456">
        <ele>1511.2</ele>
        <time>2021-07-20T09:02:54Z</time>
      </trkpt>
      <trkpt lat="45.55542" lon="2.82456">
        <ele>1511.3</ele>
        <time>2021-07-20T09:02:55Z</time>
      </trkpt>
      <trkpt lat="45.55541" lon="2.82456">
        <ele>1511.4</ele>
        <time>2021-07-20T09:02:56Z</time>
      </trkpt>
      <trkpt lat="45.5554" lon="2.82457">
        <ele>1511.5</ele>
        <time>2021-07-20T09:02:57Z</time>
      </trkpt>
      <trkpt lat="45.55539" lon="2.82457">
        <ele>1511.7</ele>
        <time>2021-07-20T09:02:59Z</time>
      </trkpt>
      <trkpt lat="45.55539" lon="2.82458">
        <ele>1511.8</ele>
        <time>2021-07-20T09:03:00Z</time>
      </trkpt>
      <trkpt lat="45.55531" lon="2.82462">
        <ele>1513.1</ele>
        <time>2021-07-20T09:03:13Z</time>
      </trkpt>
      <trkpt lat="45.5553" lon="2.82463">
        <ele>1513.5</ele>
        <time>2021-07-20T09:03:15Z</time>
      </trkpt>
      <trkpt lat="45.55521" lon="2.8247">
        <ele>1515.7</ele>
        <time>2021-07-20T09:03:28Z</time>
      </trkpt>
      <trkpt lat="45.55513" lon="2.82475">
        <ele>1517.6</ele>
        <time>2021-07-20T09:03:40Z</time>
      </trkpt>
      <trkpt lat="45.5551" lon="2.82484">
        <ele>1520.3</ele>
        <time>2021-07-20T09:03:50Z</time>
      </trkpt>
      <trkpt lat="45.55505" lon="2.82494">
        <ele>1523.6</ele>
        <time>2021-07-20T09:04:02Z</time>
      </trkpt>
      <trkpt lat="45.55505" lon="2.82495">
        <ele>1524</ele>
        <time>2021-07-20T09:04:06Z</time>
      </trkpt>
      <trkpt lat="45.55505" lon="2.82496">
        <ele>1524.1</ele>
        <time>2021-07-20T09:04:07Z</time>
      </trkpt>
      <trkpt lat="45.55504" lon="2.82496">
        <ele>1524.4</ele>
        <time>2021-07-20T09:04:19Z</time>
      </trkpt>
      <trkpt lat="45.55497" lon="2.82503">
        <ele>1526.1</ele>
        <time>2021-07-20T09:04:30Z</time>
      </trkpt>
      <trkpt lat="45.555" lon="2.82508">
        <ele>1525.9</ele>
        <time>2021-07-20T09:04:41Z</time>
      </trkpt>
      <trkpt lat="45.55505" lon="2.82508">
        <ele>1525.1</ele>
        <time>2021-07-20T09:04:52Z</time>
      </trkpt>
      <trkpt lat="45.55509" lon="2.82509">
        <ele>1524.7</ele>
        <time>2021-07-20T09:05:02Z</time>
      </trkpt>
      <trkpt lat="45.55509" lon="2.82509">
        <ele>1524.7</ele>
        <time>2021-07-20T09:05:05Z</time>
      </trkpt>
      <trkpt lat="45.55512" lon="2.8251">
        <ele>1524.2</ele>
        <time>2021-07-20T09:05:12Z</time>
      </trkpt>
      <trkpt lat="45.55516" lon="2.82512">
        <ele>1523.5</ele>
        <time>2021-07-20T09:05:24Z</time>
      </trkpt>
      <trkpt lat="45.55518" lon="2.82512">
        <ele>1523.3</ele>
        <time>2021-07-20T09:05:27Z</time>
      </trkpt>
      <trkpt lat="45.55518" lon="2.82512">
        <ele>1523.2</ele>
        <time>2021-07-20T09:05:35Z</time>
      </trkpt>
      <trkpt lat="45.55521" lon="2.82512">
        <ele>1522.8</ele>
        <time>2021-07-20T09:05:40Z</time>
      </trkpt>
      <trkpt lat="45.55521" lon="2.82512">
        <ele>1522.8</ele>
        <time>2021-07-20T09:05:42Z</time>
      </trkpt>
      <trkpt lat="45.55521" lon="2.82512">
        <ele>1522.8</ele>
        <time>2021-07-20T09:05:43Z</time>
      </trkpt>
      <trkpt lat="45.55521" lon="2.82507">
        <ele>1523</ele>
        <time>2021-07-20T09:05:58Z</time>
      </trkpt>
      <trkpt lat="45.55519" lon="2.82507">
        <ele>1523.1</ele>
        <time>2021-07-20T09:06:15Z</time>
      </trkpt>
      <trkpt lat="45.55519" lon="2.82507">
        <ele>1523.1</ele>
        <time>2021-07-20T09:06:23Z</time>
      </trkpt>
      <trkpt lat="45.55519" lon="2.82504">
        <ele>1523.2</ele>
        <time>2021-07-20T09:06:34Z</time>
      </trkpt>
      <trkpt lat="45.55519" lon="2.82505">
        <ele>1523.1</ele>
        <time>2021-07-20T09:06:40Z</time>
      </trkpt>
      <trkpt lat="45.5552" lon="2.82506">
        <ele>1523.1</ele>
        <time>2021-07-20T09:06:50Z</time>
      </trkpt>
      <trkpt lat="45.55522" lon="2.82506">
        <ele>1522.8</ele>
        <time>2021-07-20T09:07:04Z</time>
      </trkpt>
      <trkpt lat="45.55523" lon="2.82506">
        <ele>1522.6</ele>
        <time>2021-07-20T09:07:06Z</time>
      </trkpt>
      <trkpt lat="45.55524" lon="2.82506">
        <ele>1522.5</ele>
        <time>2021-07-20T09:07:07Z</time>
      </trkpt>
      <trkpt lat="45.55537" lon="2.82509">
        <ele>1520.5</ele>
        <time>2021-07-20T09:07:21Z</time>
      </trkpt>
      <trkpt lat="45.55548" lon="2.8251">
        <ele>1518.9</ele>
        <time>2021-07-20T09:07:33Z</time>
      </trkpt>
      <trkpt lat="45.55564" lon="2.82515">
        <ele>1516.6</ele>
        <time>2021-07-20T09:07:47Z</time>
      </trkpt>
      <trkpt lat="45.55565" lon="2.82516">
        <ele>1516.4</ele>
        <time>2021-07-20T09:07:49Z</time>
      </trkpt>
      <trkpt lat="45.55569" lon="2.82519">
        <ele>1515.8</ele>
        <time>2021-07-20T09:07:54Z</time>
      </trkpt>
      <trkpt lat="45.55585" lon="2.82524">
        <ele>1513.3</ele>
        <time>2021-07-20T09:08:07Z</time>
      </trkpt>
      <trkpt lat="45.55587" lon="2.82524">
        <ele>1512.9</ele>
        <time>2021-07-20T09:08:08Z</time>
      </trkpt>
      <trkpt lat="45.55588" lon="2.82525">
        <ele>1512.6</ele>
        <time>2021-07-20T09:08:09Z</time>
      </trkpt>
      <trkpt lat="45.55589" lon="2.82525">
        <ele>1512.3</ele>
        <time>2021-07-20T09:08:10Z</time>
      </trkpt>
      <trkpt lat="45.55591" lon="2.82526">
        <ele>1511.8</ele>
        <time>2021-07-20T09:08:12Z</time>
      </trkpt>
      <trkpt lat="45.55596" lon="2.82528">
        <ele>1510.6</ele>
        <time>2021-07-20T09:08:19Z</time>
      </trkpt>
      <trkpt lat="45.55597" lon="2.82528">
        <ele>1510.3</ele>
        <time>2021-07-20T09:08:24Z</time>
      </trkpt>
      <trkpt lat="45.55597" lon="2.82528">
        <ele>1510.3</ele>
        <time>2021-07-20T09:08:36Z</time>
      </trkpt>
      <trkpt lat="45.55597" lon="2.82528">
        <ele>1510.2</ele>
        <time>2021-07-20T09:08:56Z</time>
      </trkpt>
      <trkpt lat="45.55598" lon="2.82528">
        <ele>1509.9</ele>
        <time>2021-07-20T09:08:58Z</time>
      </trkpt>
      <trkpt lat="45.55599" lon="2.82528">
        <ele>1509.8</ele>
        <time>2021-07-20T09:08:59Z</time>
      </trkpt>
      <trkpt lat="45.55601" lon="2.82529">
        <ele>1509.3</ele>
        <time>2021-07-20T09:09:15Z</time>
      </trkpt>
      <trkpt lat="45.55605" lon="2.82533">
        <ele>1508.1</ele>
        <time>2021-07-20T09:09:21Z</time>
      </trkpt>
      <trkpt lat="45.55614" lon="2.8255">
        <ele>1505.9</ele>
        <time>2021-07-20T09:09:35Z</time>
      </trkpt>
      <trkpt lat="45.55623" lon="2.82565">
        <ele>1503.6</ele>
        <time>2021-07-20T09:09:49Z</time>
      </trkpt>
      <trkpt lat="45.55623" lon="2.82566">
        <ele>1503.5</ele>
        <time>2021-07-20T09:09:50Z</time>
      </trkpt>
      <trkpt lat="45.55627" lon="2.82569">
        <ele>1502.7</ele>
        <time>2021-07-20T09:09:54Z</time>
      </trkpt>
      <trkpt lat="45.5563" lon="2.82576">
        <ele>1501.9</ele>
        <time>2021-07-20T09:09:59Z</time>
      </trkpt>
      <trkpt lat="45.55643" lon="2.82593">
        <ele>1498.6</ele>
        <time>2021-07-20T09:10:15Z</time>
      </trkpt>
      <trkpt lat="45.55652" lon="2.82609">
        <ele>1496.3</ele>
        <time>2021-07-20T09:10:29Z</time>
      </trkpt>
      <trkpt lat="45.55658" lon="2.82617">
        <ele>1494.8</ele>
        <time>2021-07-20T09:10:37Z</time>
      </trkpt>
      <trkpt lat="45.55667" lon="2.82631">
        <ele>1493</ele>
        <time>2021-07-20T09:10:49Z</time>
      </trkpt>
      <trkpt lat="45.55668" lon="2.82634">
        <ele>1492.8</ele>
        <time>2021-07-20T09:10:51Z</time>
      </trkpt>
      <trkpt lat="45.5567" lon="2.82637">
        <ele>1492.6</ele>
        <time>2021-07-20T09:10:54Z</time>
      </trkpt>
      <trkpt lat="45.55672" lon="2.8264">
        <ele>1492.4</ele>
        <time>2021-07-20T09:10:57Z</time>
      </trkpt>
      <trkpt lat="45.55683" lon="2.82658">
        <ele>1491.3</ele>
        <time>2021-07-20T09:11:13Z</time>
      </trkpt>
      <trkpt lat="45.55685" lon="2.82661">
        <ele>1491</ele>
        <time>2021-07-20T09:11:16Z</time>
      </trkpt>
      <trkpt lat="45.55697" lon="2.82682">
        <ele>1489.3</ele>
        <time>2021-07-20T09:11:32Z</time>
      </trkpt>
      <trkpt lat="45.55707" lon="2.82698">
        <ele>1487.6</ele>
        <time>2021-07-20T09:11:45Z</time>
      </trkpt>
      <trkpt lat="45.55717" lon="2.82716">
        <ele>1485.5</ele>
        <time>2021-07-20T09:11:59Z</time>
      </trkpt>
      <trkpt lat="45.55728" lon="2.82733">
        <ele>1482.8</ele>
        <time>2021-07-20T09:12:13Z</time>
      </trkpt>
      <trkpt lat="45.55741" lon="2.82751">
        <ele>1479.7</ele>
        <time>2021-07-20T09:12:28Z</time>
      </trkpt>
      <trkpt lat="45.55749" lon="2.82765">
        <ele>1478.5</ele>
        <time>2021-07-20T09:12:40Z</time>
      </trkpt>
      <trkpt lat="45.55759" lon="2.82781">
        <ele>1478.1</ele>
        <time>2021-07-20T09:12:53Z</time>
      </trkpt>
      <trkpt lat="45.55771" lon="2.828">
        <ele>1477.7</ele>
        <time>2021-07-20T09:13:08Z</time>
      </trkpt>
      <trkpt lat="45.55782" lon="2.82818">
        <ele>1477.1</ele>
        <time>2021-07-20T09:13:22Z</time>
      </trkpt>
      <trkpt lat="45.55784" lon="2.82824">
        <ele>1477</ele>
        <time>2021-07-20T09:13:33Z</time>
      </trkpt>
      <trkpt lat="45.55784" lon="2.82824">
        <ele>1477</ele>
        <time>2021-07-20T09:13:50Z</time>
      </trkpt>
      <trkpt lat="45.55784" lon="2.82824">
        <ele>1477</ele>
        <time>2021-07-20T09:14:05Z</time>
      </trkpt>
      <trkpt lat="45.55785" lon="2.82827">
        <ele>1477</ele>
        <time>2021-07-20T09:14:08Z</time>
      </trkpt>
      <trkpt lat="45.55786" lon="2.82846">
        <ele>1476.7</ele>
        <time>2021-07-20T09:14:21Z</time>
      </trkpt>
      <trkpt lat="45.55789" lon="2.82868">
        <ele>1476.1</ele>
        <time>2021-07-20T09:14:34Z</time>
      </trkpt>
      <trkpt lat="45.5579" lon="2.82885">
        <ele>1475.7</ele>
        <time>2021-07-20T09:14:44Z</time>
      </trkpt>
      <trkpt lat="45.55792" lon="2.8291">
        <ele>1475.1</ele>
        <time>2021-07-20T09:14:59Z</time>
      </trkpt>
      <trkpt lat="45.55794" lon="2.82928">
        <ele>1474.9</ele>
        <time>2021-07-20T09:15:11Z</time>
      </trkpt>
      <trkpt lat="45.55794" lon="2.82932">
        <ele>1475</ele>
        <time>2021-07-20T09:15:14Z</time>
      </trkpt>
      <trkpt lat="45.55796" lon="2.82955">
        <ele>1475.1</ele>
        <time>2021-07-20T09:15:29Z</time>
      </trkpt>
      <trkpt lat="45.55801" lon="2.82957">
        <ele>1474.6</ele>
        <time>2021-07-20T09:15:34Z</time>
      </trkpt>
      <trkpt lat="45.55818" lon="2.82954">
        <ele>1473</ele>
        <time>2021-07-20T09:15:49Z</time>
      </trkpt>
      <trkpt lat="45.55833" lon="2.82953">
        <ele>1471.6</ele>
        <time>2021-07-20T09:16:02Z</time>
      </trkpt>
      <trkpt lat="45.55848" lon="2.82952">
        <ele>1470.2</ele>
        <time>2021-07-20T09:16:16Z</time>
      </trkpt>
      <trkpt lat="45.55861" lon="2.82951">
        <ele>1469</ele>
        <time>2021-07-20T09:16:28Z</time>
      </trkpt>
      <trkpt lat="45.55864" lon="2.82951">
        <ele>1468.6</ele>
        <time>2021-07-20T09:16:31Z</time>
      </trkpt>
      <trkpt lat="45.55874" lon="2.82949">
        <ele>1467.7</ele>
        <time>2021-07-20T09:16:43Z</time>
      </trkpt>
      <trkpt lat="45.55876" lon="2.82949">
        <ele>1467.5</ele>
        <time>2021-07-20T09:16:46Z</time>
      </trkpt>
      <trkpt lat="45.55883" lon="2.82948">
        <ele>1466.9</ele>
        <time>2021-07-20T09:16:52Z</time>
      </trkpt>
      <trkpt lat="45.55888" lon="2.82947">
        <ele>1466.4</ele>
        <time>2021-07-20T09:17:04Z</time>
      </trkpt>
      <trkpt lat="45.55888" lon="2.82946">
        <ele>1466.4</ele>
        <time>2021-07-20T09:17:13Z</time>
      </trkpt>
      <trkpt lat="45.55889" lon="2.82944">
        <ele>1466.3</ele>
        <time>2021-07-20T09:17:29Z</time>
      </trkpt>
      <trkpt lat="45.55886" lon="2.82938">
        <ele>1466.7</ele>
        <time>2021-07-20T09:17:42Z</time>
      </trkpt>
      <trkpt lat="45.55889" lon="2.82941">
        <ele>1466.4</ele>
        <time>2021-07-20T09:18:07Z</time>
      </trkpt>
      <trkpt lat="45.55893" lon="2.8295">
        <ele>1465.8</ele>
        <time>2021-07-20T09:18:18Z</time>
      </trkpt>
      <trkpt lat="45.55903" lon="2.82964">
        <ele>1464.7</ele>
        <time>2021-07-20T09:18:33Z</time>
      </trkpt>
      <trkpt lat="45.5591" lon="2.82976">
        <ele>1464</ele>
        <time>2021-07-20T09:18:44Z</time>
      </trkpt>
      <trkpt lat="45.55911" lon="2.82976">
        <ele>1463.8</ele>
        <time>2021-07-20T09:18:46Z</time>
      </trkpt>
      <trkpt lat="45.55918" lon="2.82984">
        <ele>1463.1</ele>
        <time>2021-07-20T09:18:56Z</time>
      </trkpt>
      <trkpt lat="45.55919" lon="2.82991">
        <ele>1462.9</ele>
        <time>2021-07-20T09:19:01Z</time>
      </trkpt>
      <trkpt lat="45.55931" lon="2.83008">
        <ele>1462.3</ele>
        <time>2021-07-20T09:19:17Z</time>
      </trkpt>
      <trkpt lat="45.55934" lon="2.8301">
        <ele>1462.1</ele>
        <time>2021-07-20T09:19:21Z</time>
      </trkpt>
      <trkpt lat="45.5594" lon="2.8302">
        <ele>1462.2</ele>
        <time>2021-07-20T09:19:33Z</time>
      </trkpt>
      <trkpt lat="45.55946" lon="2.83031">
        <ele>1462.4</ele>
        <time>2021-07-20T09:19:43Z</time>
      </trkpt>
      <trkpt lat="45.55947" lon="2.83032">
        <ele>1462.4</ele>
        <time>2021-07-20T09:19:44Z</time>
      </trkpt>
      <trkpt lat="45.55948" lon="2.83034">
        <ele>1462.4</ele>
        <time>2021-07-20T09:19:45Z</time>
      </trkpt>
      <trkpt lat="45.55948" lon="2.83035">
        <ele>1462.4</ele>
        <time>2021-07-20T09:19:46Z</time>
      </trkpt>
      <trkpt lat="45.5595" lon="2.83038">
        <ele>1462.5</ele>
        <time>2021-07-20T09:19:49Z</time>
      </trkpt>
      <trkpt lat="45.55952" lon="2.83043">
        <ele>1462.6</ele>
        <time>2021-07-20T09:19:53Z</time>
      </trkpt>
      <trkpt lat="45.55953" lon="2.83045">
        <ele>1462.6</ele>
        <time>2021-07-20T09:19:55Z</time>
      </trkpt>
      <trkpt lat="45.55961" lon="2.83057">
        <ele>1462.7</ele>
        <time>2021-07-20T09:20:08Z</time>
      </trkpt>
      <trkpt lat="45.5597" lon="2.83072">
        <ele>1462.8</ele>
        <time>2021-07-20T09:20:23Z</time>
      </trkpt>
      <trkpt lat="45.55981" lon="2.83086">
        <ele>1462.7</ele>
        <time>2021-07-20T09:20:39Z</time>
      </trkpt>
      <trkpt lat="45.5599" lon="2.83103">
        <ele>1462.7</ele>
        <time>2021-07-20T09:20:53Z</time>
      </trkpt>
      <trkpt lat="45.56001" lon="2.83124">
        <ele>1462.4</ele>
        <time>2021-07-20T09:21:10Z</time>
      </trkpt>
      <trkpt lat="45.5601" lon="2.83142">
        <ele>1462.2</ele>
        <time>2021-07-20T09:21:25Z</time>
      </trkpt>
      <trkpt lat="45.56022" lon="2.83157">
        <ele>1461.8</ele>
        <time>2021-07-20T09:21:39Z</time>
      </trkpt>
      <trkpt lat="45.56031" lon="2.83164">
        <ele>1461.3</ele>
        <time>2021-07-20T09:21:47Z</time>
      </trkpt>
      <trkpt lat="45.56047" lon="2.83171">
        <ele>1460.1</ele>
        <time>2021-07-20T09:22:02Z</time>
      </trkpt>
      <trkpt lat="45.5606" lon="2.83179">
        <ele>1459.2</ele>
        <time>2021-07-20T09:22:17Z</time>
      </trkpt>
      <trkpt lat="45.56061" lon="2.83177">
        <ele>1459</ele>
        <time>2021-07-20T09:22:29Z</time>
      </trkpt>
      <trkpt lat="45.56062" lon="2.83176">
        <ele>1459</ele>
        <time>2021-07-20T09:22:48Z</time>
      </trkpt>
      <trkpt lat="45.56062" lon="2.83175">
        <ele>1458.9</ele>
        <time>2021-07-20T09:23:01Z</time>
      </trkpt>
      <trkpt lat="45.56066" lon="2.83178">
        <ele>1458.6</ele>
        <time>2021-07-20T09:23:10Z</time>
      </trkpt>
      <trkpt lat="45.56067" lon="2.83178">
        <ele>1458.6</ele>
        <time>2021-07-20T09:23:11Z</time>
      </trkpt>
      <trkpt lat="45.56077" lon="2.83177">
        <ele>1457.7</ele>
        <time>2021-07-20T09:23:24Z</time>
      </trkpt>
      <trkpt lat="45.56082" lon="2.83175">
        <ele>1457.2</ele>
        <time>2021-07-20T09:23:34Z</time>
      </trkpt>
      <trkpt lat="45.56084" lon="2.83173">
        <ele>1457</ele>
        <time>2021-07-20T09:23:44Z</time>
      </trkpt>
      <trkpt lat="45.56096" lon="2.83163">
        <ele>1455.7</ele>
        <time>2021-07-20T09:23:57Z</time>
      </trkpt>
      <trkpt lat="45.56107" lon="2.83152">
        <ele>1454.1</ele>
        <time>2021-07-20T09:24:11Z</time>
      </trkpt>
      <trkpt lat="45.56124" lon="2.83149">
        <ele>1452.6</ele>
        <time>2021-07-20T09:24:25Z</time>
      </trkpt>
      <trkpt lat="45.56142" lon="2.83146">
        <ele>1450.9</ele>
        <time>2021-07-20T09:24:41Z</time>
      </trkpt>
      <trkpt lat="45.56162" lon="2.83146">
        <ele>1449.1</ele>
        <time>2021-07-20T09:24:57Z</time>
      </trkpt>
      <trkpt lat="45.56181" lon="2.83141">
        <ele>1447.9</ele>
        <time>2021-07-20T09:25:13Z</time>
      </trkpt>
      <trkpt lat="45.56199" lon="2.83136">
        <ele>1446.7</ele>
        <time>2021-07-20T09:25:29Z</time>
      </trkpt>
      <trkpt lat="45.56221" lon="2.83133">
        <ele>1445.3</ele>
        <time>2021-07-20T09:25:46Z</time>
      </trkpt>
      <trkpt lat="45.5624" lon="2.83127">
        <ele>1444.1</ele>
        <time>2021-07-20T09:26:02Z</time>
      </trkpt>
      <trkpt lat="45.56255" lon="2.83126">
        <ele>1443.2</ele>
        <time>2021-07-20T09:26:16Z</time>
      </trkpt>
      <trkpt lat="45.56263" lon="2.83125">
        <ele>1442.7</ele>
        <time>2021-07-20T09:26:23Z</time>
      </trkpt>
      <trkpt lat="45.56279" lon="2.83114">
        <ele>1441.5</ele>
        <time>2021-07-20T09:26:38Z</time>
      </trkpt>
      <trkpt lat="45.56297" lon="2.83109">
        <ele>1440.2</ele>
        <time>2021-07-20T09:26:53Z</time>
      </trkpt>
      <trkpt lat="45.56316" lon="2.83105">
        <ele>1438.9</ele>
        <time>2021-07-20T09:27:08Z</time>
      </trkpt>
      <trkpt lat="45.56333" lon="2.831">
        <ele>1437.6</ele>
        <time>2021-07-20T09:27:22Z</time>
      </trkpt>
      <trkpt lat="45.56352" lon="2.83097">
        <ele>1437.5</ele>
        <time>2021-07-20T09:27:38Z</time>
      </trkpt>
      <trkpt lat="45.56361" lon="2.8309">
        <ele>1437.3</ele>
        <time>2021-07-20T09:27:47Z</time>
      </trkpt>
      <trkpt lat="45.56365" lon="2.83088">
        <ele>1437.2</ele>
        <time>2021-07-20T09:27:51Z</time>
      </trkpt>
      <trkpt lat="45.56369" lon="2.8308">
        <ele>1436.8</ele>
        <time>2021-07-20T09:27:57Z</time>
      </trkpt>
      <trkpt lat="45.5638" lon="2.83077">
        <ele>1436.6</ele>
        <time>2021-07-20T09:28:10Z</time>
      </trkpt>
      <trkpt lat="45.56384" lon="2.83077">
        <ele>1436.6</ele>
        <time>2021-07-20T09:28:14Z</time>
      </trkpt>
      <trkpt lat="45.56395" lon="2.83083">
        <ele>1437</ele>
        <time>2021-07-20T09:28:27Z</time>
      </trkpt>
      <trkpt lat="45.56399" lon="2.83084">
        <ele>1437</ele>
        <time>2021-07-20T09:28:31Z</time>
      </trkpt>
      <trkpt lat="45.56405" lon="2.8309">
        <ele>1437.3</ele>
        <time>2021-07-20T09:28:38Z</time>
      </trkpt>
      <trkpt lat="45.56414" lon="2.83108">
        <ele>1437.9</ele>
        <time>2021-07-20T09:28:53Z</time>
      </trkpt>
      <trkpt lat="45.56425" lon="2.83119">
        <ele>1438.7</ele>
        <time>2021-07-20T09:29:08Z</time>
      </trkpt>
      <trkpt lat="45.56431" lon="2.83122">
        <ele>1439.1</ele>
        <time>2021-07-20T09:29:19Z</time>
      </trkpt>
      <trkpt lat="45.56436" lon="2.83125">
        <ele>1439.4</ele>
        <time>2021-07-20T09:29:26Z</time>
      </trkpt>
      <trkpt lat="45.5645" lon="2.83134">
        <ele>1440.4</ele>
        <time>2021-07-20T09:29:42Z</time>
      </trkpt>
      <trkpt lat="45.56463" lon="2.83141">
        <ele>1441.3</ele>
        <time>2021-07-20T09:29:56Z</time>
      </trkpt>
      <trkpt lat="45.56476" lon="2.83149">
        <ele>1442.2</ele>
        <time>2021-07-20T09:30:12Z</time>
      </trkpt>
      <trkpt lat="45.56479" lon="2.83151">
        <ele>1442.4</ele>
        <time>2021-07-20T09:30:17Z</time>
      </trkpt>
      <trkpt lat="45.56486" lon="2.83154">
        <ele>1442.9</ele>
        <time>2021-07-20T09:30:27Z</time>
      </trkpt>
      <trkpt lat="45.56495" lon="2.8316">
        <ele>1443.5</ele>
        <time>2021-07-20T09:30:40Z</time>
      </trkpt>
      <trkpt lat="45.56503" lon="2.83164">
        <ele>1444.2</ele>
        <time>2021-07-20T09:30:51Z</time>
      </trkpt>
      <trkpt lat="45.56511" lon="2.8317">
        <ele>1445.4</ele>
        <time>2021-07-20T09:31:04Z</time>
      </trkpt>
      <trkpt lat="45.5652" lon="2.83175">
        <ele>1446.5</ele>
        <time>2021-07-20T09:31:15Z</time>
      </trkpt>
      <trkpt lat="45.56528" lon="2.83179">
        <ele>1447.5</ele>
        <time>2021-07-20T09:31:28Z</time>
      </trkpt>
      <trkpt lat="45.56537" lon="2.83186">
        <ele>1448.7</ele>
        <time>2021-07-20T09:31:43Z</time>
      </trkpt>
      <trkpt lat="45.56546" lon="2.83189">
        <ele>1449.7</ele>
        <time>2021-07-20T09:31:55Z</time>
      </trkpt>
      <trkpt lat="45.56555" lon="2.83195">
        <ele>1451</ele>
        <time>2021-07-20T09:32:09Z</time>
      </trkpt>
      <trkpt lat="45.56564" lon="2.83201">
        <ele>1452.1</ele>
        <time>2021-07-20T09:32:22Z</time>
      </trkpt>
      <trkpt lat="45.56565" lon="2.832">
        <ele>1452.2</ele>
        <time>2021-07-20T09:32:27Z</time>
      </trkpt>
      <trkpt lat="45.56571" lon="2.83205">
        <ele>1453</ele>
        <time>2021-07-20T09:32:37Z</time>
      </trkpt>
      <trkpt lat="45.5658" lon="2.8321">
        <ele>1454.1</ele>
        <time>2021-07-20T09:32:50Z</time>
      </trkpt>
      <trkpt lat="45.5659" lon="2.83215">
        <ele>1455.6</ele>
        <time>2021-07-20T09:33:05Z</time>
      </trkpt>
      <trkpt lat="45.56597" lon="2.8322">
        <ele>1456.6</ele>
        <time>2021-07-20T09:33:18Z</time>
      </trkpt>
      <trkpt lat="45.56606" lon="2.83225">
        <ele>1457.8</ele>
        <time>2021-07-20T09:33:32Z</time>
      </trkpt>
      <trkpt lat="45.56615" lon="2.8323">
        <ele>1458.9</ele>
        <time>2021-07-20T09:33:45Z</time>
      </trkpt>
      <trkpt lat="45.56622" lon="2.83234">
        <ele>1459.7</ele>
        <time>2021-07-20T09:33:57Z</time>
      </trkpt>
      <trkpt lat="45.56631" lon="2.83239">
        <ele>1460.6</ele>
        <time>2021-07-20T09:34:11Z</time>
      </trkpt>
      <trkpt lat="45.56638" lon="2.83244">
        <ele>1461.2</ele>
        <time>2021-07-20T09:34:25Z</time>
      </trkpt>
      <trkpt lat="45.56645" lon="2.83248">
        <ele>1461.8</ele>
        <time>2021-07-20T09:34:38Z</time>
      </trkpt>
      <trkpt lat="45.56651" lon="2.83253">
        <ele>1462.5</ele>
        <time>2021-07-20T09:34:50Z</time>
      </trkpt>
      <trkpt lat="45.5666" lon="2.83258">
        <ele>1463.6</ele>
        <time>2021-07-20T09:35:04Z</time>
      </trkpt>
      <trkpt lat="45.56668" lon="2.83263">
        <ele>1464.8</ele>
        <time>2021-07-20T09:35:17Z</time>
      </trkpt>
      <trkpt lat="45.56677" lon="2.83268">
        <ele>1467</ele>
        <time>2021-07-20T09:35:31Z</time>
      </trkpt>
      <trkpt lat="45.56685" lon="2.83273">
        <ele>1469.1</ele>
        <time>2021-07-20T09:35:45Z</time>
      </trkpt>
      <trkpt lat="45.56693" lon="2.83277">
        <ele>1471</ele>
        <time>2021-07-20T09:35:58Z</time>
      </trkpt>
      <trkpt lat="45.56702" lon="2.83283">
        <ele>1473.1</ele>
        <time>2021-07-20T09:36:13Z</time>
      </trkpt>
      <trkpt lat="45.56709" lon="2.83289">
        <ele>1474.7</ele>
        <time>2021-07-20T09:36:26Z</time>
      </trkpt>
      <trkpt lat="45.56715" lon="2.83296">
        <ele>1476.4</ele>
        <time>2021-07-20T09:36:40Z</time>
      </trkpt>
      <trkpt lat="45.56721" lon="2.83301">
        <ele>1477.7</ele>
        <time>2021-07-20T09:36:52Z</time>
      </trkpt>
      <trkpt lat="45.56727" lon="2.83308">
        <ele>1479.4</ele>
        <time>2021-07-20T09:37:05Z</time>
      </trkpt>
      <trkpt lat="45.56734" lon="2.83316">
        <ele>1481.1</ele>
        <time>2021-07-20T09:37:20Z</time>
      </trkpt>
      <trkpt lat="45.56738" lon="2.8332">
        <ele>1482</ele>
        <time>2021-07-20T09:37:30Z</time>
      </trkpt>
      <trkpt lat="45.56744" lon="2.83326">
        <ele>1483.6</ele>
        <time>2021-07-20T09:37:44Z</time>
      </trkpt>
      <trkpt lat="45.56753" lon="2.83335">
        <ele>1485.9</ele>
        <time>2021-07-20T09:38:03Z</time>
      </trkpt>
      <trkpt lat="45.56759" lon="2.83342">
        <ele>1487.7</ele>
        <time>2021-07-20T09:38:16Z</time>
      </trkpt>
      <trkpt lat="45.56765" lon="2.83347">
        <ele>1489.5</ele>
        <time>2021-07-20T09:38:30Z</time>
      </trkpt>
      <trkpt lat="45.56769" lon="2.83353">
        <ele>1490.9</ele>
        <time>2021-07-20T09:38:46Z</time>
      </trkpt>
      <trkpt lat="45.56771" lon="2.83354">
        <ele>1491.5</ele>
        <time>2021-07-20T09:38:59Z</time>
      </trkpt>
      <trkpt lat="45.56773" lon="2.83354">
        <ele>1492</ele>
        <time>2021-07-20T09:39:13Z</time>
      </trkpt>
      <trkpt lat="45.56774" lon="2.83354">
        <ele>1492.1</ele>
        <time>2021-07-20T09:39:25Z</time>
      </trkpt>
      <trkpt lat="45.56774" lon="2.83354">
        <ele>1492.3</ele>
        <time>2021-07-20T09:39:40Z</time>
      </trkpt>
      <trkpt lat="45.56779" lon="2.83354">
        <ele>1493.3</ele>
        <time>2021-07-20T09:39:58Z</time>
      </trkpt>
      <trkpt lat="45.56785" lon="2.83351">
        <ele>1494.6</ele>
        <time>2021-07-20T09:40:11Z</time>
      </trkpt>
      <trkpt lat="45.56793" lon="2.83348">
        <ele>1496.3</ele>
        <time>2021-07-20T09:40:24Z</time>
      </trkpt>
      <trkpt lat="45.56802" lon="2.83345">
        <ele>1498.1</ele>
        <time>2021-07-20T09:40:37Z</time>
      </trkpt>
      <trkpt lat="45.56811" lon="2.83341">
        <ele>1500.2</ele>
        <time>2021-07-20T09:40:51Z</time>
      </trkpt>
      <trkpt lat="45.56819" lon="2.83336">
        <ele>1501.8</ele>
        <time>2021-07-20T09:41:04Z</time>
      </trkpt>
      <trkpt lat="45.56829" lon="2.83329">
        <ele>1503.9</ele>
        <time>2021-07-20T09:41:19Z</time>
      </trkpt>
      <trkpt lat="45.56833" lon="2.83325">
        <ele>1505</ele>
        <time>2021-07-20T09:41:28Z</time>
      </trkpt>
      <trkpt lat="45.56842" lon="2.83319">
        <ele>1507.4</ele>
        <time>2021-07-20T09:41:44Z</time>
      </trkpt>
      <trkpt lat="45.56851" lon="2.83312">
        <ele>1509.8</ele>
        <time>2021-07-20T09:42:00Z</time>
      </trkpt>
      <trkpt lat="45.5686" lon="2.83303">
        <ele>1512</ele>
        <time>2021-07-20T09:42:14Z</time>
      </trkpt>
      <trkpt lat="45.56867" lon="2.83294">
        <ele>1514</ele>
        <time>2021-07-20T09:42:27Z</time>
      </trkpt>
      <trkpt lat="45.56875" lon="2.83283">
        <ele>1515.8</ele>
        <time>2021-07-20T09:42:43Z</time>
      </trkpt>
      <trkpt lat="45.56882" lon="2.83273">
        <ele>1517.5</ele>
        <time>2021-07-20T09:42:57Z</time>
      </trkpt>
      <trkpt lat="45.5689" lon="2.83269">
        <ele>1519.5</ele>
        <time>2021-07-20T09:43:10Z</time>
      </trkpt>
      <trkpt lat="45.56897" lon="2.8327">
        <ele>1521.4</ele>
        <time>2021-07-20T09:43:23Z</time>
      </trkpt>
      <trkpt lat="45.56904" lon="2.83266">
        <ele>1523.1</ele>
        <time>2021-07-20T09:43:35Z</time>
      </trkpt>
      <trkpt lat="45.5691" lon="2.83262">
        <ele>1524.6</ele>
        <time>2021-07-20T09:43:47Z</time>
      </trkpt>
      <trkpt lat="45.56917" lon="2.83258">
        <ele>1526.2</ele>
        <time>2021-07-20T09:43:58Z</time>
      </trkpt>
      <trkpt lat="45.56926" lon="2.83253">
        <ele>1526</ele>
        <time>2021-07-20T09:44:12Z</time>
      </trkpt>
      <trkpt lat="45.56933" lon="2.8325">
        <ele>1525.8</ele>
        <time>2021-07-20T09:44:25Z</time>
      </trkpt>
      <trkpt lat="45.5694" lon="2.83249">
        <ele>1525.8</ele>
        <time>2021-07-20T09:44:38Z</time>
      </trkpt>
      <trkpt lat="45.56947" lon="2.83251">
        <ele>1525.7</ele>
        <time>2021-07-20T09:44:55Z</time>
      </trkpt>
      <trkpt lat="45.5695" lon="2.8325">
        <ele>1525.6</ele>
        <time>2021-07-20T09:45:07Z</time>
      </trkpt>
      <trkpt lat="45.56952" lon="2.8325">
        <ele>1525.6</ele>
        <time>2021-07-20T09:45:19Z</time>
      </trkpt>
      <trkpt lat="45.56951" lon="2.83252">
        <ele>1525.8</ele>
        <time>2021-07-20T09:45:31Z</time>
      </trkpt>
      <trkpt lat="45.56953" lon="2.83252">
        <ele>1525.8</ele>
        <time>2021-07-20T09:45:50Z</time>
      </trkpt>
      <trkpt lat="45.56951" lon="2.83253">
        <ele>1525.8</ele>
        <time>2021-07-20T09:46:27Z</time>
      </trkpt>
      <trkpt lat="45.56952" lon="2.83253">
        <ele>1525.9</ele>
        <time>2021-07-20T09:47:01Z</time>
      </trkpt>
      <trkpt lat="45.56952" lon="2.83253">
        <ele>1525.9</ele>
        <time>2021-07-20T09:47:35Z</time>
      </trkpt>
      <trkpt lat="45.56952" lon="2.83253">
        <ele>1525.9</ele>
        <time>2021-07-20T09:48:06Z</time>
      </trkpt>
      <trkpt lat="45.56952" lon="2.83253">
        <ele>1525.9</ele>
        <time>2021-07-20T09:48:42Z</time>
      </trkpt>
      <trkpt lat="45.56952" lon="2.83253">
        <ele>1525.8</ele>
        <time>2021-07-20T09:49:18Z</time>
      </trkpt>
      <trkpt lat="45.56952" lon="2.83253">
        <ele>1525.8</ele>
        <time>2021-07-20T09:49:54Z</time>
      </trkpt>
      <trkpt lat="45.56951" lon="2.83253">
        <ele>1525.9</ele>
        <time>2021-07-20T09:50:32Z</time>
      </trkpt>
      <trkpt lat="45.56953" lon="2.83254">
        <ele>1525.9</ele>
        <time>2021-07-20T09:51:03Z</time>
      </trkpt>
      <trkpt lat="45.56954" lon="2.83257">
        <ele>1526.2</ele>
        <time>2021-07-20T09:51:14Z</time>
      </trkpt>
      <trkpt lat="45.56954" lon="2.83264">
        <ele>1526.9</ele>
        <time>2021-07-20T09:51:25Z</time>
      </trkpt>
      <trkpt lat="45.56958" lon="2.83276">
        <ele>1528.2</ele>
        <time>2021-07-20T09:51:41Z</time>
      </trkpt>
      <trkpt lat="45.56961" lon="2.83292">
        <ele>1529.9</ele>
        <time>2021-07-20T09:51:57Z</time>
      </trkpt>
      <trkpt lat="45.56964" lon="2.83304">
        <ele>1531.5</ele>
        <time>2021-07-20T09:52:10Z</time>
      </trkpt>
      <trkpt lat="45.56967" lon="2.83316">
        <ele>1533.1</ele>
        <time>2021-07-20T09:52:25Z</time>
      </trkpt>
      <trkpt lat="45.5697" lon="2.83329">
        <ele>1535.1</ele>
        <time>2021-07-20T09:52:41Z</time>
      </trkpt>
      <trkpt lat="45.56972" lon="2.83334">
        <ele>1535.9</ele>
        <time>2021-07-20T09:52:52Z</time>
      </trkpt>
      <trkpt lat="45.56976" lon="2.83345">
        <ele>1538.6</ele>
        <time>2021-07-20T09:53:07Z</time>
      </trkpt>
      <trkpt lat="45.56979" lon="2.83352">
        <ele>1540.4</ele>
        <time>2021-07-20T09:53:19Z</time>
      </trkpt>
      <trkpt lat="45.56984" lon="2.83362">
        <ele>1543</ele>
        <time>2021-07-20T09:53:34Z</time>
      </trkpt>
      <trkpt lat="45.56985" lon="2.8337">
        <ele>1544.9</ele>
        <time>2021-07-20T09:53:48Z</time>
      </trkpt>
      <trkpt lat="45.56989" lon="2.83377">
        <ele>1546.9</ele>
        <time>2021-07-20T09:54:02Z</time>
      </trkpt>
      <trkpt lat="45.56994" lon="2.8338">
        <ele>1548.7</ele>
        <time>2021-07-20T09:54:16Z</time>
      </trkpt>
      <trkpt lat="45.56997" lon="2.83383">
        <ele>1550</ele>
        <time>2021-07-20T09:54:28Z</time>
      </trkpt>
      <trkpt lat="45.57001" lon="2.83387">
        <ele>1551.6</ele>
        <time>2021-07-20T09:54:41Z</time>
      </trkpt>
      <trkpt lat="45.57" lon="2.83395">
        <ele>1553.3</ele>
        <time>2021-07-20T09:54:53Z</time>
      </trkpt>
      <trkpt lat="45.57005" lon="2.834">
        <ele>1554.3</ele>
        <time>2021-07-20T09:55:07Z</time>
      </trkpt>
      <trkpt lat="45.57011" lon="2.83402">
        <ele>1554.9</ele>
        <time>2021-07-20T09:55:22Z</time>
      </trkpt>
      <trkpt lat="45.57016" lon="2.83405">
        <ele>1555.6</ele>
        <time>2021-07-20T09:55:36Z</time>
      </trkpt>
      <trkpt lat="45.57015" lon="2.83411">
        <ele>1557.1</ele>
        <time>2021-07-20T09:55:48Z</time>
      </trkpt>
      <trkpt lat="45.5702" lon="2.83418">
        <ele>1558.6</ele>
        <time>2021-07-20T09:56:03Z</time>
      </trkpt>
      <trkpt lat="45.57025" lon="2.83419">
        <ele>1559.1</ele>
        <time>2021-07-20T09:56:16Z</time>
      </trkpt>
      <trkpt lat="45.57026" lon="2.83426">
        <ele>1560.5</ele>
        <time>2021-07-20T09:56:30Z</time>
      </trkpt>
      <trkpt lat="45.57032" lon="2.8343">
        <ele>1561.4</ele>
        <time>2021-07-20T09:56:46Z</time>
      </trkpt>
      <trkpt lat="45.57033" lon="2.83432">
        <ele>1562.1</ele>
        <time>2021-07-20T09:56:57Z</time>
      </trkpt>
      <trkpt lat="45.5704" lon="2.83437">
        <ele>1563.6</ele>
        <time>2021-07-20T09:57:12Z</time>
      </trkpt>
      <trkpt lat="45.57045" lon="2.83443">
        <ele>1565.2</ele>
        <time>2021-07-20T09:57:25Z</time>
      </trkpt>
      <trkpt lat="45.57046" lon="2.8345">
        <ele>1567.1</ele>
        <time>2021-07-20T09:57:38Z</time>
      </trkpt>
      <trkpt lat="45.57049" lon="2.83456">
        <ele>1569</ele>
        <time>2021-07-20T09:57:51Z</time>
      </trkpt>
      <trkpt lat="45.57053" lon="2.83462">
        <ele>1571</ele>
        <time>2021-07-20T09:58:04Z</time>
      </trkpt>
      <trkpt lat="45.57058" lon="2.83469">
        <ele>1573.6</ele>
        <time>2021-07-20T09:58:19Z</time>
      </trkpt>
      <trkpt lat="45.57064" lon="2.83476">
        <ele>1576.5</ele>
        <time>2021-07-20T09:58:33Z</time>
      </trkpt>
      <trkpt lat="45.5707" lon="2.8348">
        <ele>1578.7</ele>
        <time>2021-07-20T09:58:49Z</time>
      </trkpt>
      <trkpt lat="45.57074" lon="2.83481">
        <ele>1579.9</ele>
        <time>2021-07-20T09:59:03Z</time>
      </trkpt>
      <trkpt lat="45.57078" lon="2.83484">
        <ele>1581.7</ele>
        <time>2021-07-20T09:59:17Z</time>
      </trkpt>
      <trkpt lat="45.57084" lon="2.83488">
        <ele>1583.8</ele>
        <time>2021-07-20T09:59:31Z</time>
      </trkpt>
      <trkpt lat="45.57092" lon="2.83492">
        <ele>1585</ele>
        <time>2021-07-20T09:59:49Z</time>
      </trkpt>
      <trkpt lat="45.571" lon="2.83498">
        <ele>1586.9</ele>
        <time>2021-07-20T10:00:07Z</time>
      </trkpt>
      <trkpt lat="45.57108" lon="2.83502">
        <ele>1588</ele>
        <time>2021-07-20T10:00:24Z</time>
      </trkpt>
      <trkpt lat="45.57113" lon="2.83506">
        <ele>1589</ele>
        <time>2021-07-20T10:00:38Z</time>
      </trkpt>
      <trkpt lat="45.57118" lon="2.83509">
        <ele>1590</ele>
        <time>2021-07-20T10:00:51Z</time>
      </trkpt>
      <trkpt lat="45.57121" lon="2.83513">
        <ele>1590.9</ele>
        <time>2021-07-20T10:00:59Z</time>
      </trkpt>
      <trkpt lat="45.57128" lon="2.83519">
        <ele>1593.1</ele>
        <time>2021-07-20T10:01:15Z</time>
      </trkpt>
      <trkpt lat="45.57136" lon="2.83525">
        <ele>1595.1</ele>
        <time>2021-07-20T10:01:31Z</time>
      </trkpt>
      <trkpt lat="45.57143" lon="2.8353">
        <ele>1597.3</ele>
        <time>2021-07-20T10:01:45Z</time>
      </trkpt>
      <trkpt lat="45.57149" lon="2.83537">
        <ele>1599.9</ele>
        <time>2021-07-20T10:02:02Z</time>
      </trkpt>
      <trkpt lat="45.57156" lon="2.83543">
        <ele>1602.7</ele>
        <time>2021-07-20T10:02:18Z</time>
      </trkpt>
      <trkpt lat="45.57163" lon="2.83548">
        <ele>1605.3</ele>
        <time>2021-07-20T10:02:34Z</time>
      </trkpt>
      <trkpt lat="45.5717" lon="2.83553">
        <ele>1607.2</ele>
        <time>2021-07-20T10:02:51Z</time>
      </trkpt>
      <trkpt lat="45.57177" lon="2.83557">
        <ele>1608.3</ele>
        <time>2021-07-20T10:03:07Z</time>
      </trkpt>
      <trkpt lat="45.57181" lon="2.83559">
        <ele>1608.7</ele>
        <time>2021-07-20T10:03:22Z</time>
      </trkpt>
      <trkpt lat="45.57184" lon="2.83562">
        <ele>1609.6</ele>
        <time>2021-07-20T10:03:35Z</time>
      </trkpt>
      <trkpt lat="45.57193" lon="2.8357">
        <ele>1611.8</ele>
        <time>2021-07-20T10:03:50Z</time>
      </trkpt>
      <trkpt lat="45.57195" lon="2.83572">
        <ele>1612.4</ele>
        <time>2021-07-20T10:04:02Z</time>
      </trkpt>
      <trkpt lat="45.572" lon="2.83576">
        <ele>1613.8</ele>
        <time>2021-07-20T10:04:15Z</time>
      </trkpt>
      <trkpt lat="45.57207" lon="2.8358">
        <ele>1614.6</ele>
        <time>2021-07-20T10:04:29Z</time>
      </trkpt>
      <trkpt lat="45.57216" lon="2.83587">
        <ele>1616.5</ele>
        <time>2021-07-20T10:04:46Z</time>
      </trkpt>
      <trkpt lat="45.57222" lon="2.8359">
        <ele>1617.5</ele>
        <time>2021-07-20T10:05:02Z</time>
      </trkpt>
      <trkpt lat="45.57224" lon="2.83593">
        <ele>1618.5</ele>
        <time>2021-07-20T10:05:16Z</time>
      </trkpt>
      <trkpt lat="45.57217" lon="2.83596">
        <ele>1620.1</ele>
        <time>2021-07-20T10:05:31Z</time>
      </trkpt>
      <trkpt lat="45.5721" lon="2.83599">
        <ele>1622.1</ele>
        <time>2021-07-20T10:05:46Z</time>
      </trkpt>
      <trkpt lat="45.57204" lon="2.83601">
        <ele>1623.5</ele>
        <time>2021-07-20T10:06:00Z</time>
      </trkpt>
      <trkpt lat="45.57198" lon="2.83605">
        <ele>1625.4</ele>
        <time>2021-07-20T10:06:14Z</time>
      </trkpt>
      <trkpt lat="45.57191" lon="2.83608">
        <ele>1627</ele>
        <time>2021-07-20T10:06:27Z</time>
      </trkpt>
      <trkpt lat="45.57186" lon="2.8361">
        <ele>1628.3</ele>
        <time>2021-07-20T10:06:37Z</time>
      </trkpt>
      <trkpt lat="45.57179" lon="2.83614">
        <ele>1630.4</ele>
        <time>2021-07-20T10:06:54Z</time>
      </trkpt>
      <trkpt lat="45.57172" lon="2.83619">
        <ele>1632.6</ele>
        <time>2021-07-20T10:07:11Z</time>
      </trkpt>
      <trkpt lat="45.57166" lon="2.83625">
        <ele>1634.9</ele>
        <time>2021-07-20T10:07:23Z</time>
      </trkpt>
      <trkpt lat="45.57162" lon="2.83632">
        <ele>1636.2</ele>
        <time>2021-07-20T10:07:36Z</time>
      </trkpt>
      <trkpt lat="45.57161" lon="2.83637">
        <ele>1637.5</ele>
        <time>2021-07-20T10:07:49Z</time>
      </trkpt>
      <trkpt lat="45.57158" lon="2.83645">
        <ele>1639.5</ele>
        <time>2021-07-20T10:08:03Z</time>
      </trkpt>
      <trkpt lat="45.57157" lon="2.83654">
        <ele>1642.1</ele>
        <time>2021-07-20T10:08:17Z</time>
      </trkpt>
      <trkpt lat="45.57154" lon="2.83664">
        <ele>1644.6</ele>
        <time>2021-07-20T10:08:35Z</time>
      </trkpt>
      <trkpt lat="45.57152" lon="2.8367">
        <ele>1645.5</ele>
        <time>2021-07-20T10:08:46Z</time>
      </trkpt>
      <trkpt lat="45.57152" lon="2.8368">
        <ele>1647.7</ele>
        <time>2021-07-20T10:09:03Z</time>
      </trkpt>
      <trkpt lat="45.57152" lon="2.83691">
        <ele>1650</ele>
        <time>2021-07-20T10:09:21Z</time>
      </trkpt>
      <trkpt lat="45.57152" lon="2.837">
        <ele>1652.2</ele>
        <time>2021-07-20T10:09:35Z</time>
      </trkpt>
      <trkpt lat="45.57151" lon="2.83709">
        <ele>1653.5</ele>
        <time>2021-07-20T10:09:48Z</time>
      </trkpt>
      <trkpt lat="45.57152" lon="2.83718">
        <ele>1656.2</ele>
        <time>2021-07-20T10:10:04Z</time>
      </trkpt>
      <trkpt lat="45.57154" lon="2.83723">
        <ele>1658</ele>
        <time>2021-07-20T10:10:16Z</time>
      </trkpt>
      <trkpt lat="45.57153" lon="2.83735">
        <ele>1660.2</ele>
        <time>2021-07-20T10:10:34Z</time>
      </trkpt>
      <trkpt lat="45.57152" lon="2.83744">
        <ele>1662</ele>
        <time>2021-07-20T10:10:49Z</time>
      </trkpt>
      <trkpt lat="45.57152" lon="2.8375">
        <ele>1663.3</ele>
        <time>2021-07-20T10:11:09Z</time>
      </trkpt>
      <trkpt lat="45.57153" lon="2.83761">
        <ele>1664.5</ele>
        <time>2021-07-20T10:11:24Z</time>
      </trkpt>
      <trkpt lat="45.57154" lon="2.83771">
        <ele>1665.3</ele>
        <time>2021-07-20T10:11:39Z</time>
      </trkpt>
      <trkpt lat="45.57155" lon="2.83775">
        <ele>1666.4</ele>
        <time>2021-07-20T10:11:52Z</time>
      </trkpt>
      <trkpt lat="45.57155" lon="2.83781">
        <ele>1666.5</ele>
        <time>2021-07-20T10:12:00Z</time>
      </trkpt>
      <trkpt lat="45.57156" lon="2.83791">
        <ele>1667.3</ele>
        <time>2021-07-20T10:12:12Z</time>
      </trkpt>
      <trkpt lat="45.57157" lon="2.83795">
        <ele>1668.5</ele>
        <time>2021-07-20T10:12:25Z</time>
      </trkpt>
      <trkpt lat="45.5716" lon="2.83802">
        <ele>1670.3</ele>
        <time>2021-07-20T10:12:41Z</time>
      </trkpt>
      <trkpt lat="45.57162" lon="2.8381">
        <ele>1672</ele>
        <time>2021-07-20T10:12:59Z</time>
      </trkpt>
      <trkpt lat="45.57164" lon="2.83818">
        <ele>1673.8</ele>
        <time>2021-07-20T10:13:12Z</time>
      </trkpt>
      <trkpt lat="45.57167" lon="2.83824">
        <ele>1675.4</ele>
        <time>2021-07-20T10:13:26Z</time>
      </trkpt>
      <trkpt lat="45.5717" lon="2.83832">
        <ele>1677</ele>
        <time>2021-07-20T10:13:41Z</time>
      </trkpt>
      <trkpt lat="45.57173" lon="2.83841">
        <ele>1678</ele>
        <time>2021-07-20T10:13:57Z</time>
      </trkpt>
      <trkpt lat="45.57175" lon="2.83847">
        <ele>1678.9</ele>
        <time>2021-07-20T10:14:12Z</time>
      </trkpt>
      <trkpt lat="45.57177" lon="2.83855">
        <ele>1679.7</ele>
        <time>2021-07-20T10:14:28Z</time>
      </trkpt>
      <trkpt lat="45.57179" lon="2.83861">
        <ele>1680.5</ele>
        <time>2021-07-20T10:14:42Z</time>
      </trkpt>
      <trkpt lat="45.57181" lon="2.83869">
        <ele>1681.5</ele>
        <time>2021-07-20T10:15:00Z</time>
      </trkpt>
      <trkpt lat="45.57183" lon="2.83877">
        <ele>1682.5</ele>
        <time>2021-07-20T10:15:13Z</time>
      </trkpt>
      <trkpt lat="45.57185" lon="2.83887">
        <ele>1683.4</ele>
        <time>2021-07-20T10:15:28Z</time>
      </trkpt>
      <trkpt lat="45.57188" lon="2.83896">
        <ele>1685.2</ele>
        <time>2021-07-20T10:15:48Z</time>
      </trkpt>
      <trkpt lat="45.57189" lon="2.83896">
        <ele>1685.4</ele>
        <time>2021-07-20T10:16:05Z</time>
      </trkpt>
      <trkpt lat="45.57189" lon="2.83887">
        <ele>1685.4</ele>
        <time>2021-07-20T10:16:18Z</time>
      </trkpt>
      <trkpt lat="45.57191" lon="2.83875">
        <ele>1685.6</ele>
        <time>2021-07-20T10:16:32Z</time>
      </trkpt>
      <trkpt lat="45.57194" lon="2.83866">
        <ele>1686.3</ele>
        <time>2021-07-20T10:16:45Z</time>
      </trkpt>
      <trkpt lat="45.57197" lon="2.83855">
        <ele>1687</ele>
        <time>2021-07-20T10:16:59Z</time>
      </trkpt>
      <trkpt lat="45.572" lon="2.83846">
        <ele>1687.5</ele>
        <time>2021-07-20T10:17:10Z</time>
      </trkpt>
      <trkpt lat="45.57203" lon="2.83837">
        <ele>1687.9</ele>
        <time>2021-07-20T10:17:23Z</time>
      </trkpt>
      <trkpt lat="45.57207" lon="2.83825">
        <ele>1687.7</ele>
        <time>2021-07-20T10:17:37Z</time>
      </trkpt>
      <trkpt lat="45.57209" lon="2.83812">
        <ele>1686.6</ele>
        <time>2021-07-20T10:17:52Z</time>
      </trkpt>
      <trkpt lat="45.57211" lon="2.83807">
        <ele>1686.2</ele>
        <time>2021-07-20T10:18:05Z</time>
      </trkpt>
      <trkpt lat="45.57216" lon="2.83797">
        <ele>1685.9</ele>
        <time>2021-07-20T10:18:18Z</time>
      </trkpt>
      <trkpt lat="45.57222" lon="2.83787">
        <ele>1685.5</ele>
        <time>2021-07-20T10:18:33Z</time>
      </trkpt>
      <trkpt lat="45.57225" lon="2.8378">
        <ele>1685.1</ele>
        <time>2021-07-20T10:18:48Z</time>
      </trkpt>
      <trkpt lat="45.5723" lon="2.8378">
        <ele>1685.9</ele>
        <time>2021-07-20T10:19:02Z</time>
      </trkpt>
      <trkpt lat="45.57233" lon="2.83782">
        <ele>1687.1</ele>
        <time>2021-07-20T10:19:15Z</time>
      </trkpt>
      <trkpt lat="45.57235" lon="2.83788">
        <ele>1688.9</ele>
        <time>2021-07-20T10:19:27Z</time>
      </trkpt>
      <trkpt lat="45.57236" lon="2.83797">
        <ele>1690.8</ele>
        <time>2021-07-20T10:19:42Z</time>
      </trkpt>
      <trkpt lat="45.57236" lon="2.83803">
        <ele>1692.3</ele>
        <time>2021-07-20T10:19:55Z</time>
      </trkpt>
      <trkpt lat="45.57236" lon="2.83812">
        <ele>1694.1</ele>
        <time>2021-07-20T10:20:09Z</time>
      </trkpt>
      <trkpt lat="45.57239" lon="2.83822">
        <ele>1697</ele>
        <time>2021-07-20T10:20:25Z</time>
      </trkpt>
      <trkpt lat="45.57241" lon="2.83833">
        <ele>1700</ele>
        <time>2021-07-20T10:20:42Z</time>
      </trkpt>
      <trkpt lat="45.57244" lon="2.83844">
        <ele>1702.4</ele>
        <time>2021-07-20T10:21:00Z</time>
      </trkpt>
      <trkpt lat="45.57247" lon="2.83854">
        <ele>1704.8</ele>
        <time>2021-07-20T10:21:15Z</time>
      </trkpt>
      <trkpt lat="45.57248" lon="2.83864">
        <ele>1706.4</ele>
        <time>2021-07-20T10:21:29Z</time>
      </trkpt>
      <trkpt lat="45.57251" lon="2.8387">
        <ele>1707.6</ele>
        <time>2021-07-20T10:21:39Z</time>
      </trkpt>
      <trkpt lat="45.57255" lon="2.83877">
        <ele>1707.8</ele>
        <time>2021-07-20T10:21:52Z</time>
      </trkpt>
      <trkpt lat="45.5726" lon="2.83889">
        <ele>1708.7</ele>
        <time>2021-07-20T10:22:07Z</time>
      </trkpt>
      <trkpt lat="45.57261" lon="2.83894">
        <ele>1709.3</ele>
        <time>2021-07-20T10:22:16Z</time>
      </trkpt>
      <trkpt lat="45.57262" lon="2.83895">
        <ele>1709.4</ele>
        <time>2021-07-20T10:22:30Z</time>
      </trkpt>
      <trkpt lat="45.57262" lon="2.83898">
        <ele>1709.8</ele>
        <time>2021-07-20T10:22:50Z</time>
      </trkpt>
      <trkpt lat="45.57262" lon="2.83898">
        <ele>1709.7</ele>
        <time>2021-07-20T10:22:53Z</time>
      </trkpt>
      <trkpt lat="45.57262" lon="2.83901">
        <ele>1710.3</ele>
        <time>2021-07-20T10:23:05Z</time>
      </trkpt>
      <trkpt lat="45.57264" lon="2.83909">
        <ele>1711.4</ele>
        <time>2021-07-20T10:23:19Z</time>
      </trkpt>
      <trkpt lat="45.57269" lon="2.83919">
        <ele>1712.2</ele>
        <time>2021-07-20T10:23:33Z</time>
      </trkpt>
      <trkpt lat="45.5727" lon="2.83926">
        <ele>1712.4</ele>
        <time>2021-07-20T10:23:46Z</time>
      </trkpt>
      <trkpt lat="45.57269" lon="2.83927">
        <ele>1712.4</ele>
        <time>2021-07-20T10:23:48Z</time>
      </trkpt>
      <trkpt lat="45.57269" lon="2.83929">
        <ele>1712.5</ele>
        <time>2021-07-20T10:23:59Z</time>
      </trkpt>
      <trkpt lat="45.5727" lon="2.83932">
        <ele>1712.5</ele>
        <time>2021-07-20T10:24:10Z</time>
      </trkpt>
      <trkpt lat="45.5727" lon="2.83934">
        <ele>1712.5</ele>
        <time>2021-07-20T10:24:12Z</time>
      </trkpt>
      <trkpt lat="45.57276" lon="2.83945">
        <ele>1712.6</ele>
        <time>2021-07-20T10:24:26Z</time>
      </trkpt>
      <trkpt lat="45.57278" lon="2.8395">
        <ele>1712.8</ele>
        <time>2021-07-20T10:24:32Z</time>
      </trkpt>
      <trkpt lat="45.57278" lon="2.8395">
        <ele>1712.8</ele>
        <time>2021-07-20T10:24:34Z</time>
      </trkpt>
      <trkpt lat="45.57281" lon="2.83953">
        <ele>1712.9</ele>
        <time>2021-07-20T10:24:43Z</time>
      </trkpt>
      <trkpt lat="45.57286" lon="2.83962">
        <ele>1713.3</ele>
        <time>2021-07-20T10:24:54Z</time>
      </trkpt>
      <trkpt lat="45.57289" lon="2.83967">
        <ele>1713.6</ele>
        <time>2021-07-20T10:25:08Z</time>
      </trkpt>
      <trkpt lat="45.57292" lon="2.83975">
        <ele>1714.2</ele>
        <time>2021-07-20T10:25:29Z</time>
      </trkpt>
      <trkpt lat="45.57297" lon="2.83988">
        <ele>1715.4</ele>
        <time>2021-07-20T10:25:45Z</time>
      </trkpt>
      <trkpt lat="45.57299" lon="2.83991">
        <ele>1715.7</ele>
        <time>2021-07-20T10:25:59Z</time>
      </trkpt>
      <trkpt lat="45.57299" lon="2.8399">
        <ele>1715.7</ele>
        <time>2021-07-20T10:26:01Z</time>
      </trkpt>
      <trkpt lat="45.57299" lon="2.8399">
        <ele>1715.7</ele>
        <time>2021-07-20T10:26:03Z</time>
      </trkpt>
      <trkpt lat="45.57299" lon="2.8399">
        <ele>1715.6</ele>
        <time>2021-07-20T10:26:15Z</time>
      </trkpt>
      <trkpt lat="45.57299" lon="2.8399">
        <ele>1715.6</ele>
        <time>2021-07-20T10:26:17Z</time>
      </trkpt>
      <trkpt lat="45.573" lon="2.83991">
        <ele>1715.8</ele>
        <time>2021-07-20T10:26:38Z</time>
      </trkpt>
      <trkpt lat="45.573" lon="2.83991">
        <ele>1715.8</ele>
        <time>2021-07-20T10:26:55Z</time>
      </trkpt>
      <trkpt lat="45.573" lon="2.83991">
        <ele>1715.8</ele>
        <time>2021-07-20T10:27:13Z</time>
      </trkpt>
      <trkpt lat="45.57299" lon="2.83991">
        <ele>1715.8</ele>
        <time>2021-07-20T10:27:26Z</time>
      </trkpt>
      <trkpt lat="45.573" lon="2.83991">
        <ele>1715.8</ele>
        <time>2021-07-20T10:27:41Z</time>
      </trkpt>
      <trkpt lat="45.573" lon="2.83992">
        <ele>1715.9</ele>
        <time>2021-07-20T10:27:57Z</time>
      </trkpt>
      <trkpt lat="45.57299" lon="2.83992">
        <ele>1715.9</ele>
        <time>2021-07-20T10:28:12Z</time>
      </trkpt>
      <trkpt lat="45.57299" lon="2.83992">
        <ele>1715.9</ele>
        <time>2021-07-20T10:28:14Z</time>
      </trkpt>
      <trkpt lat="45.57299" lon="2.83992">
        <ele>1715.8</ele>
        <time>2021-07-20T10:28:37Z</time>
      </trkpt>
      <trkpt lat="45.57298" lon="2.83993">
        <ele>1715.9</ele>
        <time>2021-07-20T10:28:54Z</time>
      </trkpt>
      <trkpt lat="45.57298" lon="2.83993">
        <ele>1715.9</ele>
        <time>2021-07-20T10:29:11Z</time>
      </trkpt>
      <trkpt lat="45.573" lon="2.83993">
        <ele>1716</ele>
        <time>2021-07-20T10:29:23Z</time>
      </trkpt>
      <trkpt lat="45.573" lon="2.83994">
        <ele>1716.1</ele>
        <time>2021-07-20T10:29:38Z</time>
      </trkpt>
      <trkpt lat="45.573" lon="2.83995">
        <ele>1716.1</ele>
        <time>2021-07-20T10:29:54Z</time>
      </trkpt>
      <trkpt lat="45.57299" lon="2.83997">
        <ele>1716.3</ele>
        <time>2021-07-20T10:30:06Z</time>
      </trkpt>
      <trkpt lat="45.57299" lon="2.83995">
        <ele>1716.1</ele>
        <time>2021-07-20T10:30:29Z</time>
      </trkpt>
      <trkpt lat="45.57299" lon="2.83995">
        <ele>1716.1</ele>
        <time>2021-07-20T10:30:32Z</time>
      </trkpt>
      <trkpt lat="45.57299" lon="2.83995">
        <ele>1716.1</ele>
        <time>2021-07-20T10:30:34Z</time>
      </trkpt>
      <trkpt lat="45.57299" lon="2.83995">
        <ele>1716.1</ele>
        <time>2021-07-20T10:30:37Z</time>
      </trkpt>
      <trkpt lat="45.57299" lon="2.83995">
        <ele>1716.1</ele>
        <time>2021-07-20T10:30:38Z</time>
      </trkpt>
      <trkpt lat="45.57298" lon="2.83994">
        <ele>1716</ele>
        <time>2021-07-20T10:30:58Z</time>
      </trkpt>
      <trkpt lat="45.57298" lon="2.83992">
        <ele>1715.7</ele>
        <time>2021-07-20T10:31:17Z</time>
      </trkpt>
      <trkpt lat="45.57297" lon="2.83992">
        <ele>1715.8</ele>
        <time>2021-07-20T10:31:19Z</time>
      </trkpt>
      <trkpt lat="45.57296" lon="2.83996">
        <ele>1716</ele>
        <time>2021-07-20T10:31:28Z</time>
      </trkpt>
      <trkpt lat="45.57295" lon="2.83996">
        <ele>1716</ele>
        <time>2021-07-20T10:31:37Z</time>
      </trkpt>
      <trkpt lat="45.57295" lon="2.83996">
        <ele>1715.9</ele>
        <time>2021-07-20T10:31:40Z</time>
      </trkpt>
      <trkpt lat="45.57295" lon="2.83996">
        <ele>1715.9</ele>
        <time>2021-07-20T10:31:41Z</time>
      </trkpt>
      <trkpt lat="45.57293" lon="2.83995">
        <ele>1715.8</ele>
        <time>2021-07-20T10:32:03Z</time>
      </trkpt>
      <trkpt lat="45.57294" lon="2.83995">
        <ele>1715.8</ele>
        <time>2021-07-20T10:32:07Z</time>
      </trkpt>
      <trkpt lat="45.57294" lon="2.83995">
        <ele>1715.8</ele>
        <time>2021-07-20T10:32:08Z</time>
      </trkpt>
      <trkpt lat="45.57294" lon="2.83995">
        <ele>1715.8</ele>
        <time>2021-07-20T10:32:11Z</time>
      </trkpt>
      <trkpt lat="45.57294" lon="2.83995">
        <ele>1715.7</ele>
        <time>2021-07-20T10:32:16Z</time>
      </trkpt>
      <trkpt lat="45.57295" lon="2.83997">
        <ele>1716</ele>
        <time>2021-07-20T10:32:32Z</time>
      </trkpt>
      <trkpt lat="45.57295" lon="2.83996">
        <ele>1716</ele>
        <time>2021-07-20T10:32:34Z</time>
      </trkpt>
      <trkpt lat="45.57296" lon="2.83996">
        <ele>1716</ele>
        <time>2021-07-20T10:32:35Z</time>
      </trkpt>
      <trkpt lat="45.57296" lon="2.83996">
        <ele>1716</ele>
        <time>2021-07-20T10:32:38Z</time>
      </trkpt>
      <trkpt lat="45.57297" lon="2.83997">
        <ele>1716.1</ele>
        <time>2021-07-20T10:32:40Z</time>
      </trkpt>
      <trkpt lat="45.57297" lon="2.83997">
        <ele>1716.1</ele>
        <time>2021-07-20T10:32:42Z</time>
      </trkpt>
      <trkpt lat="45.57297" lon="2.83997">
        <ele>1716.1</ele>
        <time>2021-07-20T10:32:45Z</time>
      </trkpt>
      <trkpt lat="45.57297" lon="2.83996">
        <ele>1716.1</ele>
        <time>2021-07-20T10:33:01Z</time>
      </trkpt>
      <trkpt lat="45.573" lon="2.83993">
        <ele>1716</ele>
        <time>2021-07-20T10:33:13Z</time>
      </trkpt>
      <trkpt lat="45.573" lon="2.83993">
        <ele>1715.9</ele>
        <time>2021-07-20T10:33:14Z</time>
      </trkpt>
      <trkpt lat="45.573" lon="2.83992">
        <ele>1715.8</ele>
        <time>2021-07-20T10:33:32Z</time>
      </trkpt>
      <trkpt lat="45.573" lon="2.83991">
        <ele>1715.8</ele>
        <time>2021-07-20T10:33:44Z</time>
      </trkpt>
      <trkpt lat="45.57303" lon="2.83987">
        <ele>1715.6</ele>
        <time>2021-07-20T10:33:53Z</time>
      </trkpt>
      <trkpt lat="45.57305" lon="2.83985">
        <ele>1715.5</ele>
        <time>2021-07-20T10:33:57Z</time>
      </trkpt>
      <trkpt lat="45.57308" lon="2.83984">
        <ele>1715.5</ele>
        <time>2021-07-20T10:34:03Z</time>
      </trkpt>
      <trkpt lat="45.57317" lon="2.83981">
        <ele>1715.5</ele>
        <time>2021-07-20T10:34:16Z</time>
      </trkpt>
      <trkpt lat="45.57323" lon="2.8398">
        <ele>1715.5</ele>
        <time>2021-07-20T10:34:25Z</time>
      </trkpt>
      <trkpt lat="45.57328" lon="2.83977">
        <ele>1715.3</ele>
        <time>2021-07-20T10:34:32Z</time>
      </trkpt>
      <trkpt lat="45.57336" lon="2.83976">
        <ele>1714.5</ele>
        <time>2021-07-20T10:34:43Z</time>
      </trkpt>
      <trkpt lat="45.57337" lon="2.83976">
        <ele>1714.4</ele>
        <time>2021-07-20T10:34:44Z</time>
      </trkpt>
      <trkpt lat="45.57345" lon="2.83976">
        <ele>1712.3</ele>
        <time>2021-07-20T10:34:53Z</time>
      </trkpt>
      <trkpt lat="45.57346" lon="2.83976">
        <ele>1712.1</ele>
        <time>2021-07-20T10:34:54Z</time>
      </trkpt>
      <trkpt lat="45.57358" lon="2.83977">
        <ele>1708.8</ele>
        <time>2021-07-20T10:35:08Z</time>
      </trkpt>
      <trkpt lat="45.57369" lon="2.83977">
        <ele>1706</ele>
        <time>2021-07-20T10:35:21Z</time>
      </trkpt>
      <trkpt lat="45.57378" lon="2.83976">
        <ele>1703.5</ele>
        <time>2021-07-20T10:35:32Z</time>
      </trkpt>
      <trkpt lat="45.57387" lon="2.83973">
        <ele>1700.7</ele>
        <time>2021-07-20T10:35:44Z</time>
      </trkpt>
      <trkpt lat="45.57397" lon="2.83971">
        <ele>1697.7</ele>
        <time>2021-07-20T10:35:57Z</time>
      </trkpt>
      <trkpt lat="45.57411" lon="2.83974">
        <ele>1694.4</ele>
        <time>2021-07-20T10:36:11Z</time>
      </trkpt>
      <trkpt lat="45.57425" lon="2.83972">
        <ele>1691.2</ele>
        <time>2021-07-20T10:36:26Z</time>
      </trkpt>
      <trkpt lat="45.57426" lon="2.83971">
        <ele>1690.9</ele>
        <time>2021-07-20T10:36:28Z</time>
      </trkpt>
      <trkpt lat="45.57437" lon="2.8397">
        <ele>1688.7</ele>
        <time>2021-07-20T10:36:42Z</time>
      </trkpt>
      <trkpt lat="45.57448" lon="2.83971">
        <ele>1687</ele>
        <time>2021-07-20T10:36:54Z</time>
      </trkpt>
      <trkpt lat="45.57455" lon="2.83971">
        <ele>1685.7</ele>
        <time>2021-07-20T10:37:01Z</time>
      </trkpt>
      <trkpt lat="45.57459" lon="2.83972">
        <ele>1685.1</ele>
        <time>2021-07-20T10:37:06Z</time>
      </trkpt>
      <trkpt lat="45.57475" lon="2.83973">
        <ele>1682.6</ele>
        <time>2021-07-20T10:37:21Z</time>
      </trkpt>
      <trkpt lat="45.5749" lon="2.83971">
        <ele>1679.6</ele>
        <time>2021-07-20T10:37:36Z</time>
      </trkpt>
      <trkpt lat="45.57501" lon="2.83969">
        <ele>1677.4</ele>
        <time>2021-07-20T10:37:46Z</time>
      </trkpt>
      <trkpt lat="45.57505" lon="2.83967">
        <ele>1677.1</ele>
        <time>2021-07-20T10:37:50Z</time>
      </trkpt>
      <trkpt lat="45.57525" lon="2.83965">
        <ele>1675.9</ele>
        <time>2021-07-20T10:38:05Z</time>
      </trkpt>
      <trkpt lat="45.57542" lon="2.83963">
        <ele>1674.8</ele>
        <time>2021-07-20T10:38:18Z</time>
      </trkpt>
      <trkpt lat="45.57561" lon="2.83959">
        <ele>1673.6</ele>
        <time>2021-07-20T10:38:35Z</time>
      </trkpt>
      <trkpt lat="45.5758" lon="2.83957">
        <ele>1672.5</ele>
        <time>2021-07-20T10:38:51Z</time>
      </trkpt>
      <trkpt lat="45.57597" lon="2.83953">
        <ele>1672.3</ele>
        <time>2021-07-20T10:39:06Z</time>
      </trkpt>
      <trkpt lat="45.57612" lon="2.8395">
        <ele>1672.4</ele>
        <time>2021-07-20T10:39:19Z</time>
      </trkpt>
      <trkpt lat="45.57629" lon="2.83945">
        <ele>1672.5</ele>
        <time>2021-07-20T10:39:34Z</time>
      </trkpt>
      <trkpt lat="45.57646" lon="2.83939">
        <ele>1672.6</ele>
        <time>2021-07-20T10:39:50Z</time>
      </trkpt>
      <trkpt lat="45.57659" lon="2.83935">
        <ele>1672.8</ele>
        <time>2021-07-20T10:40:03Z</time>
      </trkpt>
      <trkpt lat="45.57666" lon="2.83933">
        <ele>1672.9</ele>
        <time>2021-07-20T10:40:10Z</time>
      </trkpt>
      <trkpt lat="45.57678" lon="2.83929">
        <ele>1674.7</ele>
        <time>2021-07-20T10:40:25Z</time>
      </trkpt>
      <trkpt lat="45.57687" lon="2.83927">
        <ele>1676.1</ele>
        <time>2021-07-20T10:40:38Z</time>
      </trkpt>
      <trkpt lat="45.57697" lon="2.83923">
        <ele>1677.7</ele>
        <time>2021-07-20T10:40:52Z</time>
      </trkpt>
      <trkpt lat="45.57706" lon="2.83919">
        <ele>1679.2</ele>
        <time>2021-07-20T10:41:04Z</time>
      </trkpt>
      <trkpt lat="45.57716" lon="2.83916">
        <ele>1680.7</ele>
        <time>2021-07-20T10:41:17Z</time>
      </trkpt>
      <trkpt lat="45.57726" lon="2.83913">
        <ele>1681.9</ele>
        <time>2021-07-20T10:41:31Z</time>
      </trkpt>
      <trkpt lat="45.57734" lon="2.83909">
        <ele>1682.7</ele>
        <time>2021-07-20T10:41:44Z</time>
      </trkpt>
      <trkpt lat="45.57743" lon="2.83906">
        <ele>1683.8</ele>
        <time>2021-07-20T10:41:58Z</time>
      </trkpt>
      <trkpt lat="45.57752" lon="2.83903">
        <ele>1684.4</ele>
        <time>2021-07-20T10:42:15Z</time>
      </trkpt>
      <trkpt lat="45.57755" lon="2.83904">
        <ele>1684.5</ele>
        <time>2021-07-20T10:42:20Z</time>
      </trkpt>
      <trkpt lat="45.57764" lon="2.83904">
        <ele>1683.8</ele>
        <time>2021-07-20T10:42:35Z</time>
      </trkpt>
      <trkpt lat="45.57774" lon="2.83905">
        <ele>1683.3</ele>
        <time>2021-07-20T10:42:49Z</time>
      </trkpt>
      <trkpt lat="45.57782" lon="2.83911">
        <ele>1683.8</ele>
        <time>2021-07-20T10:43:02Z</time>
      </trkpt>
      <trkpt lat="45.57789" lon="2.8392">
        <ele>1684.8</ele>
        <time>2021-07-20T10:43:13Z</time>
      </trkpt>
      <trkpt lat="45.57796" lon="2.8393">
        <ele>1684.9</ele>
        <time>2021-07-20T10:43:23Z</time>
      </trkpt>
      <trkpt lat="45.57798" lon="2.83931">
        <ele>1684.9</ele>
        <time>2021-07-20T10:43:25Z</time>
      </trkpt>
      <trkpt lat="45.57807" lon="2.8394">
        <ele>1685.2</ele>
        <time>2021-07-20T10:43:38Z</time>
      </trkpt>
      <trkpt lat="45.57807" lon="2.83941">
        <ele>1685.2</ele>
        <time>2021-07-20T10:43:39Z</time>
      </trkpt>
      <trkpt lat="45.57816" lon="2.83953">
        <ele>1685.8</ele>
        <time>2021-07-20T10:43:54Z</time>
      </trkpt>
      <trkpt lat="45.57824" lon="2.83964">
        <ele>1686.6</ele>
        <time>2021-07-20T10:44:07Z</time>
      </trkpt>
      <trkpt lat="45.57835" lon="2.83976">
        <ele>1687.2</ele>
        <time>2021-07-20T10:44:23Z</time>
      </trkpt>
      <trkpt lat="45.57842" lon="2.83981">
        <ele>1685.7</ele>
        <time>2021-07-20T10:44:32Z</time>
      </trkpt>
      <trkpt lat="45.57847" lon="2.83985">
        <ele>1684.6</ele>
        <time>2021-07-20T10:44:44Z</time>
      </trkpt>
      <trkpt lat="45.57848" lon="2.8399">
        <ele>1684.7</ele>
        <time>2021-07-20T10:44:59Z</time>
      </trkpt>
      <trkpt lat="45.57854" lon="2.83994">
        <ele>1683.3</ele>
        <time>2021-07-20T10:45:10Z</time>
      </trkpt>
      <trkpt lat="45.5786" lon="2.84001">
        <ele>1682.2</ele>
        <time>2021-07-20T10:45:22Z</time>
      </trkpt>
      <trkpt lat="45.57863" lon="2.84003">
        <ele>1681.3</ele>
        <time>2021-07-20T10:45:32Z</time>
      </trkpt>
      <trkpt lat="45.57871" lon="2.8401">
        <ele>1679.1</ele>
        <time>2021-07-20T10:45:47Z</time>
      </trkpt>
      <trkpt lat="45.57877" lon="2.84015">
        <ele>1677.6</ele>
        <time>2021-07-20T10:46:00Z</time>
      </trkpt>
      <trkpt lat="45.5788" lon="2.84017">
        <ele>1677</ele>
        <time>2021-07-20T10:46:17Z</time>
      </trkpt>
      <trkpt lat="45.57886" lon="2.84025">
        <ele>1675.5</ele>
        <time>2021-07-20T10:46:29Z</time>
      </trkpt>
      <trkpt lat="45.57898" lon="2.84037">
        <ele>1673.3</ele>
        <time>2021-07-20T10:46:43Z</time>
      </trkpt>
      <trkpt lat="45.57912" lon="2.84049">
        <ele>1671</ele>
        <time>2021-07-20T10:47:00Z</time>
      </trkpt>
      <trkpt lat="45.57924" lon="2.84061">
        <ele>1669.4</ele>
        <time>2021-07-20T10:47:13Z</time>
      </trkpt>
      <trkpt lat="45.57932" lon="2.8407">
        <ele>1668.4</ele>
        <time>2021-07-20T10:47:24Z</time>
      </trkpt>
      <trkpt lat="45.57944" lon="2.84082">
        <ele>1666.9</ele>
        <time>2021-07-20T10:47:39Z</time>
      </trkpt>
      <trkpt lat="45.57959" lon="2.84091">
        <ele>1662.6</ele>
        <time>2021-07-20T10:47:56Z</time>
      </trkpt>
      <trkpt lat="45.57972" lon="2.841">
        <ele>1658.9</ele>
        <time>2021-07-20T10:48:12Z</time>
      </trkpt>
      <trkpt lat="45.57983" lon="2.84105">
        <ele>1656.3</ele>
        <time>2021-07-20T10:48:24Z</time>
      </trkpt>
      <trkpt lat="45.57996" lon="2.84109">
        <ele>1653.5</ele>
        <time>2021-07-20T10:48:40Z</time>
      </trkpt>
      <trkpt lat="45.58009" lon="2.84111">
        <ele>1650.7</ele>
        <time>2021-07-20T10:48:55Z</time>
      </trkpt>
      <trkpt lat="45.58012" lon="2.84113">
        <ele>1650.1</ele>
        <time>2021-07-20T10:48:58Z</time>
      </trkpt>
      <trkpt lat="45.58023" lon="2.84123">
        <ele>1647.2</ele>
        <time>2021-07-20T10:49:13Z</time>
      </trkpt>
      <trkpt lat="45.58034" lon="2.84135">
        <ele>1644.6</ele>
        <time>2021-07-20T10:49:28Z</time>
      </trkpt>
      <trkpt lat="45.58037" lon="2.84142">
        <ele>1643.8</ele>
        <time>2021-07-20T10:49:37Z</time>
      </trkpt>
      <trkpt lat="45.58044" lon="2.84149">
        <ele>1642.6</ele>
        <time>2021-07-20T10:49:49Z</time>
      </trkpt>
      <trkpt lat="45.58046" lon="2.8415">
        <ele>1642.3</ele>
        <time>2021-07-20T10:50:01Z</time>
      </trkpt>
      <trkpt lat="45.58048" lon="2.84153">
        <ele>1641.8</ele>
        <time>2021-07-20T10:50:15Z</time>
      </trkpt>
      <trkpt lat="45.58054" lon="2.84163">
        <ele>1640.8</ele>
        <time>2021-07-20T10:50:28Z</time>
      </trkpt>
      <trkpt lat="45.58056" lon="2.8417">
        <ele>1640.2</ele>
        <time>2021-07-20T10:50:37Z</time>
      </trkpt>
      <trkpt lat="45.58062" lon="2.84186">
        <ele>1638.1</ele>
        <time>2021-07-20T10:50:51Z</time>
      </trkpt>
      <trkpt lat="45.58066" lon="2.84201">
        <ele>1636.7</ele>
        <time>2021-07-20T10:51:04Z</time>
      </trkpt>
      <trkpt lat="45.5807" lon="2.84214">
        <ele>1635.7</ele>
        <time>2021-07-20T10:51:15Z</time>
      </trkpt>
      <trkpt lat="45.58071" lon="2.84221">
        <ele>1635.3</ele>
        <time>2021-07-20T10:51:21Z</time>
      </trkpt>
      <trkpt lat="45.58073" lon="2.8423">
        <ele>1634.9</ele>
        <time>2021-07-20T10:51:28Z</time>
      </trkpt>
      <trkpt lat="45.58074" lon="2.84237">
        <ele>1634.6</ele>
        <time>2021-07-20T10:51:33Z</time>
      </trkpt>
      <trkpt lat="45.58083" lon="2.84262">
        <ele>1634.6</ele>
        <time>2021-07-20T10:51:52Z</time>
      </trkpt>
      <trkpt lat="45.5809" lon="2.84286">
        <ele>1633.6</ele>
        <time>2021-07-20T10:52:09Z</time>
      </trkpt>
      <trkpt lat="45.58094" lon="2.84304">
        <ele>1633.2</ele>
        <time>2021-07-20T10:52:23Z</time>
      </trkpt>
      <trkpt lat="45.58102" lon="2.84324">
        <ele>1633.2</ele>
        <time>2021-07-20T10:52:38Z</time>
      </trkpt>
      <trkpt lat="45.58105" lon="2.8433">
        <ele>1633.4</ele>
        <time>2021-07-20T10:52:44Z</time>
      </trkpt>
      <trkpt lat="45.58112" lon="2.84347">
        <ele>1634.4</ele>
        <time>2021-07-20T10:53:01Z</time>
      </trkpt>
      <trkpt lat="45.58118" lon="2.84362">
        <ele>1635.9</ele>
        <time>2021-07-20T10:53:17Z</time>
      </trkpt>
      <trkpt lat="45.58117" lon="2.84362">
        <ele>1635.9</ele>
        <time>2021-07-20T10:53:19Z</time>
      </trkpt>
      <trkpt lat="45.58122" lon="2.84373">
        <ele>1637.3</ele>
        <time>2021-07-20T10:53:31Z</time>
      </trkpt>
      <trkpt lat="45.58126" lon="2.84385">
        <ele>1639.1</ele>
        <time>2021-07-20T10:53:46Z</time>
      </trkpt>
      <trkpt lat="45.5813" lon="2.84394">
        <ele>1640.9</ele>
        <time>2021-07-20T10:53:58Z</time>
      </trkpt>
      <trkpt lat="45.58138" lon="2.84411">
        <ele>1644.8</ele>
        <time>2021-07-20T10:54:16Z</time>
      </trkpt>
      <trkpt lat="45.58146" lon="2.84413">
        <ele>1647.4</ele>
        <time>2021-07-20T10:54:28Z</time>
      </trkpt>
      <trkpt lat="45.58153" lon="2.84415">
        <ele>1649.6</ele>
        <time>2021-07-20T10:54:41Z</time>
      </trkpt>
      <trkpt lat="45.58159" lon="2.84418">
        <ele>1651.8</ele>
        <time>2021-07-20T10:54:52Z</time>
      </trkpt>
      <trkpt lat="45.58164" lon="2.84422">
        <ele>1653.7</ele>
        <time>2021-07-20T10:55:01Z</time>
      </trkpt>
      <trkpt lat="45.58177" lon="2.8443">
        <ele>1652.4</ele>
        <time>2021-07-20T10:55:15Z</time>
      </trkpt>
      <trkpt lat="45.58193" lon="2.84435">
        <ele>1649.9</ele>
        <time>2021-07-20T10:55:32Z</time>
      </trkpt>
      <trkpt lat="45.58204" lon="2.84439">
        <ele>1648.6</ele>
        <time>2021-07-20T10:55:45Z</time>
      </trkpt>
      <trkpt lat="45.58215" lon="2.84443">
        <ele>1647.4</ele>
        <time>2021-07-20T10:55:58Z</time>
      </trkpt>
      <trkpt lat="45.58228" lon="2.84449">
        <ele>1647.2</ele>
        <time>2021-07-20T10:56:14Z</time>
      </trkpt>
      <trkpt lat="45.58238" lon="2.84455">
        <ele>1648</ele>
        <time>2021-07-20T10:56:29Z</time>
      </trkpt>
      <trkpt lat="45.58242" lon="2.84458">
        <ele>1648.9</ele>
        <time>2021-07-20T10:56:43Z</time>
      </trkpt>
      <trkpt lat="45.58242" lon="2.8446">
        <ele>1649.4</ele>
        <time>2021-07-20T10:56:55Z</time>
      </trkpt>
      <trkpt lat="45.58241" lon="2.84461">
        <ele>1649.8</ele>
        <time>2021-07-20T10:57:02Z</time>
      </trkpt>
      <trkpt lat="45.5824" lon="2.84461">
        <ele>1650</ele>
        <time>2021-07-20T10:57:14Z</time>
      </trkpt>
      <trkpt lat="45.5824" lon="2.84461">
        <ele>1650.1</ele>
        <time>2021-07-20T10:57:16Z</time>
      </trkpt>
      <trkpt lat="45.5824" lon="2.84461">
        <ele>1650.1</ele>
        <time>2021-07-20T10:57:17Z</time>
      </trkpt>
      <trkpt lat="45.5824" lon="2.84461">
        <ele>1650.1</ele>
        <time>2021-07-20T10:57:18Z</time>
      </trkpt>
      <trkpt lat="45.5824" lon="2.84461">
        <ele>1650.2</ele>
        <time>2021-07-20T10:57:21Z</time>
      </trkpt>
      <trkpt lat="45.5824" lon="2.84461">
        <ele>1650.3</ele>
        <time>2021-07-20T10:57:22Z</time>
      </trkpt>
      <trkpt lat="45.5824" lon="2.84462">
        <ele>1650.3</ele>
        <time>2021-07-20T10:57:23Z</time>
      </trkpt>
      <trkpt lat="45.5824" lon="2.84462">
        <ele>1650.4</ele>
        <time>2021-07-20T10:57:24Z</time>
      </trkpt>
      <trkpt lat="45.5824" lon="2.84462">
        <ele>1650.4</ele>
        <time>2021-07-20T10:57:25Z</time>
      </trkpt>
      <trkpt lat="45.5824" lon="2.84462">
        <ele>1650.4</ele>
        <time>2021-07-20T10:57:26Z</time>
      </trkpt>
      <trkpt lat="45.5824" lon="2.84462">
        <ele>1650.5</ele>
        <time>2021-07-20T10:57:28Z</time>
      </trkpt>
      <trkpt lat="45.5824" lon="2.84462">
        <ele>1650.5</ele>
        <time>2021-07-20T10:57:29Z</time>
      </trkpt>
      <trkpt lat="45.5824" lon="2.84462">
        <ele>1650.5</ele>
        <time>2021-07-20T10:57:32Z</time>
      </trkpt>
      <trkpt lat="45.5824" lon="2.84462">
        <ele>1650.6</ele>
        <time>2021-07-20T10:57:33Z</time>
      </trkpt>
      <trkpt lat="45.5824" lon="2.84462">
        <ele>1650.6</ele>
        <time>2021-07-20T10:57:34Z</time>
      </trkpt>
      <trkpt lat="45.5824" lon="2.84462">
        <ele>1650.7</ele>
        <time>2021-07-20T10:57:40Z</time>
      </trkpt>
      <trkpt lat="45.5824" lon="2.84463">
        <ele>1650.7</ele>
        <time>2021-07-20T10:57:41Z</time>
      </trkpt>
      <trkpt lat="45.5824" lon="2.84463">
        <ele>1650.8</ele>
        <time>2021-07-20T10:57:42Z</time>
      </trkpt>
      <trkpt lat="45.5824" lon="2.84463">
        <ele>1650.8</ele>
        <time>2021-07-20T10:57:43Z</time>
      </trkpt>
      <trkpt lat="45.5824" lon="2.84463">
        <ele>1650.8</ele>
        <time>2021-07-20T10:57:44Z</time>
      </trkpt>
      <trkpt lat="45.5824" lon="2.84463">
        <ele>1650.8</ele>
        <time>2021-07-20T10:57:45Z</time>
      </trkpt>
      <trkpt lat="45.5824" lon="2.84463">
        <ele>1650.8</ele>
        <time>2021-07-20T10:57:46Z</time>
      </trkpt>
      <trkpt lat="45.5824" lon="2.84463">
        <ele>1650.8</ele>
        <time>2021-07-20T10:57:47Z</time>
      </trkpt>
      <trkpt lat="45.5824" lon="2.84463">
        <ele>1650.8</ele>
        <time>2021-07-20T10:57:48Z</time>
      </trkpt>
      <trkpt lat="45.5824" lon="2.84463">
        <ele>1650.9</ele>
        <time>2021-07-20T10:57:53Z</time>
      </trkpt>
      <trkpt lat="45.58239" lon="2.84463">
        <ele>1651</ele>
        <time>2021-07-20T10:57:58Z</time>
      </trkpt>
      <trkpt lat="45.58239" lon="2.84463">
        <ele>1651</ele>
        <time>2021-07-20T10:57:59Z</time>
      </trkpt>
      <trkpt lat="45.58239" lon="2.84463">
        <ele>1651</ele>
        <time>2021-07-20T10:58:00Z</time>
      </trkpt>
      <trkpt lat="45.58239" lon="2.84463">
        <ele>1651</ele>
        <time>2021-07-20T10:58:02Z</time>
      </trkpt>
      <trkpt lat="45.58239" lon="2.84463">
        <ele>1651.1</ele>
        <time>2021-07-20T10:58:05Z</time>
      </trkpt>
      <trkpt lat="45.58239" lon="2.84463">
        <ele>1651.1</ele>
        <time>2021-07-20T10:58:08Z</time>
      </trkpt>
      <trkpt lat="45.58239" lon="2.84464">
        <ele>1651.1</ele>
        <time>2021-07-20T10:58:09Z</time>
      </trkpt>
      <trkpt lat="45.58239" lon="2.84464">
        <ele>1651.2</ele>
        <time>2021-07-20T10:58:10Z</time>
      </trkpt>
      <trkpt lat="45.58239" lon="2.84464">
        <ele>1651.2</ele>
        <time>2021-07-20T10:58:11Z</time>
      </trkpt>
      <trkpt lat="45.58239" lon="2.84464">
        <ele>1651.2</ele>
        <time>2021-07-20T10:58:17Z</time>
      </trkpt>
      <trkpt lat="45.58239" lon="2.84464">
        <ele>1651.2</ele>
        <time>2021-07-20T10:58:19Z</time>
      </trkpt>
      <trkpt lat="45.58239" lon="2.84464">
        <ele>1651.3</ele>
        <time>2021-07-20T10:58:21Z</time>
      </trkpt>
      <trkpt lat="45.58239" lon="2.84464">
        <ele>1651.3</ele>
        <time>2021-07-20T10:58:22Z</time>
      </trkpt>
      <trkpt lat="45.58239" lon="2.84464">
        <ele>1651.4</ele>
        <time>2021-07-20T10:58:25Z</time>
      </trkpt>
      <trkpt lat="45.58239" lon="2.84464">
        <ele>1651.4</ele>
        <time>2021-07-20T10:58:28Z</time>
      </trkpt>
      <trkpt lat="45.58239" lon="2.84464">
        <ele>1651.4</ele>
        <time>2021-07-20T10:58:30Z</time>
      </trkpt>
      <trkpt lat="45.58239" lon="2.84464">
        <ele>1651.4</ele>
        <time>2021-07-20T10:58:32Z</time>
      </trkpt>
      <trkpt lat="45.58239" lon="2.84464">
        <ele>1651.5</ele>
        <time>2021-07-20T10:58:40Z</time>
      </trkpt>
      <trkpt lat="45.58239" lon="2.84464">
        <ele>1651.5</ele>
        <time>2021-07-20T10:58:41Z</time>
      </trkpt>
      <trkpt lat="45.58239" lon="2.84464">
        <ele>1651.5</ele>
        <time>2021-07-20T10:58:44Z</time>
      </trkpt>
      <trkpt lat="45.58239" lon="2.84464">
        <ele>1651.5</ele>
        <time>2021-07-20T10:58:45Z</time>
      </trkpt>
      <trkpt lat="45.58239" lon="2.84464">
        <ele>1651.5</ele>
        <time>2021-07-20T10:58:46Z</time>
      </trkpt>
      <trkpt lat="45.58239" lon="2.84465">
        <ele>1651.6</ele>
        <time>2021-07-20T10:58:56Z</time>
      </trkpt>
      <trkpt lat="45.58239" lon="2.84465">
        <ele>1651.6</ele>
        <time>2021-07-20T10:58:57Z</time>
      </trkpt>
      <trkpt lat="45.58239" lon="2.84465">
        <ele>1651.6</ele>
        <time>2021-07-20T10:58:58Z</time>
      </trkpt>
      <trkpt lat="45.58239" lon="2.84465">
        <ele>1651.7</ele>
        <time>2021-07-20T10:59:08Z</time>
      </trkpt>
      <trkpt lat="45.58239" lon="2.84465">
        <ele>1651.7</ele>
        <time>2021-07-20T10:59:09Z</time>
      </trkpt>
      <trkpt lat="45.58239" lon="2.84465">
        <ele>1651.7</ele>
        <time>2021-07-20T10:59:10Z</time>
      </trkpt>
      <trkpt lat="45.58239" lon="2.84465">
        <ele>1651.7</ele>
        <time>2021-07-20T10:59:11Z</time>
      </trkpt>
      <trkpt lat="45.58239" lon="2.84465">
        <ele>1651.7</ele>
        <time>2021-07-20T10:59:14Z</time>
      </trkpt>
      <trkpt lat="45.58239" lon="2.84465">
        <ele>1651.7</ele>
        <time>2021-07-20T10:59:15Z</time>
      </trkpt>
      <trkpt lat="45.58239" lon="2.84465">
        <ele>1651.7</ele>
        <time>2021-07-20T10:59:21Z</time>
      </trkpt>
      <trkpt lat="45.58239" lon="2.84465">
        <ele>1651.7</ele>
        <time>2021-07-20T10:59:22Z</time>
      </trkpt>
      <trkpt lat="45.58239" lon="2.84465">
        <ele>1651.7</ele>
        <time>2021-07-20T10:59:23Z</time>
      </trkpt>
      <trkpt lat="45.58239" lon="2.84465">
        <ele>1651.7</ele>
        <time>2021-07-20T10:59:24Z</time>
      </trkpt>
      <trkpt lat="45.58239" lon="2.84465">
        <ele>1651.8</ele>
        <time>2021-07-20T10:59:25Z</time>
      </trkpt>
      <trkpt lat="45.58239" lon="2.84465">
        <ele>1651.8</ele>
        <time>2021-07-20T10:59:28Z</time>
      </trkpt>
      <trkpt lat="45.58239" lon="2.84465">
        <ele>1651.8</ele>
        <time>2021-07-20T10:59:29Z</time>
      </trkpt>
      <trkpt lat="45.58239" lon="2.84465">
        <ele>1651.9</ele>
        <time>2021-07-20T10:59:30Z</time>
      </trkpt>
      <trkpt lat="45.58239" lon="2.84465">
        <ele>1651.9</ele>
        <time>2021-07-20T10:59:31Z</time>
      </trkpt>
      <trkpt lat="45.58239" lon="2.84465">
        <ele>1651.8</ele>
        <time>2021-07-20T10:59:33Z</time>
      </trkpt>
      <trkpt lat="45.58239" lon="2.84465">
        <ele>1651.8</ele>
        <time>2021-07-20T10:59:35Z</time>
      </trkpt>
      <trkpt lat="45.58239" lon="2.84465">
        <ele>1651.8</ele>
        <time>2021-07-20T10:59:36Z</time>
      </trkpt>
      <trkpt lat="45.58239" lon="2.84465">
        <ele>1651.9</ele>
        <time>2021-07-20T10:59:38Z</time>
      </trkpt>
      <trkpt lat="45.58239" lon="2.84465">
        <ele>1651.9</ele>
        <time>2021-07-20T10:59:45Z</time>
      </trkpt>
      <trkpt lat="45.58239" lon="2.84465">
        <ele>1651.9</ele>
        <time>2021-07-20T10:59:46Z</time>
      </trkpt>
      <trkpt lat="45.58238" lon="2.84465">
        <ele>1651.9</ele>
        <time>2021-07-20T10:59:59Z</time>
      </trkpt>
      <trkpt lat="45.58238" lon="2.84465">
        <ele>1651.9</ele>
        <time>2021-07-20T11:00:01Z</time>
      </trkpt>
      <trkpt lat="45.58238" lon="2.84465">
        <ele>1651.9</ele>
        <time>2021-07-20T11:00:03Z</time>
      </trkpt>
      <trkpt lat="45.58238" lon="2.84466">
        <ele>1652</ele>
        <time>2021-07-20T11:00:24Z</time>
      </trkpt>
      <trkpt lat="45.58238" lon="2.84466">
        <ele>1652</ele>
        <time>2021-07-20T11:00:25Z</time>
      </trkpt>
      <trkpt lat="45.58238" lon="2.84466">
        <ele>1652</ele>
        <time>2021-07-20T11:00:26Z</time>
      </trkpt>
      <trkpt lat="45.58238" lon="2.84466">
        <ele>1652</ele>
        <time>2021-07-20T11:00:27Z</time>
      </trkpt>
      <trkpt lat="45.58238" lon="2.84466">
        <ele>1652</ele>
        <time>2021-07-20T11:00:28Z</time>
      </trkpt>
      <trkpt lat="45.58238" lon="2.84466">
        <ele>1652</ele>
        <time>2021-07-20T11:00:32Z</time>
      </trkpt>
      <trkpt lat="45.58238" lon="2.84466">
        <ele>1652</ele>
        <time>2021-07-20T11:00:35Z</time>
      </trkpt>
      <trkpt lat="45.58238" lon="2.84466">
        <ele>1652</ele>
        <time>2021-07-20T11:00:56Z</time>
      </trkpt>
      <trkpt lat="45.58238" lon="2.84465">
        <ele>1652</ele>
        <time>2021-07-20T11:00:57Z</time>
      </trkpt>
      <trkpt lat="45.58238" lon="2.84465">
        <ele>1652</ele>
        <time>2021-07-20T11:00:58Z</time>
      </trkpt>
      <trkpt lat="45.58238" lon="2.84465">
        <ele>1652</ele>
        <time>2021-07-20T11:00:59Z</time>
      </trkpt>
      <trkpt lat="45.58238" lon="2.84465">
        <ele>1652</ele>
        <time>2021-07-20T11:01:01Z</time>
      </trkpt>
      <trkpt lat="45.58238" lon="2.84465">
        <ele>1652</ele>
        <time>2021-07-20T11:01:11Z</time>
      </trkpt>
      <trkpt lat="45.58238" lon="2.84465">
        <ele>1651.9</ele>
        <time>2021-07-20T11:01:12Z</time>
      </trkpt>
      <trkpt lat="45.58239" lon="2.84465">
        <ele>1651.9</ele>
        <time>2021-07-20T11:01:13Z</time>
      </trkpt>
      <trkpt lat="45.58239" lon="2.84465">
        <ele>1651.9</ele>
        <time>2021-07-20T11:01:15Z</time>
      </trkpt>
      <trkpt lat="45.58239" lon="2.84465">
        <ele>1651.9</ele>
        <time>2021-07-20T11:01:17Z</time>
      </trkpt>
      <trkpt lat="45.58239" lon="2.84465">
        <ele>1651.9</ele>
        <time>2021-07-20T11:01:18Z</time>
      </trkpt>
      <trkpt lat="45.58239" lon="2.84465">
        <ele>1652</ele>
        <time>2021-07-20T11:01:19Z</time>
      </trkpt>
      <trkpt lat="45.58239" lon="2.84465">
        <ele>1651.9</ele>
        <time>2021-07-20T11:01:20Z</time>
      </trkpt>
      <trkpt lat="45.58239" lon="2.84465">
        <ele>1651.9</ele>
        <time>2021-07-20T11:01:21Z</time>
      </trkpt>
      <trkpt lat="45.58239" lon="2.84465">
        <ele>1651.9</ele>
        <time>2021-07-20T11:01:25Z</time>
      </trkpt>
      <trkpt lat="45.58239" lon="2.84465">
        <ele>1651.9</ele>
        <time>2021-07-20T11:01:26Z</time>
      </trkpt>
      <trkpt lat="45.58239" lon="2.84465">
        <ele>1651.9</ele>
        <time>2021-07-20T11:01:27Z</time>
      </trkpt>
      <trkpt lat="45.58239" lon="2.84465">
        <ele>1651.9</ele>
        <time>2021-07-20T11:01:28Z</time>
      </trkpt>
      <trkpt lat="45.58239" lon="2.84465">
        <ele>1651.8</ele>
        <time>2021-07-20T11:01:29Z</time>
      </trkpt>
      <trkpt lat="45.58239" lon="2.84465">
        <ele>1651.9</ele>
        <time>2021-07-20T11:01:31Z</time>
      </trkpt>
      <trkpt lat="45.58239" lon="2.84465">
        <ele>1651.9</ele>
        <time>2021-07-20T11:01:33Z</time>
      </trkpt>
      <trkpt lat="45.58239" lon="2.84465">
        <ele>1651.9</ele>
        <time>2021-07-20T11:01:36Z</time>
      </trkpt>
      <trkpt lat="45.58239" lon="2.84465">
        <ele>1651.9</ele>
        <time>2021-07-20T11:01:43Z</time>
      </trkpt>
      <trkpt lat="45.58239" lon="2.84465">
        <ele>1651.9</ele>
        <time>2021-07-20T11:01:44Z</time>
      </trkpt>
      <trkpt lat="45.58239" lon="2.84465">
        <ele>1651.9</ele>
        <time>2021-07-20T11:01:46Z</time>
      </trkpt>
      <trkpt lat="45.58239" lon="2.84465">
        <ele>1652</ele>
        <time>2021-07-20T11:01:48Z</time>
      </trkpt>
      <trkpt lat="45.58239" lon="2.84465">
        <ele>1652</ele>
        <time>2021-07-20T11:01:49Z</time>
      </trkpt>
      <trkpt lat="45.58239" lon="2.84465">
        <ele>1652</ele>
        <time>2021-07-20T11:01:51Z</time>
      </trkpt>
      <trkpt lat="45.58239" lon="2.84465">
        <ele>1651.9</ele>
        <time>2021-07-20T11:02:03Z</time>
      </trkpt>
      <trkpt lat="45.58239" lon="2.84465">
        <ele>1651.9</ele>
        <time>2021-07-20T11:02:04Z</time>
      </trkpt>
      <trkpt lat="45.58239" lon="2.84465">
        <ele>1652</ele>
        <time>2021-07-20T11:02:07Z</time>
      </trkpt>
      <trkpt lat="45.58239" lon="2.84465">
        <ele>1652</ele>
        <time>2021-07-20T11:02:08Z</time>
      </trkpt>
      <trkpt lat="45.58239" lon="2.84466">
        <ele>1652</ele>
        <time>2021-07-20T11:02:15Z</time>
      </trkpt>
      <trkpt lat="45.58239" lon="2.84466">
        <ele>1652</ele>
        <time>2021-07-20T11:02:16Z</time>
      </trkpt>
      <trkpt lat="45.58239" lon="2.84466">
        <ele>1652</ele>
        <time>2021-07-20T11:02:18Z</time>
      </trkpt>
      <trkpt lat="45.58239" lon="2.84466">
        <ele>1652</ele>
        <time>2021-07-20T11:02:19Z</time>
      </trkpt>
      <trkpt lat="45.58239" lon="2.84466">
        <ele>1652</ele>
        <time>2021-07-20T11:02:27Z</time>
      </trkpt>
      <trkpt lat="45.58239" lon="2.84466">
        <ele>1652</ele>
        <time>2021-07-20T11:02:32Z</time>
      </trkpt>
      <trkpt lat="45.58239" lon="2.84466">
        <ele>1652</ele>
        <time>2021-07-20T11:02:33Z</time>
      </trkpt>
      <trkpt lat="45.58239" lon="2.84466">
        <ele>1652</ele>
        <time>2021-07-20T11:02:35Z</time>
      </trkpt>
      <trkpt lat="45.58239" lon="2.84466">
        <ele>1652</ele>
        <time>2021-07-20T11:02:36Z</time>
      </trkpt>
      <trkpt lat="45.58239" lon="2.84466">
        <ele>1652</ele>
        <time>2021-07-20T11:02:37Z</time>
      </trkpt>
      <trkpt lat="45.58239" lon="2.84466">
        <ele>1652</ele>
        <time>2021-07-20T11:02:39Z</time>
      </trkpt>
      <trkpt lat="45.58239" lon="2.84465">
        <ele>1652</ele>
        <time>2021-07-20T11:02:40Z</time>
      </trkpt>
      <trkpt lat="45.58239" lon="2.84465">
        <ele>1651.9</ele>
        <time>2021-07-20T11:02:43Z</time>
      </trkpt>
      <trkpt lat="45.58239" lon="2.84465">
        <ele>1651.9</ele>
        <time>2021-07-20T11:02:44Z</time>
      </trkpt>
      <trkpt lat="45.58239" lon="2.84465">
        <ele>1651.9</ele>
        <time>2021-07-20T11:02:49Z</time>
      </trkpt>
      <trkpt lat="45.58239" lon="2.84465">
        <ele>1651.8</ele>
        <time>2021-07-20T11:02:53Z</time>
      </trkpt>
      <trkpt lat="45.58239" lon="2.84465">
        <ele>1651.8</ele>
        <time>2021-07-20T11:02:54Z</time>
      </trkpt>
      <trkpt lat="45.58239" lon="2.84465">
        <ele>1651.8</ele>
        <time>2021-07-20T11:02:56Z</time>
      </trkpt>
      <trkpt lat="45.58239" lon="2.84465">
        <ele>1651.8</ele>
        <time>2021-07-20T11:02:57Z</time>
      </trkpt>
      <trkpt lat="45.58239" lon="2.84465">
        <ele>1651.7</ele>
        <time>2021-07-20T11:03:04Z</time>
      </trkpt>
      <trkpt lat="45.58239" lon="2.84465">
        <ele>1651.7</ele>
        <time>2021-07-20T11:03:06Z</time>
      </trkpt>
      <trkpt lat="45.58239" lon="2.84465">
        <ele>1651.7</ele>
        <time>2021-07-20T11:03:12Z</time>
      </trkpt>
      <trkpt lat="45.58239" lon="2.84465">
        <ele>1651.7</ele>
        <time>2021-07-20T11:03:13Z</time>
      </trkpt>
      <trkpt lat="45.58239" lon="2.84465">
        <ele>1651.7</ele>
        <time>2021-07-20T11:03:17Z</time>
      </trkpt>
      <trkpt lat="45.58239" lon="2.84465">
        <ele>1651.7</ele>
        <time>2021-07-20T11:03:18Z</time>
      </trkpt>
      <trkpt lat="45.58239" lon="2.84465">
        <ele>1651.8</ele>
        <time>2021-07-20T11:03:24Z</time>
      </trkpt>
      <trkpt lat="45.58239" lon="2.84465">
        <ele>1651.8</ele>
        <time>2021-07-20T11:03:27Z</time>
      </trkpt>
      <trkpt lat="45.58239" lon="2.84465">
        <ele>1651.9</ele>
        <time>2021-07-20T11:03:29Z</time>
      </trkpt>
      <trkpt lat="45.58239" lon="2.84465">
        <ele>1651.9</ele>
        <time>2021-07-20T11:03:37Z</time>
      </trkpt>
      <trkpt lat="45.58239" lon="2.84465">
        <ele>1651.9</ele>
        <time>2021-07-20T11:03:43Z</time>
      </trkpt>
      <trkpt lat="45.58239" lon="2.84465">
        <ele>1651.9</ele>
        <time>2021-07-20T11:03:44Z</time>
      </trkpt>
      <trkpt lat="45.58239" lon="2.84465">
        <ele>1651.9</ele>
        <time>2021-07-20T11:03:45Z</time>
      </trkpt>
      <trkpt lat="45.58239" lon="2.84465">
        <ele>1651.9</ele>
        <time>2021-07-20T11:03:46Z</time>
      </trkpt>
      <trkpt lat="45.58239" lon="2.84465">
        <ele>1651.9</ele>
        <time>2021-07-20T11:03:47Z</time>
      </trkpt>
      <trkpt lat="45.58239" lon="2.84465">
        <ele>1651.9</ele>
        <time>2021-07-20T11:03:48Z</time>
      </trkpt>
      <trkpt lat="45.58239" lon="2.84465">
        <ele>1651.9</ele>
        <time>2021-07-20T11:03:52Z</time>
      </trkpt>
      <trkpt lat="45.58239" lon="2.84465">
        <ele>1651.8</ele>
        <time>2021-07-20T11:03:53Z</time>
      </trkpt>
      <trkpt lat="45.58239" lon="2.84465">
        <ele>1651.8</ele>
        <time>2021-07-20T11:03:55Z</time>
      </trkpt>
      <trkpt lat="45.58239" lon="2.84465">
        <ele>1651.8</ele>
        <time>2021-07-20T11:03:57Z</time>
      </trkpt>
      <trkpt lat="45.58239" lon="2.84465">
        <ele>1651.8</ele>
        <time>2021-07-20T11:03:58Z</time>
      </trkpt>
      <trkpt lat="45.58239" lon="2.84465">
        <ele>1651.8</ele>
        <time>2021-07-20T11:04:00Z</time>
      </trkpt>
      <trkpt lat="45.58239" lon="2.84465">
        <ele>1651.8</ele>
        <time>2021-07-20T11:04:01Z</time>
      </trkpt>
      <trkpt lat="45.58239" lon="2.84465">
        <ele>1651.7</ele>
        <time>2021-07-20T11:04:02Z</time>
      </trkpt>
      <trkpt lat="45.58239" lon="2.84465">
        <ele>1651.7</ele>
        <time>2021-07-20T11:04:03Z</time>
      </trkpt>
      <trkpt lat="45.58239" lon="2.84465">
        <ele>1651.6</ele>
        <time>2021-07-20T11:04:04Z</time>
      </trkpt>
      <trkpt lat="45.58239" lon="2.84464">
        <ele>1651.5</ele>
        <time>2021-07-20T11:04:05Z</time>
      </trkpt>
      <trkpt lat="45.58239" lon="2.84464">
        <ele>1651.4</ele>
        <time>2021-07-20T11:04:06Z</time>
      </trkpt>
      <trkpt lat="45.58238" lon="2.84464">
        <ele>1651.5</ele>
        <time>2021-07-20T11:04:14Z</time>
      </trkpt>
      <trkpt lat="45.58238" lon="2.84464">
        <ele>1651.5</ele>
        <time>2021-07-20T11:04:15Z</time>
      </trkpt>
      <trkpt lat="45.58238" lon="2.84464">
        <ele>1651.4</ele>
        <time>2021-07-20T11:04:18Z</time>
      </trkpt>
      <trkpt lat="45.58239" lon="2.84464">
        <ele>1651.3</ele>
        <time>2021-07-20T11:05:01Z</time>
      </trkpt>
      <trkpt lat="45.58239" lon="2.84464">
        <ele>1651.4</ele>
        <time>2021-07-20T11:05:48Z</time>
      </trkpt>
      <trkpt lat="45.58239" lon="2.84463">
        <ele>1651.1</ele>
        <time>2021-07-20T11:06:34Z</time>
      </trkpt>
      <trkpt lat="45.58239" lon="2.84463">
        <ele>1651.2</ele>
        <time>2021-07-20T11:07:24Z</time>
      </trkpt>
      <trkpt lat="45.58239" lon="2.84464">
        <ele>1651.3</ele>
        <time>2021-07-20T11:08:08Z</time>
      </trkpt>
      <trkpt lat="45.58239" lon="2.84464">
        <ele>1651.3</ele>
        <time>2021-07-20T11:08:59Z</time>
      </trkpt>
      <trkpt lat="45.58239" lon="2.84464">
        <ele>1651.4</ele>
        <time>2021-07-20T11:09:44Z</time>
      </trkpt>
      <trkpt lat="45.58239" lon="2.84464">
        <ele>1651.3</ele>
        <time>2021-07-20T11:10:28Z</time>
      </trkpt>
      <trkpt lat="45.58239" lon="2.84464">
        <ele>1651.4</ele>
        <time>2021-07-20T11:11:07Z</time>
      </trkpt>
      <trkpt lat="45.58239" lon="2.84465">
        <ele>1651.8</ele>
        <time>2021-07-20T11:11:57Z</time>
      </trkpt>
      <trkpt lat="45.58239" lon="2.84466">
        <ele>1652</ele>
        <time>2021-07-20T11:12:42Z</time>
      </trkpt>
      <trkpt lat="45.58239" lon="2.84465">
        <ele>1651.8</ele>
        <time>2021-07-20T11:13:19Z</time>
      </trkpt>
      <trkpt lat="45.58239" lon="2.84464">
        <ele>1651.2</ele>
        <time>2021-07-20T11:14:06Z</time>
      </trkpt>
      <trkpt lat="45.58239" lon="2.84464">
        <ele>1651.2</ele>
        <time>2021-07-20T11:14:58Z</time>
      </trkpt>
      <trkpt lat="45.58239" lon="2.84463">
        <ele>1651.1</ele>
        <time>2021-07-20T11:15:41Z</time>
      </trkpt>
      <trkpt lat="45.5824" lon="2.84462">
        <ele>1650.7</ele>
        <time>2021-07-20T11:16:19Z</time>
      </trkpt>
      <trkpt lat="45.58241" lon="2.84462">
        <ele>1650.3</ele>
        <time>2021-07-20T11:17:01Z</time>
      </trkpt>
      <trkpt lat="45.5824" lon="2.84461">
        <ele>1650.1</ele>
        <time>2021-07-20T11:17:16Z</time>
      </trkpt>
      <trkpt lat="45.58239" lon="2.84461">
        <ele>1650.1</ele>
        <time>2021-07-20T11:17:34Z</time>
      </trkpt>
      <trkpt lat="45.58239" lon="2.84458">
        <ele>1649.1</ele>
        <time>2021-07-20T11:17:44Z</time>
      </trkpt>
      <trkpt lat="45.58241" lon="2.8446">
        <ele>1649.7</ele>
        <time>2021-07-20T11:17:59Z</time>
      </trkpt>
      <trkpt lat="45.58248" lon="2.84468">
        <ele>1652.5</ele>
        <time>2021-07-20T11:18:11Z</time>
      </trkpt>
      <trkpt lat="45.5825" lon="2.84471">
        <ele>1653.3</ele>
        <time>2021-07-20T11:18:25Z</time>
      </trkpt>
      <trkpt lat="45.58256" lon="2.84477">
        <ele>1653.8</ele>
        <time>2021-07-20T11:18:35Z</time>
      </trkpt>
      <trkpt lat="45.58259" lon="2.84482">
        <ele>1654.5</ele>
        <time>2021-07-20T11:18:41Z</time>
      </trkpt>
      <trkpt lat="45.58261" lon="2.84483">
        <ele>1654.7</ele>
        <time>2021-07-20T11:18:43Z</time>
      </trkpt>
      <trkpt lat="45.58265" lon="2.84488">
        <ele>1655.2</ele>
        <time>2021-07-20T11:18:48Z</time>
      </trkpt>
      <trkpt lat="45.58275" lon="2.84497">
        <ele>1655.2</ele>
        <time>2021-07-20T11:19:02Z</time>
      </trkpt>
      <trkpt lat="45.58287" lon="2.84504">
        <ele>1652.6</ele>
        <time>2021-07-20T11:19:15Z</time>
      </trkpt>
      <trkpt lat="45.58297" lon="2.84514">
        <ele>1650</ele>
        <time>2021-07-20T11:19:28Z</time>
      </trkpt>
      <trkpt lat="45.5831" lon="2.84526">
        <ele>1647.1</ele>
        <time>2021-07-20T11:19:46Z</time>
      </trkpt>
      <trkpt lat="45.58313" lon="2.84527">
        <ele>1646.3</ele>
        <time>2021-07-20T11:19:50Z</time>
      </trkpt>
      <trkpt lat="45.58315" lon="2.8453">
        <ele>1646</ele>
        <time>2021-07-20T11:19:59Z</time>
      </trkpt>
      <trkpt lat="45.58319" lon="2.84535">
        <ele>1645.6</ele>
        <time>2021-07-20T11:20:12Z</time>
      </trkpt>
      <trkpt lat="45.5833" lon="2.84546">
        <ele>1643.8</ele>
        <time>2021-07-20T11:20:26Z</time>
      </trkpt>
      <trkpt lat="45.58341" lon="2.84555">
        <ele>1643.2</ele>
        <time>2021-07-20T11:20:38Z</time>
      </trkpt>
      <trkpt lat="45.58355" lon="2.84565">
        <ele>1643.2</ele>
        <time>2021-07-20T11:20:52Z</time>
      </trkpt>
      <trkpt lat="45.58367" lon="2.84572">
        <ele>1643.4</ele>
        <time>2021-07-20T11:21:05Z</time>
      </trkpt>
      <trkpt lat="45.58371" lon="2.84574">
        <ele>1643.3</ele>
        <time>2021-07-20T11:21:16Z</time>
      </trkpt>
      <trkpt lat="45.58372" lon="2.84572">
        <ele>1642.7</ele>
        <time>2021-07-20T11:21:25Z</time>
      </trkpt>
      <trkpt lat="45.58377" lon="2.84569">
        <ele>1641.5</ele>
        <time>2021-07-20T11:21:34Z</time>
      </trkpt>
      <trkpt lat="45.58394" lon="2.84564">
        <ele>1638.3</ele>
        <time>2021-07-20T11:21:50Z</time>
      </trkpt>
      <trkpt lat="45.58406" lon="2.84561">
        <ele>1635.9</ele>
        <time>2021-07-20T11:22:02Z</time>
      </trkpt>
      <trkpt lat="45.58421" lon="2.84555">
        <ele>1632.3</ele>
        <time>2021-07-20T11:22:16Z</time>
      </trkpt>
      <trkpt lat="45.5844" lon="2.84555">
        <ele>1629.7</ele>
        <time>2021-07-20T11:22:35Z</time>
      </trkpt>
      <trkpt lat="45.58441" lon="2.84556">
        <ele>1629.7</ele>
        <time>2021-07-20T11:22:36Z</time>
      </trkpt>
      <trkpt lat="45.58458" lon="2.84559">
        <ele>1628.2</ele>
        <time>2021-07-20T11:22:52Z</time>
      </trkpt>
      <trkpt lat="45.58473" lon="2.84564">
        <ele>1627</ele>
        <time>2021-07-20T11:23:06Z</time>
      </trkpt>
      <trkpt lat="45.58477" lon="2.84567">
        <ele>1627</ele>
        <time>2021-07-20T11:23:11Z</time>
      </trkpt>
      <trkpt lat="45.58481" lon="2.84568">
        <ele>1626.9</ele>
        <time>2021-07-20T11:23:16Z</time>
      </trkpt>
      <trkpt lat="45.58493" lon="2.84573">
        <ele>1625.9</ele>
        <time>2021-07-20T11:23:31Z</time>
      </trkpt>
      <trkpt lat="45.58499" lon="2.84573">
        <ele>1625</ele>
        <time>2021-07-20T11:23:41Z</time>
      </trkpt>
      <trkpt lat="45.58506" lon="2.84574">
        <ele>1623.3</ele>
        <time>2021-07-20T11:23:53Z</time>
      </trkpt>
      <trkpt lat="45.58513" lon="2.84575">
        <ele>1621.3</ele>
        <time>2021-07-20T11:24:07Z</time>
      </trkpt>
      <trkpt lat="45.5852" lon="2.84577">
        <ele>1619.3</ele>
        <time>2021-07-20T11:24:20Z</time>
      </trkpt>
      <trkpt lat="45.58528" lon="2.84583">
        <ele>1617.8</ele>
        <time>2021-07-20T11:24:33Z</time>
      </trkpt>
      <trkpt lat="45.58531" lon="2.84578">
        <ele>1615.9</ele>
        <time>2021-07-20T11:24:42Z</time>
      </trkpt>
      <trkpt lat="45.58531" lon="2.84568">
        <ele>1614</ele>
        <time>2021-07-20T11:24:53Z</time>
      </trkpt>
      <trkpt lat="45.5853" lon="2.84555">
        <ele>1612.2</ele>
        <time>2021-07-20T11:25:06Z</time>
      </trkpt>
      <trkpt lat="45.58528" lon="2.84544">
        <ele>1610.7</ele>
        <time>2021-07-20T11:25:17Z</time>
      </trkpt>
      <trkpt lat="45.58526" lon="2.84532">
        <ele>1609.3</ele>
        <time>2021-07-20T11:25:28Z</time>
      </trkpt>
      <trkpt lat="45.58524" lon="2.84524">
        <ele>1608.5</ele>
        <time>2021-07-20T11:25:40Z</time>
      </trkpt>
      <trkpt lat="45.58533" lon="2.84527">
        <ele>1606.5</ele>
        <time>2021-07-20T11:25:54Z</time>
      </trkpt>
      <trkpt lat="45.5854" lon="2.8453">
        <ele>1605.1</ele>
        <time>2021-07-20T11:26:04Z</time>
      </trkpt>
      <trkpt lat="45.58548" lon="2.84533">
        <ele>1603.4</ele>
        <time>2021-07-20T11:26:15Z</time>
      </trkpt>
      <trkpt lat="45.58549" lon="2.84528">
        <ele>1602.1</ele>
        <time>2021-07-20T11:26:25Z</time>
      </trkpt>
      <trkpt lat="45.58549" lon="2.84525">
        <ele>1601.7</ele>
        <time>2021-07-20T11:26:28Z</time>
      </trkpt>
      <trkpt lat="45.58547" lon="2.84507">
        <ele>1599.4</ele>
        <time>2021-07-20T11:26:43Z</time>
      </trkpt>
      <trkpt lat="45.58544" lon="2.84498">
        <ele>1598.2</ele>
        <time>2021-07-20T11:26:51Z</time>
      </trkpt>
      <trkpt lat="45.58542" lon="2.84496">
        <ele>1597.7</ele>
        <time>2021-07-20T11:26:54Z</time>
      </trkpt>
      <trkpt lat="45.5853" lon="2.84479">
        <ele>1593.4</ele>
        <time>2021-07-20T11:27:11Z</time>
      </trkpt>
      <trkpt lat="45.58532" lon="2.84476">
        <ele>1591.6</ele>
        <time>2021-07-20T11:27:20Z</time>
      </trkpt>
      <trkpt lat="45.58535" lon="2.84478">
        <ele>1591.8</ele>
        <time>2021-07-20T11:27:24Z</time>
      </trkpt>
      <trkpt lat="45.58551" lon="2.84482">
        <ele>1590</ele>
        <time>2021-07-20T11:27:41Z</time>
      </trkpt>
      <trkpt lat="45.58565" lon="2.84483">
        <ele>1587.3</ele>
        <time>2021-07-20T11:27:55Z</time>
      </trkpt>
      <trkpt lat="45.58566" lon="2.84483">
        <ele>1587</ele>
        <time>2021-07-20T11:27:56Z</time>
      </trkpt>
      <trkpt lat="45.5857" lon="2.84483">
        <ele>1585.9</ele>
        <time>2021-07-20T11:28:01Z</time>
      </trkpt>
      <trkpt lat="45.58572" lon="2.84484">
        <ele>1585.7</ele>
        <time>2021-07-20T11:28:03Z</time>
      </trkpt>
      <trkpt lat="45.5859" lon="2.84487">
        <ele>1582.4</ele>
        <time>2021-07-20T11:28:21Z</time>
      </trkpt>
      <trkpt lat="45.58602" lon="2.84489">
        <ele>1580</ele>
        <time>2021-07-20T11:28:35Z</time>
      </trkpt>
      <trkpt lat="45.58618" lon="2.84495">
        <ele>1578.3</ele>
        <time>2021-07-20T11:28:51Z</time>
      </trkpt>
      <trkpt lat="45.58632" lon="2.84501">
        <ele>1576.3</ele>
        <time>2021-07-20T11:29:06Z</time>
      </trkpt>
      <trkpt lat="45.58634" lon="2.84502">
        <ele>1575.9</ele>
        <time>2021-07-20T11:29:08Z</time>
      </trkpt>
      <trkpt lat="45.58647" lon="2.84507">
        <ele>1572.5</ele>
        <time>2021-07-20T11:29:23Z</time>
      </trkpt>
      <trkpt lat="45.58663" lon="2.84516">
        <ele>1568.1</ele>
        <time>2021-07-20T11:29:41Z</time>
      </trkpt>
      <trkpt lat="45.58676" lon="2.84517">
        <ele>1565.4</ele>
        <time>2021-07-20T11:29:56Z</time>
      </trkpt>
      <trkpt lat="45.58685" lon="2.84517">
        <ele>1563.4</ele>
        <time>2021-07-20T11:30:07Z</time>
      </trkpt>
      <trkpt lat="45.58698" lon="2.84516">
        <ele>1561</ele>
        <time>2021-07-20T11:30:21Z</time>
      </trkpt>
      <trkpt lat="45.58708" lon="2.84517">
        <ele>1558.8</ele>
        <time>2021-07-20T11:30:32Z</time>
      </trkpt>
      <trkpt lat="45.58716" lon="2.84516">
        <ele>1557.3</ele>
        <time>2021-07-20T11:30:40Z</time>
      </trkpt>
      <trkpt lat="45.58729" lon="2.84511">
        <ele>1555.1</ele>
        <time>2021-07-20T11:30:53Z</time>
      </trkpt>
      <trkpt lat="45.58747" lon="2.84506">
        <ele>1552</ele>
        <time>2021-07-20T11:31:10Z</time>
      </trkpt>
      <trkpt lat="45.58752" lon="2.84508">
        <ele>1551.4</ele>
        <time>2021-07-20T11:31:15Z</time>
      </trkpt>
      <trkpt lat="45.58773" lon="2.84507">
        <ele>1554.1</ele>
        <time>2021-07-20T11:31:35Z</time>
      </trkpt>
      <trkpt lat="45.58782" lon="2.84503">
        <ele>1555.9</ele>
        <time>2021-07-20T11:31:49Z</time>
      </trkpt>
      <trkpt lat="45.58789" lon="2.845">
        <ele>1557.1</ele>
        <time>2021-07-20T11:32:00Z</time>
      </trkpt>
      <trkpt lat="45.588" lon="2.84498">
        <ele>1558.2</ele>
        <time>2021-07-20T11:32:18Z</time>
      </trkpt>
      <trkpt lat="45.58807" lon="2.84496">
        <ele>1558.9</ele>
        <time>2021-07-20T11:32:33Z</time>
      </trkpt>
      <trkpt lat="45.58807" lon="2.84495">
        <ele>1558.9</ele>
        <time>2021-07-20T11:32:34Z</time>
      </trkpt>
      <trkpt lat="45.58814" lon="2.84491">
        <ele>1559.4</ele>
        <time>2021-07-20T11:32:50Z</time>
      </trkpt>
      <trkpt lat="45.58819" lon="2.8449">
        <ele>1559.9</ele>
        <time>2021-07-20T11:33:03Z</time>
      </trkpt>
      <trkpt lat="45.58825" lon="2.84488">
        <ele>1560.5</ele>
        <time>2021-07-20T11:33:17Z</time>
      </trkpt>
      <trkpt lat="45.58829" lon="2.84488">
        <ele>1561</ele>
        <time>2021-07-20T11:33:28Z</time>
      </trkpt>
      <trkpt lat="45.58834" lon="2.84484">
        <ele>1561.5</ele>
        <time>2021-07-20T11:33:42Z</time>
      </trkpt>
      <trkpt lat="45.58838" lon="2.84484">
        <ele>1562.2</ele>
        <time>2021-07-20T11:33:52Z</time>
      </trkpt>
      <trkpt lat="45.58847" lon="2.84485">
        <ele>1564.2</ele>
        <time>2021-07-20T11:34:08Z</time>
      </trkpt>
      <trkpt lat="45.58851" lon="2.84484">
        <ele>1565</ele>
        <time>2021-07-20T11:34:22Z</time>
      </trkpt>
      <trkpt lat="45.58857" lon="2.84485">
        <ele>1566.2</ele>
        <time>2021-07-20T11:34:33Z</time>
      </trkpt>
      <trkpt lat="45.58868" lon="2.84482">
        <ele>1568.1</ele>
        <time>2021-07-20T11:34:48Z</time>
      </trkpt>
      <trkpt lat="45.58875" lon="2.84482">
        <ele>1569.6</ele>
        <time>2021-07-20T11:34:59Z</time>
      </trkpt>
      <trkpt lat="45.58882" lon="2.84483">
        <ele>1571.2</ele>
        <time>2021-07-20T11:35:12Z</time>
      </trkpt>
      <trkpt lat="45.5889" lon="2.84483">
        <ele>1572.7</ele>
        <time>2021-07-20T11:35:25Z</time>
      </trkpt>
      <trkpt lat="45.58898" lon="2.84486">
        <ele>1574.7</ele>
        <time>2021-07-20T11:35:40Z</time>
      </trkpt>
      <trkpt lat="45.58906" lon="2.84486">
        <ele>1576.3</ele>
        <time>2021-07-20T11:35:53Z</time>
      </trkpt>
      <trkpt lat="45.58912" lon="2.84489">
        <ele>1577.9</ele>
        <time>2021-07-20T11:36:03Z</time>
      </trkpt>
      <trkpt lat="45.58919" lon="2.84491">
        <ele>1579.2</ele>
        <time>2021-07-20T11:36:14Z</time>
      </trkpt>
      <trkpt lat="45.5893" lon="2.84495">
        <ele>1580.1</ele>
        <time>2021-07-20T11:36:30Z</time>
      </trkpt>
      <trkpt lat="45.58943" lon="2.84498">
        <ele>1581.2</ele>
        <time>2021-07-20T11:36:46Z</time>
      </trkpt>
      <trkpt lat="45.58955" lon="2.84499">
        <ele>1582.2</ele>
        <time>2021-07-20T11:37:01Z</time>
      </trkpt>
      <trkpt lat="45.58967" lon="2.84505">
        <ele>1582.8</ele>
        <time>2021-07-20T11:37:16Z</time>
      </trkpt>
      <trkpt lat="45.58975" lon="2.84515">
        <ele>1583.3</ele>
        <time>2021-07-20T11:37:29Z</time>
      </trkpt>
      <trkpt lat="45.58979" lon="2.84522">
        <ele>1583.8</ele>
        <time>2021-07-20T11:37:38Z</time>
      </trkpt>
      <trkpt lat="45.58986" lon="2.84531">
        <ele>1585.1</ele>
        <time>2021-07-20T11:37:51Z</time>
      </trkpt>
      <trkpt lat="45.58993" lon="2.8454">
        <ele>1586.9</ele>
        <time>2021-07-20T11:38:03Z</time>
      </trkpt>
      <trkpt lat="45.59" lon="2.84548">
        <ele>1588.9</ele>
        <time>2021-07-20T11:38:15Z</time>
      </trkpt>
      <trkpt lat="45.59008" lon="2.84557">
        <ele>1590</ele>
        <time>2021-07-20T11:38:29Z</time>
      </trkpt>
      <trkpt lat="45.59016" lon="2.84566">
        <ele>1591.1</ele>
        <time>2021-07-20T11:38:42Z</time>
      </trkpt>
      <trkpt lat="45.59024" lon="2.84574">
        <ele>1592.3</ele>
        <time>2021-07-20T11:38:54Z</time>
      </trkpt>
      <trkpt lat="45.59032" lon="2.84584">
        <ele>1593.6</ele>
        <time>2021-07-20T11:39:08Z</time>
      </trkpt>
      <trkpt lat="45.59036" lon="2.84589">
        <ele>1592.9</ele>
        <time>2021-07-20T11:39:16Z</time>
      </trkpt>
      <trkpt lat="45.59043" lon="2.84596">
        <ele>1591.8</ele>
        <time>2021-07-20T11:39:30Z</time>
      </trkpt>
      <trkpt lat="45.59043" lon="2.84597">
        <ele>1591.7</ele>
        <time>2021-07-20T11:39:39Z</time>
      </trkpt>
      <trkpt lat="45.59044" lon="2.84597">
        <ele>1591.5</ele>
        <time>2021-07-20T11:39:56Z</time>
      </trkpt>
      <trkpt lat="45.59044" lon="2.84598">
        <ele>1591.5</ele>
        <time>2021-07-20T11:40:06Z</time>
      </trkpt>
      <trkpt lat="45.59046" lon="2.84597">
        <ele>1591.8</ele>
        <time>2021-07-20T11:40:26Z</time>
      </trkpt>
      <trkpt lat="45.59051" lon="2.846">
        <ele>1591.5</ele>
        <time>2021-07-20T11:40:39Z</time>
      </trkpt>
      <trkpt lat="45.59054" lon="2.84601">
        <ele>1591.6</ele>
        <time>2021-07-20T11:40:42Z</time>
      </trkpt>
      <trkpt lat="45.59067" lon="2.846">
        <ele>1592.5</ele>
        <time>2021-07-20T11:40:57Z</time>
      </trkpt>
      <trkpt lat="45.59079" lon="2.84599">
        <ele>1593.7</ele>
        <time>2021-07-20T11:41:13Z</time>
      </trkpt>
      <trkpt lat="45.59088" lon="2.84599">
        <ele>1594.6</ele>
        <time>2021-07-20T11:41:24Z</time>
      </trkpt>
      <trkpt lat="45.59102" lon="2.84597">
        <ele>1596.2</ele>
        <time>2021-07-20T11:41:40Z</time>
      </trkpt>
      <trkpt lat="45.59116" lon="2.84593">
        <ele>1598.3</ele>
        <time>2021-07-20T11:41:57Z</time>
      </trkpt>
      <trkpt lat="45.59126" lon="2.84587">
        <ele>1600.7</ele>
        <time>2021-07-20T11:42:12Z</time>
      </trkpt>
      <trkpt lat="45.59137" lon="2.84586">
        <ele>1602.3</ele>
        <time>2021-07-20T11:42:28Z</time>
      </trkpt>
      <trkpt lat="45.59149" lon="2.84585">
        <ele>1603.7</ele>
        <time>2021-07-20T11:42:42Z</time>
      </trkpt>
      <trkpt lat="45.59164" lon="2.8458">
        <ele>1605.7</ele>
        <time>2021-07-20T11:43:01Z</time>
      </trkpt>
      <trkpt lat="45.59174" lon="2.84576">
        <ele>1605.2</ele>
        <time>2021-07-20T11:43:15Z</time>
      </trkpt>
      <trkpt lat="45.59178" lon="2.84571">
        <ele>1604.7</ele>
        <time>2021-07-20T11:43:23Z</time>
      </trkpt>
      <trkpt lat="45.59179" lon="2.8457">
        <ele>1604.6</ele>
        <time>2021-07-20T11:43:27Z</time>
      </trkpt>
      <trkpt lat="45.59183" lon="2.84565">
        <ele>1604.3</ele>
        <time>2021-07-20T11:43:37Z</time>
      </trkpt>
      <trkpt lat="45.5919" lon="2.8456">
        <ele>1603.8</ele>
        <time>2021-07-20T11:43:51Z</time>
      </trkpt>
      <trkpt lat="45.59191" lon="2.84558">
        <ele>1603.8</ele>
        <time>2021-07-20T11:43:54Z</time>
      </trkpt>
      <trkpt lat="45.59193" lon="2.84546">
        <ele>1604.1</ele>
        <time>2021-07-20T11:44:09Z</time>
      </trkpt>
      <trkpt lat="45.59192" lon="2.84544">
        <ele>1604.2</ele>
        <time>2021-07-20T11:44:20Z</time>
      </trkpt>
      <trkpt lat="45.59189" lon="2.84546">
        <ele>1604.4</ele>
        <time>2021-07-20T11:44:35Z</time>
      </trkpt>
      <trkpt lat="45.59189" lon="2.84546">
        <ele>1604.4</ele>
        <time>2021-07-20T11:44:57Z</time>
      </trkpt>
      <trkpt lat="45.59192" lon="2.84545">
        <ele>1604.2</ele>
        <time>2021-07-20T11:45:11Z</time>
      </trkpt>
      <trkpt lat="45.59195" lon="2.84542">
        <ele>1604.1</ele>
        <time>2021-07-20T11:45:22Z</time>
      </trkpt>
      <trkpt lat="45.59194" lon="2.84543">
        <ele>1604.1</ele>
        <time>2021-07-20T11:45:37Z</time>
      </trkpt>
      <trkpt lat="45.59194" lon="2.84542">
        <ele>1604.2</ele>
        <time>2021-07-20T11:45:56Z</time>
      </trkpt>
      <trkpt lat="45.59194" lon="2.84541">
        <ele>1604.2</ele>
        <time>2021-07-20T11:46:03Z</time>
      </trkpt>
      <trkpt lat="45.59198" lon="2.84537">
        <ele>1604.2</ele>
        <time>2021-07-20T11:46:21Z</time>
      </trkpt>
      <trkpt lat="45.59202" lon="2.84528">
        <ele>1604.4</ele>
        <time>2021-07-20T11:46:32Z</time>
      </trkpt>
      <trkpt lat="45.59203" lon="2.84522">
        <ele>1604.8</ele>
        <time>2021-07-20T11:46:37Z</time>
      </trkpt>
      <trkpt lat="45.59205" lon="2.84513">
        <ele>1605.2</ele>
        <time>2021-07-20T11:46:45Z</time>
      </trkpt>
      <trkpt lat="45.5921" lon="2.84499">
        <ele>1606</ele>
        <time>2021-07-20T11:46:57Z</time>
      </trkpt>
      <trkpt lat="45.59215" lon="2.84488">
        <ele>1605.4</ele>
        <time>2021-07-20T11:47:09Z</time>
      </trkpt>
      <trkpt lat="45.5922" lon="2.84475">
        <ele>1605</ele>
        <time>2021-07-20T11:47:22Z</time>
      </trkpt>
      <trkpt lat="45.59224" lon="2.84469">
        <ele>1604.8</ele>
        <time>2021-07-20T11:47:31Z</time>
      </trkpt>
      <trkpt lat="45.59233" lon="2.84461">
        <ele>1604.8</ele>
        <time>2021-07-20T11:47:44Z</time>
      </trkpt>
      <trkpt lat="45.59242" lon="2.84446">
        <ele>1604.9</ele>
        <time>2021-07-20T11:48:01Z</time>
      </trkpt>
      <trkpt lat="45.59245" lon="2.84444">
        <ele>1605</ele>
        <time>2021-07-20T11:48:05Z</time>
      </trkpt>
      <trkpt lat="45.59255" lon="2.8443">
        <ele>1602.9</ele>
        <time>2021-07-20T11:48:21Z</time>
      </trkpt>
      <trkpt lat="45.59264" lon="2.84423">
        <ele>1599.5</ele>
        <time>2021-07-20T11:48:34Z</time>
      </trkpt>
      <trkpt lat="45.5927" lon="2.84417">
        <ele>1597.1</ele>
        <time>2021-07-20T11:48:47Z</time>
      </trkpt>
      <trkpt lat="45.59272" lon="2.84405">
        <ele>1593.6</ele>
        <time>2021-07-20T11:48:59Z</time>
      </trkpt>
      <trkpt lat="45.59275" lon="2.844">
        <ele>1591.4</ele>
        <time>2021-07-20T11:49:10Z</time>
      </trkpt>
      <trkpt lat="45.5928" lon="2.84399">
        <ele>1589.6</ele>
        <time>2021-07-20T11:49:21Z</time>
      </trkpt>
      <trkpt lat="45.5928" lon="2.84399">
        <ele>1589.4</ele>
        <time>2021-07-20T11:49:34Z</time>
      </trkpt>
      <trkpt lat="45.59282" lon="2.84399">
        <ele>1589</ele>
        <time>2021-07-20T11:49:48Z</time>
      </trkpt>
      <trkpt lat="45.59286" lon="2.84397">
        <ele>1587.4</ele>
        <time>2021-07-20T11:50:01Z</time>
      </trkpt>
      <trkpt lat="45.59287" lon="2.84389">
        <ele>1585.3</ele>
        <time>2021-07-20T11:50:12Z</time>
      </trkpt>
      <trkpt lat="45.59291" lon="2.84383">
        <ele>1583.4</ele>
        <time>2021-07-20T11:50:24Z</time>
      </trkpt>
      <trkpt lat="45.59296" lon="2.84378">
        <ele>1581.2</ele>
        <time>2021-07-20T11:50:37Z</time>
      </trkpt>
      <trkpt lat="45.59296" lon="2.84369">
        <ele>1579.6</ele>
        <time>2021-07-20T11:50:50Z</time>
      </trkpt>
      <trkpt lat="45.59304" lon="2.84368">
        <ele>1577.8</ele>
        <time>2021-07-20T11:51:03Z</time>
      </trkpt>
      <trkpt lat="45.59305" lon="2.84362">
        <ele>1576.9</ele>
        <time>2021-07-20T11:51:14Z</time>
      </trkpt>
      <trkpt lat="45.59303" lon="2.84354">
        <ele>1576.2</ele>
        <time>2021-07-20T11:51:27Z</time>
      </trkpt>
      <trkpt lat="45.59309" lon="2.84353">
        <ele>1574.8</ele>
        <time>2021-07-20T11:51:39Z</time>
      </trkpt>
      <trkpt lat="45.59311" lon="2.84345">
        <ele>1573.9</ele>
        <time>2021-07-20T11:51:52Z</time>
      </trkpt>
      <trkpt lat="45.59312" lon="2.84336">
        <ele>1572.8</ele>
        <time>2021-07-20T11:52:04Z</time>
      </trkpt>
      <trkpt lat="45.59315" lon="2.84327">
        <ele>1570.8</ele>
        <time>2021-07-20T11:52:15Z</time>
      </trkpt>
      <trkpt lat="45.59318" lon="2.84318">
        <ele>1568.5</ele>
        <time>2021-07-20T11:52:25Z</time>
      </trkpt>
      <trkpt lat="45.59323" lon="2.84311">
        <ele>1566.8</ele>
        <time>2021-07-20T11:52:37Z</time>
      </trkpt>
      <trkpt lat="45.59327" lon="2.84306">
        <ele>1565.5</ele>
        <time>2021-07-20T11:52:49Z</time>
      </trkpt>
      <trkpt lat="45.59332" lon="2.84299">
        <ele>1563.9</ele>
        <time>2021-07-20T11:53:01Z</time>
      </trkpt>
      <trkpt lat="45.59336" lon="2.84292">
        <ele>1561.8</ele>
        <time>2021-07-20T11:53:15Z</time>
      </trkpt>
      <trkpt lat="45.59339" lon="2.8429">
        <ele>1560.6</ele>
        <time>2021-07-20T11:53:30Z</time>
      </trkpt>
      <trkpt lat="45.59343" lon="2.84291">
        <ele>1559.4</ele>
        <time>2021-07-20T11:53:46Z</time>
      </trkpt>
      <trkpt lat="45.59348" lon="2.84282">
        <ele>1556.9</ele>
        <time>2021-07-20T11:54:01Z</time>
      </trkpt>
      <trkpt lat="45.5935" lon="2.84267">
        <ele>1554.5</ele>
        <time>2021-07-20T11:54:15Z</time>
      </trkpt>
      <trkpt lat="45.59351" lon="2.84254">
        <ele>1552.6</ele>
        <time>2021-07-20T11:54:28Z</time>
      </trkpt>
      <trkpt lat="45.59356" lon="2.8426">
        <ele>1552.2</ele>
        <time>2021-07-20T11:54:38Z</time>
      </trkpt>
      <trkpt lat="45.59358" lon="2.84264">
        <ele>1552.3</ele>
        <time>2021-07-20T11:54:42Z</time>
      </trkpt>
      <trkpt lat="45.59362" lon="2.84271">
        <ele>1552</ele>
        <time>2021-07-20T11:54:50Z</time>
      </trkpt>
      <trkpt lat="45.59372" lon="2.84279">
        <ele>1550.2</ele>
        <time>2021-07-20T11:55:05Z</time>
      </trkpt>
      <trkpt lat="45.59374" lon="2.84284">
        <ele>1549.8</ele>
        <time>2021-07-20T11:55:13Z</time>
      </trkpt>
      <trkpt lat="45.59378" lon="2.84304">
        <ele>1549.5</ele>
        <time>2021-07-20T11:55:29Z</time>
      </trkpt>
      <trkpt lat="45.59383" lon="2.84326">
        <ele>1548.5</ele>
        <time>2021-07-20T11:55:46Z</time>
      </trkpt>
      <trkpt lat="45.59384" lon="2.84331">
        <ele>1548.1</ele>
        <time>2021-07-20T11:55:50Z</time>
      </trkpt>
      <trkpt lat="45.59385" lon="2.84333">
        <ele>1547.8</ele>
        <time>2021-07-20T11:55:52Z</time>
      </trkpt>
      <trkpt lat="45.59386" lon="2.84355">
        <ele>1545.7</ele>
        <time>2021-07-20T11:56:06Z</time>
      </trkpt>
      <trkpt lat="45.59387" lon="2.84372">
        <ele>1544.7</ele>
        <time>2021-07-20T11:56:19Z</time>
      </trkpt>
      <trkpt lat="45.59388" lon="2.84387">
        <ele>1542.9</ele>
        <time>2021-07-20T11:56:31Z</time>
      </trkpt>
      <trkpt lat="45.59388" lon="2.84406">
        <ele>1542.1</ele>
        <time>2021-07-20T11:56:46Z</time>
      </trkpt>
      <trkpt lat="45.59386" lon="2.84422">
        <ele>1541.9</ele>
        <time>2021-07-20T11:56:58Z</time>
      </trkpt>
      <trkpt lat="45.59386" lon="2.84441">
        <ele>1539.2</ele>
        <time>2021-07-20T11:57:12Z</time>
      </trkpt>
      <trkpt lat="45.59386" lon="2.84455">
        <ele>1537.7</ele>
        <time>2021-07-20T11:57:24Z</time>
      </trkpt>
      <trkpt lat="45.59383" lon="2.84477">
        <ele>1536.4</ele>
        <time>2021-07-20T11:57:41Z</time>
      </trkpt>
      <trkpt lat="45.59386" lon="2.84491">
        <ele>1533.1</ele>
        <time>2021-07-20T11:57:53Z</time>
      </trkpt>
      <trkpt lat="45.59388" lon="2.84489">
        <ele>1532.3</ele>
        <time>2021-07-20T11:57:56Z</time>
      </trkpt>
      <trkpt lat="45.59394" lon="2.84476">
        <ele>1530.6</ele>
        <time>2021-07-20T11:58:07Z</time>
      </trkpt>
      <trkpt lat="45.59397" lon="2.84464">
        <ele>1530.5</ele>
        <time>2021-07-20T11:58:18Z</time>
      </trkpt>
      <trkpt lat="45.59401" lon="2.84465">
        <ele>1527.8</ele>
        <time>2021-07-20T11:58:29Z</time>
      </trkpt>
      <trkpt lat="45.59407" lon="2.84454">
        <ele>1525.8</ele>
        <time>2021-07-20T11:58:41Z</time>
      </trkpt>
      <trkpt lat="45.59408" lon="2.84453">
        <ele>1525.6</ele>
        <time>2021-07-20T11:58:42Z</time>
      </trkpt>
      <trkpt lat="45.59412" lon="2.8444">
        <ele>1524.6</ele>
        <time>2021-07-20T11:58:54Z</time>
      </trkpt>
      <trkpt lat="45.59416" lon="2.84434">
        <ele>1523.4</ele>
        <time>2021-07-20T11:59:06Z</time>
      </trkpt>
      <trkpt lat="45.59417" lon="2.84432">
        <ele>1522.9</ele>
        <time>2021-07-20T11:59:30Z</time>
      </trkpt>
      <trkpt lat="45.59418" lon="2.84432">
        <ele>1522.8</ele>
        <time>2021-07-20T11:59:53Z</time>
      </trkpt>
      <trkpt lat="45.59418" lon="2.84432">
        <ele>1522.6</ele>
        <time>2021-07-20T12:00:10Z</time>
      </trkpt>
      <trkpt lat="45.59421" lon="2.84425">
        <ele>1521.8</ele>
        <time>2021-07-20T12:00:27Z</time>
      </trkpt>
      <trkpt lat="45.59424" lon="2.84419">
        <ele>1520.8</ele>
        <time>2021-07-20T12:00:37Z</time>
      </trkpt>
      <trkpt lat="45.59426" lon="2.84415">
        <ele>1520.3</ele>
        <time>2021-07-20T12:00:49Z</time>
      </trkpt>
      <trkpt lat="45.59433" lon="2.84401">
        <ele>1518.7</ele>
        <time>2021-07-20T12:01:02Z</time>
      </trkpt>
      <trkpt lat="45.59438" lon="2.84388">
        <ele>1517.5</ele>
        <time>2021-07-20T12:01:14Z</time>
      </trkpt>
      <trkpt lat="45.5944" lon="2.84386">
        <ele>1517.2</ele>
        <time>2021-07-20T12:01:16Z</time>
      </trkpt>
      <trkpt lat="45.59441" lon="2.84383">
        <ele>1516.6</ele>
        <time>2021-07-20T12:01:19Z</time>
      </trkpt>
      <trkpt lat="45.5945" lon="2.84372">
        <ele>1513.9</ele>
        <time>2021-07-20T12:01:34Z</time>
      </trkpt>
      <trkpt lat="45.5945" lon="2.84386">
        <ele>1512.1</ele>
        <time>2021-07-20T12:01:45Z</time>
      </trkpt>
      <trkpt lat="45.5945" lon="2.84387">
        <ele>1511.9</ele>
        <time>2021-07-20T12:01:46Z</time>
      </trkpt>
      <trkpt lat="45.59452" lon="2.84405">
        <ele>1508.6</ele>
        <time>2021-07-20T12:02:00Z</time>
      </trkpt>
      <trkpt lat="45.59454" lon="2.8442">
        <ele>1506</ele>
        <time>2021-07-20T12:02:12Z</time>
      </trkpt>
      <trkpt lat="45.59454" lon="2.84436">
        <ele>1503.8</ele>
        <time>2021-07-20T12:02:25Z</time>
      </trkpt>
      <trkpt lat="45.59454" lon="2.84453">
        <ele>1501.7</ele>
        <time>2021-07-20T12:02:38Z</time>
      </trkpt>
      <trkpt lat="45.59455" lon="2.8447">
        <ele>1499.2</ele>
        <time>2021-07-20T12:02:52Z</time>
      </trkpt>
      <trkpt lat="45.59455" lon="2.84489">
        <ele>1496.9</ele>
        <time>2021-07-20T12:03:05Z</time>
      </trkpt>
      <trkpt lat="45.59454" lon="2.84506">
        <ele>1494.9</ele>
        <time>2021-07-20T12:03:17Z</time>
      </trkpt>
      <trkpt lat="45.59455" lon="2.84519">
        <ele>1492.3</ele>
        <time>2021-07-20T12:03:28Z</time>
      </trkpt>
      <trkpt lat="45.59455" lon="2.84529">
        <ele>1490.7</ele>
        <time>2021-07-20T12:03:39Z</time>
      </trkpt>
      <trkpt lat="45.59457" lon="2.84546">
        <ele>1487.6</ele>
        <time>2021-07-20T12:03:53Z</time>
      </trkpt>
      <trkpt lat="45.59457" lon="2.84561">
        <ele>1485.5</ele>
        <time>2021-07-20T12:04:06Z</time>
      </trkpt>
      <trkpt lat="45.59457" lon="2.84565">
        <ele>1485</ele>
        <time>2021-07-20T12:04:09Z</time>
      </trkpt>
      <trkpt lat="45.59451" lon="2.84588">
        <ele>1484.5</ele>
        <time>2021-07-20T12:04:25Z</time>
      </trkpt>
      <trkpt lat="45.5945" lon="2.84606">
        <ele>1483.4</ele>
        <time>2021-07-20T12:04:39Z</time>
      </trkpt>
      <trkpt lat="45.5945" lon="2.84625">
        <ele>1481.3</ele>
        <time>2021-07-20T12:04:52Z</time>
      </trkpt>
      <trkpt lat="45.5945" lon="2.84626">
        <ele>1481.1</ele>
        <time>2021-07-20T12:04:53Z</time>
      </trkpt>
      <trkpt lat="45.59448" lon="2.84637">
        <ele>1481.2</ele>
        <time>2021-07-20T12:05:01Z</time>
      </trkpt>
      <trkpt lat="45.59452" lon="2.84657">
        <ele>1477.5</ele>
        <time>2021-07-20T12:05:16Z</time>
      </trkpt>
      <trkpt lat="45.59452" lon="2.84672">
        <ele>1475.6</ele>
        <time>2021-07-20T12:05:29Z</time>
      </trkpt>
      <trkpt lat="45.59452" lon="2.84673">
        <ele>1475.5</ele>
        <time>2021-07-20T12:05:30Z</time>
      </trkpt>
      <trkpt lat="45.59453" lon="2.84692">
        <ele>1473.6</ele>
        <time>2021-07-20T12:05:44Z</time>
      </trkpt>
      <trkpt lat="45.59455" lon="2.84708">
        <ele>1471.2</ele>
        <time>2021-07-20T12:05:56Z</time>
      </trkpt>
      <trkpt lat="45.59454" lon="2.8472">
        <ele>1470.5</ele>
        <time>2021-07-20T12:06:07Z</time>
      </trkpt>
      <trkpt lat="45.59457" lon="2.84726">
        <ele>1468.3</ele>
        <time>2021-07-20T12:06:16Z</time>
      </trkpt>
      <trkpt lat="45.59458" lon="2.84726">
        <ele>1468.1</ele>
        <time>2021-07-20T12:06:17Z</time>
      </trkpt>
      <trkpt lat="45.59463" lon="2.84723">
        <ele>1465.9</ele>
        <time>2021-07-20T12:06:28Z</time>
      </trkpt>
      <trkpt lat="45.59469" lon="2.84719">
        <ele>1463.6</ele>
        <time>2021-07-20T12:06:39Z</time>
      </trkpt>
      <trkpt lat="45.59478" lon="2.84714">
        <ele>1460.2</ele>
        <time>2021-07-20T12:06:52Z</time>
      </trkpt>
      <trkpt lat="45.59483" lon="2.84711">
        <ele>1458.3</ele>
        <time>2021-07-20T12:07:03Z</time>
      </trkpt>
      <trkpt lat="45.59485" lon="2.84708">
        <ele>1457.6</ele>
        <time>2021-07-20T12:07:14Z</time>
      </trkpt>
      <trkpt lat="45.59488" lon="2.84708">
        <ele>1456.4</ele>
        <time>2021-07-20T12:07:24Z</time>
      </trkpt>
      <trkpt lat="45.59493" lon="2.84704">
        <ele>1454.6</ele>
        <time>2021-07-20T12:07:41Z</time>
      </trkpt>
      <trkpt lat="45.595" lon="2.84698">
        <ele>1452.1</ele>
        <time>2021-07-20T12:07:52Z</time>
      </trkpt>
      <trkpt lat="45.59509" lon="2.84695">
        <ele>1449.6</ele>
        <time>2021-07-20T12:08:05Z</time>
      </trkpt>
      <trkpt lat="45.59512" lon="2.84706">
        <ele>1447.8</ele>
        <time>2021-07-20T12:08:16Z</time>
      </trkpt>
      <trkpt lat="45.59515" lon="2.84718">
        <ele>1445.6</ele>
        <time>2021-07-20T12:08:28Z</time>
      </trkpt>
      <trkpt lat="45.59519" lon="2.84731">
        <ele>1443.2</ele>
        <time>2021-07-20T12:08:42Z</time>
      </trkpt>
      <trkpt lat="45.59523" lon="2.84744">
        <ele>1440.8</ele>
        <time>2021-07-20T12:08:55Z</time>
      </trkpt>
      <trkpt lat="45.59528" lon="2.84758">
        <ele>1438</ele>
        <time>2021-07-20T12:09:09Z</time>
      </trkpt>
      <trkpt lat="45.59536" lon="2.84773">
        <ele>1434.7</ele>
        <time>2021-07-20T12:09:23Z</time>
      </trkpt>
      <trkpt lat="45.59541" lon="2.84788">
        <ele>1432.2</ele>
        <time>2021-07-20T12:09:37Z</time>
      </trkpt>
      <trkpt lat="45.59543" lon="2.84792">
        <ele>1431.4</ele>
        <time>2021-07-20T12:09:47Z</time>
      </trkpt>
      <trkpt lat="45.59546" lon="2.84799">
        <ele>1430.1</ele>
        <time>2021-07-20T12:09:58Z</time>
      </trkpt>
      <trkpt lat="45.5955" lon="2.84812">
        <ele>1428.2</ele>
        <time>2021-07-20T12:10:10Z</time>
      </trkpt>
      <trkpt lat="45.59553" lon="2.8483">
        <ele>1426.2</ele>
        <time>2021-07-20T12:10:24Z</time>
      </trkpt>
      <trkpt lat="45.59558" lon="2.84842">
        <ele>1424</ele>
        <time>2021-07-20T12:10:39Z</time>
      </trkpt>
      <trkpt lat="45.59563" lon="2.84854">
        <ele>1421.4</ele>
        <time>2021-07-20T12:10:53Z</time>
      </trkpt>
      <trkpt lat="45.59569" lon="2.84867">
        <ele>1418.6</ele>
        <time>2021-07-20T12:11:07Z</time>
      </trkpt>
      <trkpt lat="45.59576" lon="2.8488">
        <ele>1415.5</ele>
        <time>2021-07-20T12:11:22Z</time>
      </trkpt>
      <trkpt lat="45.59581" lon="2.84894">
        <ele>1412.7</ele>
        <time>2021-07-20T12:11:36Z</time>
      </trkpt>
      <trkpt lat="45.59587" lon="2.84906">
        <ele>1410.6</ele>
        <time>2021-07-20T12:11:48Z</time>
      </trkpt>
      <trkpt lat="45.59595" lon="2.84914">
        <ele>1408.8</ele>
        <time>2021-07-20T12:12:03Z</time>
      </trkpt>
      <trkpt lat="45.59597" lon="2.84916">
        <ele>1408.5</ele>
        <time>2021-07-20T12:12:05Z</time>
      </trkpt>
      <trkpt lat="45.59606" lon="2.84928">
        <ele>1406.2</ele>
        <time>2021-07-20T12:12:19Z</time>
      </trkpt>
      <trkpt lat="45.59617" lon="2.84938">
        <ele>1404.3</ele>
        <time>2021-07-20T12:12:33Z</time>
      </trkpt>
      <trkpt lat="45.59624" lon="2.84947">
        <ele>1403.1</ele>
        <time>2021-07-20T12:12:42Z</time>
      </trkpt>
      <trkpt lat="45.59637" lon="2.84964">
        <ele>1401.2</ele>
        <time>2021-07-20T12:12:59Z</time>
      </trkpt>
      <trkpt lat="45.59646" lon="2.8498">
        <ele>1400</ele>
        <time>2021-07-20T12:13:15Z</time>
      </trkpt>
      <trkpt lat="45.59657" lon="2.85">
        <ele>1399.1</ele>
        <time>2021-07-20T12:13:34Z</time>
      </trkpt>
      <trkpt lat="45.59662" lon="2.85007">
        <ele>1399.1</ele>
        <time>2021-07-20T12:13:47Z</time>
      </trkpt>
      <trkpt lat="45.59664" lon="2.85013">
        <ele>1399.2</ele>
        <time>2021-07-20T12:13:57Z</time>
      </trkpt>
      <trkpt lat="45.59665" lon="2.85013">
        <ele>1399.2</ele>
        <time>2021-07-20T12:14:14Z</time>
      </trkpt>
      <trkpt lat="45.59668" lon="2.85018">
        <ele>1399.2</ele>
        <time>2021-07-20T12:14:30Z</time>
      </trkpt>
      <trkpt lat="45.5967" lon="2.85022">
        <ele>1399.1</ele>
        <time>2021-07-20T12:14:47Z</time>
      </trkpt>
      <trkpt lat="45.59671" lon="2.85023">
        <ele>1399.1</ele>
        <time>2021-07-20T12:14:49Z</time>
      </trkpt>
      <trkpt lat="45.59683" lon="2.85021">
        <ele>1398.5</ele>
        <time>2021-07-20T12:15:04Z</time>
      </trkpt>
      <trkpt lat="45.59697" lon="2.85016">
        <ele>1397.7</ele>
        <time>2021-07-20T12:15:18Z</time>
      </trkpt>
      <trkpt lat="45.59711" lon="2.85011">
        <ele>1396.8</ele>
        <time>2021-07-20T12:15:31Z</time>
      </trkpt>
      <trkpt lat="45.59727" lon="2.85003">
        <ele>1395.5</ele>
        <time>2021-07-20T12:15:45Z</time>
      </trkpt>
      <trkpt lat="45.59734" lon="2.85">
        <ele>1394.9</ele>
        <time>2021-07-20T12:15:53Z</time>
      </trkpt>
      <trkpt lat="45.59745" lon="2.84996">
        <ele>1394.2</ele>
        <time>2021-07-20T12:16:06Z</time>
      </trkpt>
      <trkpt lat="45.59746" lon="2.84995">
        <ele>1394.1</ele>
        <time>2021-07-20T12:16:08Z</time>
      </trkpt>
      <trkpt lat="45.59748" lon="2.84988">
        <ele>1393.7</ele>
        <time>2021-07-20T12:16:13Z</time>
      </trkpt>
      <trkpt lat="45.59758" lon="2.84967">
        <ele>1392.4</ele>
        <time>2021-07-20T12:16:27Z</time>
      </trkpt>
      <trkpt lat="45.59766" lon="2.84948">
        <ele>1391.2</ele>
        <time>2021-07-20T12:16:41Z</time>
      </trkpt>
      <trkpt lat="45.59767" lon="2.84944">
        <ele>1391</ele>
        <time>2021-07-20T12:16:44Z</time>
      </trkpt>
      <trkpt lat="45.59773" lon="2.84931">
        <ele>1390</ele>
        <time>2021-07-20T12:16:56Z</time>
      </trkpt>
      <trkpt lat="45.59781" lon="2.84911">
        <ele>1388.6</ele>
        <time>2021-07-20T12:17:11Z</time>
      </trkpt>
      <trkpt lat="45.59791" lon="2.84889">
        <ele>1387.4</ele>
        <time>2021-07-20T12:17:27Z</time>
      </trkpt>
      <trkpt lat="45.59801" lon="2.84861">
        <ele>1386</ele>
        <time>2021-07-20T12:17:46Z</time>
      </trkpt>
      <trkpt lat="45.59811" lon="2.84837">
        <ele>1384.7</ele>
        <time>2021-07-20T12:18:02Z</time>
      </trkpt>
      <trkpt lat="45.59821" lon="2.84807">
        <ele>1382.6</ele>
        <time>2021-07-20T12:18:21Z</time>
      </trkpt>
      <trkpt lat="45.5983" lon="2.84785">
        <ele>1380.4</ele>
        <time>2021-07-20T12:18:36Z</time>
      </trkpt>
      <trkpt lat="45.59842" lon="2.84755">
        <ele>1377.4</ele>
        <time>2021-07-20T12:18:56Z</time>
      </trkpt>
      <trkpt lat="45.59855" lon="2.84724">
        <ele>1375.4</ele>
        <time>2021-07-20T12:19:17Z</time>
      </trkpt>
      <trkpt lat="45.59865" lon="2.84697">
        <ele>1374.2</ele>
        <time>2021-07-20T12:19:34Z</time>
      </trkpt>
      <trkpt lat="45.59877" lon="2.84674">
        <ele>1372.9</ele>
        <time>2021-07-20T12:19:50Z</time>
      </trkpt>
      <trkpt lat="45.59886" lon="2.8465">
        <ele>1371.9</ele>
        <time>2021-07-20T12:20:06Z</time>
      </trkpt>
      <trkpt lat="45.59895" lon="2.84623">
        <ele>1370.8</ele>
        <time>2021-07-20T12:20:23Z</time>
      </trkpt>
      <trkpt lat="45.59906" lon="2.84597">
        <ele>1369.5</ele>
        <time>2021-07-20T12:20:40Z</time>
      </trkpt>
      <trkpt lat="45.59917" lon="2.84568">
        <ele>1367.6</ele>
        <time>2021-07-20T12:20:59Z</time>
      </trkpt>
      <trkpt lat="45.59927" lon="2.84544">
        <ele>1365.8</ele>
        <time>2021-07-20T12:21:15Z</time>
      </trkpt>
      <trkpt lat="45.59935" lon="2.84522">
        <ele>1364.1</ele>
        <time>2021-07-20T12:21:30Z</time>
      </trkpt>
      <trkpt lat="45.59944" lon="2.84501">
        <ele>1362.4</ele>
        <time>2021-07-20T12:21:45Z</time>
      </trkpt>
      <trkpt lat="45.59951" lon="2.84504">
        <ele>1361.6</ele>
        <time>2021-07-20T12:21:52Z</time>
      </trkpt>
      <trkpt lat="45.59959" lon="2.8453">
        <ele>1361.3</ele>
        <time>2021-07-20T12:22:10Z</time>
      </trkpt>
      <trkpt lat="45.59961" lon="2.84534">
        <ele>1361.2</ele>
        <time>2021-07-20T12:22:22Z</time>
      </trkpt>
      <trkpt lat="45.59961" lon="2.84533">
        <ele>1361.1</ele>
        <time>2021-07-20T12:22:31Z</time>
      </trkpt>
      <trkpt lat="45.59964" lon="2.84532">
        <ele>1360.7</ele>
        <time>2021-07-20T12:22:42Z</time>
      </trkpt>
      <trkpt lat="45.59968" lon="2.84527">
        <ele>1360.1</ele>
        <time>2021-07-20T12:22:47Z</time>
      </trkpt>
      <trkpt lat="45.59975" lon="2.84517">
        <ele>1358.8</ele>
        <time>2021-07-20T12:23:01Z</time>
      </trkpt>
      <trkpt lat="45.59977" lon="2.84516">
        <ele>1358.6</ele>
        <time>2021-07-20T12:23:15Z</time>
      </trkpt>
      <trkpt lat="45.59977" lon="2.84516">
        <ele>1358.6</ele>
        <time>2021-07-20T12:23:35Z</time>
      </trkpt>
      <trkpt lat="45.59977" lon="2.84517">
        <ele>1358.5</ele>
        <time>2021-07-20T12:24:02Z</time>
      </trkpt>
      <trkpt lat="45.59977" lon="2.84517">
        <ele>1358.6</ele>
        <time>2021-07-20T12:24:28Z</time>
      </trkpt>
      <trkpt lat="45.59977" lon="2.84517">
        <ele>1358.6</ele>
        <time>2021-07-20T12:24:51Z</time>
      </trkpt>
      <trkpt lat="45.59976" lon="2.84519">
        <ele>1358.8</ele>
        <time>2021-07-20T12:25:05Z</time>
      </trkpt>
      <trkpt lat="45.59976" lon="2.84519">
        <ele>1358.8</ele>
        <time>2021-07-20T12:25:20Z</time>
      </trkpt>
      <trkpt lat="45.59975" lon="2.84519">
        <ele>1358.9</ele>
        <time>2021-07-20T12:25:52Z</time>
      </trkpt>
      <trkpt lat="45.59975" lon="2.84517">
        <ele>1358.8</ele>
        <time>2021-07-20T12:26:09Z</time>
      </trkpt>
      <trkpt lat="45.59977" lon="2.84516">
        <ele>1358.6</ele>
        <time>2021-07-20T12:26:23Z</time>
      </trkpt>
      <trkpt lat="45.59976" lon="2.84518">
        <ele>1358.7</ele>
        <time>2021-07-20T12:26:44Z</time>
      </trkpt>
      <trkpt lat="45.59977" lon="2.84517">
        <ele>1358.6</ele>
        <time>2021-07-20T12:27:02Z</time>
      </trkpt>
      <trkpt lat="45.59976" lon="2.84517">
        <ele>1358.7</ele>
        <time>2021-07-20T12:27:24Z</time>
      </trkpt>
      <trkpt lat="45.59976" lon="2.84516">
        <ele>1358.6</ele>
        <time>2021-07-20T12:27:53Z</time>
      </trkpt>
      <trkpt lat="45.59976" lon="2.84515">
        <ele>1358.6</ele>
        <time>2021-07-20T12:28:19Z</time>
      </trkpt>
      <trkpt lat="45.59976" lon="2.84516">
        <ele>1358.6</ele>
        <time>2021-07-20T12:28:40Z</time>
      </trkpt>
      <trkpt lat="45.59978" lon="2.84514">
        <ele>1358.3</ele>
        <time>2021-07-20T12:29:05Z</time>
      </trkpt>
      <trkpt lat="45.59986" lon="2.84504">
        <ele>1357</ele>
        <time>2021-07-20T12:29:15Z</time>
      </trkpt>
      <trkpt lat="45.5999" lon="2.84499">
        <ele>1356.3</ele>
        <time>2021-07-20T12:29:22Z</time>
      </trkpt>
      <trkpt lat="45.59994" lon="2.84493">
        <ele>1355.7</ele>
        <time>2021-07-20T12:29:29Z</time>
      </trkpt>
      <trkpt lat="45.60008" lon="2.84473">
        <ele>1353.9</ele>
        <time>2021-07-20T12:29:47Z</time>
      </trkpt>
      <trkpt lat="45.60018" lon="2.84459">
        <ele>1352.5</ele>
        <time>2021-07-20T12:30:00Z</time>
      </trkpt>
      <trkpt lat="45.60028" lon="2.84444">
        <ele>1351</ele>
        <time>2021-07-20T12:30:14Z</time>
      </trkpt>
      <trkpt lat="45.60032" lon="2.84423">
        <ele>1349.9</ele>
        <time>2021-07-20T12:30:29Z</time>
      </trkpt>
      <trkpt lat="45.60035" lon="2.84415">
        <ele>1349.3</ele>
        <time>2021-07-20T12:30:36Z</time>
      </trkpt>
      <trkpt lat="45.60039" lon="2.84405">
        <ele>1348.6</ele>
        <time>2021-07-20T12:30:44Z</time>
      </trkpt>
      <trkpt lat="45.60043" lon="2.84399">
        <ele>1347.9</ele>
        <time>2021-07-20T12:30:56Z</time>
      </trkpt>
      <trkpt lat="45.60051" lon="2.84388">
        <ele>1346.4</ele>
        <time>2021-07-20T12:31:08Z</time>
      </trkpt>
      <trkpt lat="45.60057" lon="2.84374">
        <ele>1345.1</ele>
        <time>2021-07-20T12:31:19Z</time>
      </trkpt>
      <trkpt lat="45.60058" lon="2.8436">
        <ele>1344.4</ele>
        <time>2021-07-20T12:31:32Z</time>
      </trkpt>
      <trkpt lat="45.6006" lon="2.84356">
        <ele>1343.9</ele>
        <time>2021-07-20T12:31:46Z</time>
      </trkpt>
      <trkpt lat="45.6006" lon="2.84356">
        <ele>1344</ele>
        <time>2021-07-20T12:32:07Z</time>
      </trkpt>
      <trkpt lat="45.6006" lon="2.84346">
        <ele>1343.6</ele>
        <time>2021-07-20T12:32:19Z</time>
      </trkpt>
      <trkpt lat="45.6006" lon="2.84324">
        <ele>1342.9</ele>
        <time>2021-07-20T12:32:36Z</time>
      </trkpt>
      <trkpt lat="45.60055" lon="2.84303">
        <ele>1343.1</ele>
        <time>2021-07-20T12:32:52Z</time>
      </trkpt>
      <trkpt lat="45.60049" lon="2.84293">
        <ele>1344</ele>
        <time>2021-07-20T12:33:04Z</time>
      </trkpt>
      <trkpt lat="45.60051" lon="2.84285">
        <ele>1343.5</ele>
        <time>2021-07-20T12:33:14Z</time>
      </trkpt>
      <trkpt lat="45.60056" lon="2.84282">
        <ele>1342.2</ele>
        <time>2021-07-20T12:33:26Z</time>
      </trkpt>
      <trkpt lat="45.60063" lon="2.84272">
        <ele>1340.5</ele>
        <time>2021-07-20T12:33:40Z</time>
      </trkpt>
      <trkpt lat="45.60067" lon="2.84259">
        <ele>1339</ele>
        <time>2021-07-20T12:33:53Z</time>
      </trkpt>
      <trkpt lat="45.60073" lon="2.84242">
        <ele>1336.9</ele>
        <time>2021-07-20T12:34:09Z</time>
      </trkpt>
      <trkpt lat="45.60077" lon="2.84222">
        <ele>1335</ele>
        <time>2021-07-20T12:34:23Z</time>
      </trkpt>
      <trkpt lat="45.6008" lon="2.84199">
        <ele>1332.7</ele>
        <time>2021-07-20T12:34:37Z</time>
      </trkpt>
      <trkpt lat="45.60082" lon="2.84178">
        <ele>1331</ele>
        <time>2021-07-20T12:34:51Z</time>
      </trkpt>
      <trkpt lat="45.60085" lon="2.84152">
        <ele>1328.8</ele>
        <time>2021-07-20T12:35:07Z</time>
      </trkpt>
      <trkpt lat="45.60086" lon="2.84138">
        <ele>1327.8</ele>
        <time>2021-07-20T12:35:19Z</time>
      </trkpt>
      <trkpt lat="45.60085" lon="2.84121">
        <ele>1327</ele>
        <time>2021-07-20T12:35:32Z</time>
      </trkpt>
      <trkpt lat="45.60082" lon="2.84099">
        <ele>1326.3</ele>
        <time>2021-07-20T12:35:45Z</time>
      </trkpt>
      <trkpt lat="45.60086" lon="2.84076">
        <ele>1324</ele>
        <time>2021-07-20T12:36:00Z</time>
      </trkpt>
      <trkpt lat="45.60088" lon="2.84057">
        <ele>1322.2</ele>
        <time>2021-07-20T12:36:12Z</time>
      </trkpt>
      <trkpt lat="45.60085" lon="2.84039">
        <ele>1321</ele>
        <time>2021-07-20T12:36:25Z</time>
      </trkpt>
      <trkpt lat="45.60085" lon="2.84029">
        <ele>1320.2</ele>
        <time>2021-07-20T12:36:30Z</time>
      </trkpt>
      <trkpt lat="45.60081" lon="2.84012">
        <ele>1319.6</ele>
        <time>2021-07-20T12:36:41Z</time>
      </trkpt>
      <trkpt lat="45.6008" lon="2.83991">
        <ele>1317.9</ele>
        <time>2021-07-20T12:36:55Z</time>
      </trkpt>
      <trkpt lat="45.60076" lon="2.83974">
        <ele>1317</ele>
        <time>2021-07-20T12:37:07Z</time>
      </trkpt>
      <trkpt lat="45.60072" lon="2.83961">
        <ele>1316.5</ele>
        <time>2021-07-20T12:37:16Z</time>
      </trkpt>
      <trkpt lat="45.60068" lon="2.83939">
        <ele>1314.7</ele>
        <time>2021-07-20T12:37:30Z</time>
      </trkpt>
      <trkpt lat="45.60067" lon="2.83917">
        <ele>1312.4</ele>
        <time>2021-07-20T12:37:44Z</time>
      </trkpt>
      <trkpt lat="45.60068" lon="2.83902">
        <ele>1310.8</ele>
        <time>2021-07-20T12:37:54Z</time>
      </trkpt>
      <trkpt lat="45.60068" lon="2.83878">
        <ele>1308.5</ele>
        <time>2021-07-20T12:38:08Z</time>
      </trkpt>
      <trkpt lat="45.60066" lon="2.8386">
        <ele>1307.4</ele>
        <time>2021-07-20T12:38:20Z</time>
      </trkpt>
      <trkpt lat="45.60061" lon="2.83842">
        <ele>1306.6</ele>
        <time>2021-07-20T12:38:34Z</time>
      </trkpt>
      <trkpt lat="45.60061" lon="2.8384">
        <ele>1306.5</ele>
        <time>2021-07-20T12:38:35Z</time>
      </trkpt>
      <trkpt lat="45.60057" lon="2.83824">
        <ele>1305.5</ele>
        <time>2021-07-20T12:38:46Z</time>
      </trkpt>
      <trkpt lat="45.60048" lon="2.83803">
        <ele>1304.9</ele>
        <time>2021-07-20T12:39:02Z</time>
      </trkpt>
      <trkpt lat="45.60043" lon="2.8378">
        <ele>1303.3</ele>
        <time>2021-07-20T12:39:17Z</time>
      </trkpt>
      <trkpt lat="45.60041" lon="2.83763">
        <ele>1301.9</ele>
        <time>2021-07-20T12:39:29Z</time>
      </trkpt>
      <trkpt lat="45.60041" lon="2.83747">
        <ele>1300.3</ele>
        <time>2021-07-20T12:39:39Z</time>
      </trkpt>
      <trkpt lat="45.60041" lon="2.8373">
        <ele>1298.5</ele>
        <time>2021-07-20T12:39:50Z</time>
      </trkpt>
      <trkpt lat="45.60039" lon="2.83703">
        <ele>1296.1</ele>
        <time>2021-07-20T12:40:06Z</time>
      </trkpt>
      <trkpt lat="45.60033" lon="2.83681">
        <ele>1294.7</ele>
        <time>2021-07-20T12:40:22Z</time>
      </trkpt>
      <trkpt lat="45.60029" lon="2.83664">
        <ele>1293.6</ele>
        <time>2021-07-20T12:40:33Z</time>
      </trkpt>
      <trkpt lat="45.6002" lon="2.83646">
        <ele>1292.7</ele>
        <time>2021-07-20T12:40:45Z</time>
      </trkpt>
      <trkpt lat="45.60013" lon="2.83624">
        <ele>1291.2</ele>
        <time>2021-07-20T12:41:00Z</time>
      </trkpt>
      <trkpt lat="45.60005" lon="2.83601">
        <ele>1289.6</ele>
        <time>2021-07-20T12:41:14Z</time>
      </trkpt>
      <trkpt lat="45.59996" lon="2.8358">
        <ele>1288.2</ele>
        <time>2021-07-20T12:41:30Z</time>
      </trkpt>
      <trkpt lat="45.59988" lon="2.83554">
        <ele>1286.8</ele>
        <time>2021-07-20T12:41:48Z</time>
      </trkpt>
      <trkpt lat="45.59981" lon="2.83527">
        <ele>1284.7</ele>
        <time>2021-07-20T12:42:03Z</time>
      </trkpt>
      <trkpt lat="45.59972" lon="2.83505">
        <ele>1283.4</ele>
        <time>2021-07-20T12:42:17Z</time>
      </trkpt>
      <trkpt lat="45.59967" lon="2.83485">
        <ele>1282.1</ele>
        <time>2021-07-20T12:42:30Z</time>
      </trkpt>
      <trkpt lat="45.59962" lon="2.83465">
        <ele>1280.8</ele>
        <time>2021-07-20T12:42:44Z</time>
      </trkpt>
      <trkpt lat="45.59954" lon="2.83444">
        <ele>1279.9</ele>
        <time>2021-07-20T12:42:56Z</time>
      </trkpt>
      <trkpt lat="45.5995" lon="2.83428">
        <ele>1279</ele>
        <time>2021-07-20T12:43:06Z</time>
      </trkpt>
      <trkpt lat="45.59941" lon="2.83402">
        <ele>1277</ele>
        <time>2021-07-20T12:43:18Z</time>
      </trkpt>
      <trkpt lat="45.59935" lon="2.83384">
        <ele>1275.1</ele>
        <time>2021-07-20T12:43:29Z</time>
      </trkpt>
      <trkpt lat="45.59923" lon="2.8336">
        <ele>1272.6</ele>
        <time>2021-07-20T12:43:43Z</time>
      </trkpt>
      <trkpt lat="45.59915" lon="2.83338">
        <ele>1270</ele>
        <time>2021-07-20T12:43:57Z</time>
      </trkpt>
      <trkpt lat="45.59905" lon="2.83313">
        <ele>1268.5</ele>
        <time>2021-07-20T12:44:14Z</time>
      </trkpt>
      <trkpt lat="45.59897" lon="2.83289">
        <ele>1267</ele>
        <time>2021-07-20T12:44:31Z</time>
      </trkpt>
      <trkpt lat="45.59888" lon="2.83267">
        <ele>1265.4</ele>
        <time>2021-07-20T12:44:46Z</time>
      </trkpt>
      <trkpt lat="45.59879" lon="2.83243">
        <ele>1263.5</ele>
        <time>2021-07-20T12:45:03Z</time>
      </trkpt>
      <trkpt lat="45.59871" lon="2.83222">
        <ele>1261.5</ele>
        <time>2021-07-20T12:45:17Z</time>
      </trkpt>
      <trkpt lat="45.59864" lon="2.83201">
        <ele>1259.5</ele>
        <time>2021-07-20T12:45:31Z</time>
      </trkpt>
      <trkpt lat="45.59855" lon="2.83179">
        <ele>1257.5</ele>
        <time>2021-07-20T12:45:46Z</time>
      </trkpt>
      <trkpt lat="45.59852" lon="2.83174">
        <ele>1257</ele>
        <time>2021-07-20T12:45:50Z</time>
      </trkpt>
      <trkpt lat="45.59852" lon="2.83173">
        <ele>1256.8</ele>
        <time>2021-07-20T12:45:51Z</time>
      </trkpt>
      <trkpt lat="45.59843" lon="2.83151">
        <ele>1255.3</ele>
        <time>2021-07-20T12:46:06Z</time>
      </trkpt>
      <trkpt lat="45.59839" lon="2.83145">
        <ele>1254.9</ele>
        <time>2021-07-20T12:46:11Z</time>
      </trkpt>
      <trkpt lat="45.59824" lon="2.83124">
        <ele>1253</ele>
        <time>2021-07-20T12:46:30Z</time>
      </trkpt>
      <trkpt lat="45.5981" lon="2.83111">
        <ele>1251.2</ele>
        <time>2021-07-20T12:46:46Z</time>
      </trkpt>
      <trkpt lat="45.59794" lon="2.83104">
        <ele>1249.9</ele>
        <time>2021-07-20T12:47:02Z</time>
      </trkpt>
      <trkpt lat="45.59776" lon="2.83107">
        <ele>1249.2</ele>
        <time>2021-07-20T12:47:18Z</time>
      </trkpt>
      <trkpt lat="45.59759" lon="2.83108">
        <ele>1248.5</ele>
        <time>2021-07-20T12:47:33Z</time>
      </trkpt>
      <trkpt lat="45.59749" lon="2.83103">
        <ele>1247.5</ele>
        <time>2021-07-20T12:47:46Z</time>
      </trkpt>
      <trkpt lat="45.59747" lon="2.83096">
        <ele>1246.7</ele>
        <time>2021-07-20T12:47:52Z</time>
      </trkpt>
      <trkpt lat="45.59752" lon="2.83081">
        <ele>1245.8</ele>
        <time>2021-07-20T12:48:05Z</time>
      </trkpt>
      <trkpt lat="45.59759" lon="2.83065">
        <ele>1244.5</ele>
        <time>2021-07-20T12:48:19Z</time>
      </trkpt>
      <trkpt lat="45.59765" lon="2.83049">
        <ele>1243.2</ele>
        <time>2021-07-20T12:48:33Z</time>
      </trkpt>
      <trkpt lat="45.59772" lon="2.83031">
        <ele>1242</ele>
        <time>2021-07-20T12:48:46Z</time>
      </trkpt>
      <trkpt lat="45.59778" lon="2.83014">
        <ele>1241</ele>
        <time>2021-07-20T12:48:59Z</time>
      </trkpt>
      <trkpt lat="45.59787" lon="2.82991">
        <ele>1240.5</ele>
        <time>2021-07-20T12:49:16Z</time>
      </trkpt>
      <trkpt lat="45.5979" lon="2.8297">
        <ele>1240.8</ele>
        <time>2021-07-20T12:49:29Z</time>
      </trkpt>
      <trkpt lat="45.59787" lon="2.82958">
        <ele>1240.4</ele>
        <time>2021-07-20T12:49:37Z</time>
      </trkpt>
      <trkpt lat="45.59776" lon="2.82934">
        <ele>1238.9</ele>
        <time>2021-07-20T12:49:54Z</time>
      </trkpt>
      <trkpt lat="45.59766" lon="2.8291">
        <ele>1237.3</ele>
        <time>2021-07-20T12:50:10Z</time>
      </trkpt>
      <trkpt lat="45.59753" lon="2.82892">
        <ele>1235.5</ele>
        <time>2021-07-20T12:50:25Z</time>
      </trkpt>
      <trkpt lat="45.59741" lon="2.82871">
        <ele>1233.6</ele>
        <time>2021-07-20T12:50:41Z</time>
      </trkpt>
      <trkpt lat="45.59727" lon="2.82855">
        <ele>1231.5</ele>
        <time>2021-07-20T12:50:57Z</time>
      </trkpt>
      <trkpt lat="45.59712" lon="2.82841">
        <ele>1229</ele>
        <time>2021-07-20T12:51:14Z</time>
      </trkpt>
      <trkpt lat="45.59697" lon="2.82822">
        <ele>1227.1</ele>
        <time>2021-07-20T12:51:31Z</time>
      </trkpt>
      <trkpt lat="45.59689" lon="2.8281">
        <ele>1226.3</ele>
        <time>2021-07-20T12:51:41Z</time>
      </trkpt>
      <trkpt lat="45.59687" lon="2.82805">
        <ele>1226.2</ele>
        <time>2021-07-20T12:51:45Z</time>
      </trkpt>
      <trkpt lat="45.59673" lon="2.82785">
        <ele>1225.1</ele>
        <time>2021-07-20T12:52:01Z</time>
      </trkpt>
      <trkpt lat="45.5966" lon="2.82763">
        <ele>1223.7</ele>
        <time>2021-07-20T12:52:17Z</time>
      </trkpt>
      <trkpt lat="45.59651" lon="2.82748">
        <ele>1221.9</ele>
        <time>2021-07-20T12:52:30Z</time>
      </trkpt>
      <trkpt lat="45.59638" lon="2.82727">
        <ele>1219.3</ele>
        <time>2021-07-20T12:52:46Z</time>
      </trkpt>
      <trkpt lat="45.59624" lon="2.8271">
        <ele>1216.5</ele>
        <time>2021-07-20T12:53:01Z</time>
      </trkpt>
      <trkpt lat="45.59613" lon="2.82688">
        <ele>1214.8</ele>
        <time>2021-07-20T12:53:15Z</time>
      </trkpt>
      <trkpt lat="45.59608" lon="2.82678">
        <ele>1214.1</ele>
        <time>2021-07-20T12:53:23Z</time>
      </trkpt>
      <trkpt lat="45.59603" lon="2.82663">
        <ele>1213.9</ele>
        <time>2021-07-20T12:53:33Z</time>
      </trkpt>
      <trkpt lat="45.59596" lon="2.82656">
        <ele>1213</ele>
        <time>2021-07-20T12:53:41Z</time>
      </trkpt>
      <trkpt lat="45.59589" lon="2.8264">
        <ele>1213.1</ele>
        <time>2021-07-20T12:53:52Z</time>
      </trkpt>
      <trkpt lat="45.59581" lon="2.82624">
        <ele>1212.7</ele>
        <time>2021-07-20T12:54:04Z</time>
      </trkpt>
      <trkpt lat="45.59573" lon="2.82609">
        <ele>1211</ele>
        <time>2021-07-20T12:54:16Z</time>
      </trkpt>
      <trkpt lat="45.59567" lon="2.82598">
        <ele>1209.7</ele>
        <time>2021-07-20T12:54:25Z</time>
      </trkpt>
      <trkpt lat="45.59554" lon="2.82584">
        <ele>1205.9</ele>
        <time>2021-07-20T12:54:39Z</time>
      </trkpt>
      <trkpt lat="45.59545" lon="2.82569">
        <ele>1204</ele>
        <time>2021-07-20T12:54:51Z</time>
      </trkpt>
      <trkpt lat="45.59534" lon="2.82553">
        <ele>1202.1</ele>
        <time>2021-07-20T12:55:04Z</time>
      </trkpt>
      <trkpt lat="45.59534" lon="2.82552">
        <ele>1202</ele>
        <time>2021-07-20T12:55:05Z</time>
      </trkpt>
      <trkpt lat="45.59523" lon="2.82536">
        <ele>1200.3</ele>
        <time>2021-07-20T12:55:19Z</time>
      </trkpt>
      <trkpt lat="45.59515" lon="2.82526">
        <ele>1198.8</ele>
        <time>2021-07-20T12:55:30Z</time>
      </trkpt>
      <trkpt lat="45.59511" lon="2.82521">
        <ele>1198.2</ele>
        <time>2021-07-20T12:55:35Z</time>
      </trkpt>
      <trkpt lat="45.59505" lon="2.82515">
        <ele>1197.1</ele>
        <time>2021-07-20T12:55:42Z</time>
      </trkpt>
      <trkpt lat="45.59503" lon="2.82513">
        <ele>1196.7</ele>
        <time>2021-07-20T12:55:45Z</time>
      </trkpt>
      <trkpt lat="45.59497" lon="2.82506">
        <ele>1195.9</ele>
        <time>2021-07-20T12:55:52Z</time>
      </trkpt>
      <trkpt lat="45.59486" lon="2.82487">
        <ele>1194</ele>
        <time>2021-07-20T12:56:03Z</time>
      </trkpt>
      <trkpt lat="45.59476" lon="2.8247">
        <ele>1191.8</ele>
        <time>2021-07-20T12:56:17Z</time>
      </trkpt>
      <trkpt lat="45.59474" lon="2.82466">
        <ele>1191.2</ele>
        <time>2021-07-20T12:56:21Z</time>
      </trkpt>
      <trkpt lat="45.59465" lon="2.82449">
        <ele>1189.4</ele>
        <time>2021-07-20T12:56:34Z</time>
      </trkpt>
      <trkpt lat="45.59459" lon="2.82434">
        <ele>1188.4</ele>
        <time>2021-07-20T12:56:45Z</time>
      </trkpt>
      <trkpt lat="45.59456" lon="2.82428">
        <ele>1187.7</ele>
        <time>2021-07-20T12:56:49Z</time>
      </trkpt>
      <trkpt lat="45.59453" lon="2.82424">
        <ele>1186.5</ele>
        <time>2021-07-20T12:56:53Z</time>
      </trkpt>
      <trkpt lat="45.59448" lon="2.82429">
        <ele>1183.5</ele>
        <time>2021-07-20T12:57:03Z</time>
      </trkpt>
      <trkpt lat="45.59444" lon="2.82429">
        <ele>1181.9</ele>
        <time>2021-07-20T12:57:14Z</time>
      </trkpt>
      <trkpt lat="45.5944" lon="2.8242">
        <ele>1180.6</ele>
        <time>2021-07-20T12:57:27Z</time>
      </trkpt>
      <trkpt lat="45.59428" lon="2.82412">
        <ele>1176.1</ele>
        <time>2021-07-20T12:57:45Z</time>
      </trkpt>
      <trkpt lat="45.59417" lon="2.82392">
        <ele>1173.4</ele>
        <time>2021-07-20T12:58:03Z</time>
      </trkpt>
      <trkpt lat="45.59408" lon="2.82372">
        <ele>1173.1</ele>
        <time>2021-07-20T12:58:18Z</time>
      </trkpt>
      <trkpt lat="45.59403" lon="2.82356">
        <ele>1173.3</ele>
        <time>2021-07-20T12:58:30Z</time>
      </trkpt>
      <trkpt lat="45.59394" lon="2.82334">
        <ele>1171.6</ele>
        <time>2021-07-20T12:58:46Z</time>
      </trkpt>
      <trkpt lat="45.5939" lon="2.82314">
        <ele>1171</ele>
        <time>2021-07-20T12:58:59Z</time>
      </trkpt>
      <trkpt lat="45.59384" lon="2.823">
        <ele>1168.8</ele>
        <time>2021-07-20T12:59:16Z</time>
      </trkpt>
      <trkpt lat="45.59378" lon="2.82285">
        <ele>1167.1</ele>
        <time>2021-07-20T12:59:32Z</time>
      </trkpt>
      <trkpt lat="45.59376" lon="2.82262">
        <ele>1166.9</ele>
        <time>2021-07-20T12:59:49Z</time>
      </trkpt>
      <trkpt lat="45.5937" lon="2.82237">
        <ele>1164.7</ele>
        <time>2021-07-20T13:00:05Z</time>
      </trkpt>
      <trkpt lat="45.59362" lon="2.82208">
        <ele>1160.1</ele>
        <time>2021-07-20T13:00:21Z</time>
      </trkpt>
      <trkpt lat="45.59356" lon="2.82193">
        <ele>1157.3</ele>
        <time>2021-07-20T13:00:34Z</time>
      </trkpt>
      <trkpt lat="45.59352" lon="2.82181">
        <ele>1155.1</ele>
        <time>2021-07-20T13:00:48Z</time>
      </trkpt>
      <trkpt lat="45.59347" lon="2.82157">
        <ele>1151.9</ele>
        <time>2021-07-20T13:01:03Z</time>
      </trkpt>
      <trkpt lat="45.59341" lon="2.82142">
        <ele>1149</ele>
        <time>2021-07-20T13:01:17Z</time>
      </trkpt>
      <trkpt lat="45.59333" lon="2.82123">
        <ele>1145.5</ele>
        <time>2021-07-20T13:01:33Z</time>
      </trkpt>
      <trkpt lat="45.59329" lon="2.82104">
        <ele>1143.5</ele>
        <time>2021-07-20T13:01:49Z</time>
      </trkpt>
      <trkpt lat="45.59329" lon="2.82082">
        <ele>1142.5</ele>
        <time>2021-07-20T13:02:06Z</time>
      </trkpt>
      <trkpt lat="45.59323" lon="2.82058">
        <ele>1138.1</ele>
        <time>2021-07-20T13:02:21Z</time>
      </trkpt>
      <trkpt lat="45.59323" lon="2.82031">
        <ele>1134.9</ele>
        <time>2021-07-20T13:02:35Z</time>
      </trkpt>
      <trkpt lat="45.59322" lon="2.8201">
        <ele>1132.1</ele>
        <time>2021-07-20T13:02:51Z</time>
      </trkpt>
      <trkpt lat="45.59322" lon="2.81985">
        <ele>1128.8</ele>
        <time>2021-07-20T13:03:06Z</time>
      </trkpt>
      <trkpt lat="45.59325" lon="2.81961">
        <ele>1126</ele>
        <time>2021-07-20T13:03:22Z</time>
      </trkpt>
      <trkpt lat="45.59328" lon="2.81944">
        <ele>1124.2</ele>
        <time>2021-07-20T13:03:36Z</time>
      </trkpt>
      <trkpt lat="45.59326" lon="2.81927">
        <ele>1121.2</ele>
        <time>2021-07-20T13:03:49Z</time>
      </trkpt>
      <trkpt lat="45.59317" lon="2.81924">
        <ele>1119.2</ele>
        <time>2021-07-20T13:04:04Z</time>
      </trkpt>
      <trkpt lat="45.59309" lon="2.81926">
        <ele>1118.2</ele>
        <time>2021-07-20T13:04:19Z</time>
      </trkpt>
      <trkpt lat="45.59302" lon="2.81927">
        <ele>1116.9</ele>
        <time>2021-07-20T13:04:30Z</time>
      </trkpt>
      <trkpt lat="45.59296" lon="2.81937">
        <ele>1116.9</ele>
        <time>2021-07-20T13:04:40Z</time>
      </trkpt>
      <trkpt lat="45.5929" lon="2.81954">
        <ele>1117.5</ele>
        <time>2021-07-20T13:04:52Z</time>
      </trkpt>
      <trkpt lat="45.59285" lon="2.81969">
        <ele>1117.9</ele>
        <time>2021-07-20T13:05:07Z</time>
      </trkpt>
      <trkpt lat="45.59283" lon="2.81985">
        <ele>1118.8</ele>
        <time>2021-07-20T13:05:20Z</time>
      </trkpt>
      <trkpt lat="45.59279" lon="2.82004">
        <ele>1119.5</ele>
        <time>2021-07-20T13:05:33Z</time>
      </trkpt>
      <trkpt lat="45.59279" lon="2.82033">
        <ele>1122.4</ele>
        <time>2021-07-20T13:05:46Z</time>
      </trkpt>
      <trkpt lat="45.59278" lon="2.82038">
        <ele>1122.7</ele>
        <time>2021-07-20T13:05:58Z</time>
      </trkpt>
      <trkpt lat="45.59271" lon="2.82032">
        <ele>1120</ele>
        <time>2021-07-20T13:06:11Z</time>
      </trkpt>
      <trkpt lat="45.59266" lon="2.82016">
        <ele>1117</ele>
        <time>2021-07-20T13:06:25Z</time>
      </trkpt>
      <trkpt lat="45.59262" lon="2.81996">
        <ele>1114</ele>
        <time>2021-07-20T13:06:39Z</time>
      </trkpt>
      <trkpt lat="45.59257" lon="2.81984">
        <ele>1111.9</ele>
        <time>2021-07-20T13:06:49Z</time>
      </trkpt>
      <trkpt lat="45.59253" lon="2.81968">
        <ele>1110.1</ele>
        <time>2021-07-20T13:07:00Z</time>
      </trkpt>
      <trkpt lat="45.59252" lon="2.81963">
        <ele>1109.7</ele>
        <time>2021-07-20T13:07:03Z</time>
      </trkpt>
      <trkpt lat="45.59252" lon="2.8196">
        <ele>1109.4</ele>
        <time>2021-07-20T13:07:05Z</time>
      </trkpt>
      <trkpt lat="45.59249" lon="2.81953">
        <ele>1108.7</ele>
        <time>2021-07-20T13:07:10Z</time>
      </trkpt>
      <trkpt lat="45.59243" lon="2.81923">
        <ele>1107.5</ele>
        <time>2021-07-20T13:07:24Z</time>
      </trkpt>
      <trkpt lat="45.59233" lon="2.81899">
        <ele>1106.7</ele>
        <time>2021-07-20T13:07:40Z</time>
      </trkpt>
      <trkpt lat="45.59226" lon="2.81883">
        <ele>1106.1</ele>
        <time>2021-07-20T13:07:54Z</time>
      </trkpt>
      <trkpt lat="45.59224" lon="2.81868">
        <ele>1105.5</ele>
        <time>2021-07-20T13:08:02Z</time>
      </trkpt>
      <trkpt lat="45.59222" lon="2.8185">
        <ele>1104.7</ele>
        <time>2021-07-20T13:08:13Z</time>
      </trkpt>
      <trkpt lat="45.5922" lon="2.81834">
        <ele>1104</ele>
        <time>2021-07-20T13:08:23Z</time>
      </trkpt>
      <trkpt lat="45.59218" lon="2.81826">
        <ele>1103.1</ele>
        <time>2021-07-20T13:08:27Z</time>
      </trkpt>
      <trkpt lat="45.59218" lon="2.81816">
        <ele>1101.9</ele>
        <time>2021-07-20T13:08:31Z</time>
      </trkpt>
      <trkpt lat="45.59218" lon="2.81789">
        <ele>1098.7</ele>
        <time>2021-07-20T13:08:42Z</time>
      </trkpt>
      <trkpt lat="45.59221" lon="2.81768">
        <ele>1096.1</ele>
        <time>2021-07-20T13:08:52Z</time>
      </trkpt>
      <trkpt lat="45.59222" lon="2.81748">
        <ele>1093.6</ele>
        <time>2021-07-20T13:09:05Z</time>
      </trkpt>
      <trkpt lat="45.5922" lon="2.81733">
        <ele>1091.4</ele>
        <time>2021-07-20T13:09:15Z</time>
      </trkpt>
      <trkpt lat="45.5922" lon="2.81718">
        <ele>1089.1</ele>
        <time>2021-07-20T13:09:24Z</time>
      </trkpt>
      <trkpt lat="45.59221" lon="2.81711">
        <ele>1088.1</ele>
        <time>2021-07-20T13:09:28Z</time>
      </trkpt>
      <trkpt lat="45.59218" lon="2.81695">
        <ele>1085.8</ele>
        <time>2021-07-20T13:09:38Z</time>
      </trkpt>
      <trkpt lat="45.59215" lon="2.81688">
        <ele>1084.8</ele>
        <time>2021-07-20T13:09:51Z</time>
      </trkpt>
      <trkpt lat="45.59205" lon="2.81672">
        <ele>1082.9</ele>
        <time>2021-07-20T13:10:05Z</time>
      </trkpt>
      <trkpt lat="45.59198" lon="2.81653">
        <ele>1081.3</ele>
        <time>2021-07-20T13:10:18Z</time>
      </trkpt>
      <trkpt lat="45.5919" lon="2.81631">
        <ele>1079.8</ele>
        <time>2021-07-20T13:10:34Z</time>
      </trkpt>
      <trkpt lat="45.59178" lon="2.8162">
        <ele>1079.5</ele>
        <time>2021-07-20T13:10:46Z</time>
      </trkpt>
      <trkpt lat="45.59173" lon="2.81607">
        <ele>1078.7</ele>
        <time>2021-07-20T13:11:01Z</time>
      </trkpt>
      <trkpt lat="45.5917" lon="2.81596">
        <ele>1077.9</ele>
        <time>2021-07-20T13:11:13Z</time>
      </trkpt>
      <trkpt lat="45.59167" lon="2.81591">
        <ele>1077.6</ele>
        <time>2021-07-20T13:11:21Z</time>
      </trkpt>
      <trkpt lat="45.59165" lon="2.81588">
        <ele>1077.6</ele>
        <time>2021-07-20T13:11:25Z</time>
      </trkpt>
      <trkpt lat="45.5916" lon="2.81577">
        <ele>1077.9</ele>
        <time>2021-07-20T13:11:41Z</time>
      </trkpt>
      <trkpt lat="45.59159" lon="2.81577">
        <ele>1077.9</ele>
        <time>2021-07-20T13:11:42Z</time>
      </trkpt>
      <trkpt lat="45.59158" lon="2.81573">
        <ele>1077.7</ele>
        <time>2021-07-20T13:12:00Z</time>
      </trkpt>
      <trkpt lat="45.59156" lon="2.81564">
        <ele>1077.2</ele>
        <time>2021-07-20T13:12:14Z</time>
      </trkpt>
      <trkpt lat="45.5915" lon="2.81554">
        <ele>1077.2</ele>
        <time>2021-07-20T13:12:29Z</time>
      </trkpt>
      <trkpt lat="45.59145" lon="2.8154">
        <ele>1076.3</ele>
        <time>2021-07-20T13:12:43Z</time>
      </trkpt>
      <trkpt lat="45.59144" lon="2.81535">
        <ele>1075.8</ele>
        <time>2021-07-20T13:12:49Z</time>
      </trkpt>
      <trkpt lat="45.5914" lon="2.81527">
        <ele>1075.3</ele>
        <time>2021-07-20T13:13:00Z</time>
      </trkpt>
      <trkpt lat="45.59136" lon="2.81523">
        <ele>1075.2</ele>
        <time>2021-07-20T13:13:06Z</time>
      </trkpt>
      <trkpt lat="45.59129" lon="2.81516">
        <ele>1075</ele>
        <time>2021-07-20T13:13:19Z</time>
      </trkpt>
      <trkpt lat="45.59127" lon="2.81513">
        <ele>1074.8</ele>
        <time>2021-07-20T13:13:20Z</time>
      </trkpt>
      <trkpt lat="45.59126" lon="2.81511">
        <ele>1074.6</ele>
        <time>2021-07-20T13:13:21Z</time>
      </trkpt>
      <trkpt lat="45.59125" lon="2.81509">
        <ele>1074.3</ele>
        <time>2021-07-20T13:13:22Z</time>
      </trkpt>
      <trkpt lat="45.59117" lon="2.81493">
        <ele>1072.9</ele>
        <time>2021-07-20T13:13:34Z</time>
      </trkpt>
      <trkpt lat="45.59111" lon="2.81482">
        <ele>1072.4</ele>
        <time>2021-07-20T13:13:50Z</time>
      </trkpt>
      <trkpt lat="45.59105" lon="2.81469">
        <ele>1071.7</ele>
        <time>2021-07-20T13:14:04Z</time>
      </trkpt>
      <trkpt lat="45.59098" lon="2.81457">
        <ele>1071</ele>
        <time>2021-07-20T13:14:17Z</time>
      </trkpt>
      <trkpt lat="45.59098" lon="2.81451">
        <ele>1070.5</ele>
        <time>2021-07-20T13:14:30Z</time>
      </trkpt>
      <trkpt lat="45.59097" lon="2.81454">
        <ele>1070.8</ele>
        <time>2021-07-20T13:14:44Z</time>
      </trkpt>
      <trkpt lat="45.59094" lon="2.81449">
        <ele>1070.5</ele>
        <time>2021-07-20T13:15:07Z</time>
      </trkpt>
      <trkpt lat="45.59098" lon="2.81453">
        <ele>1070.6</ele>
        <time>2021-07-20T13:15:21Z</time>
      </trkpt>
      <trkpt lat="45.59105" lon="2.8145">
        <ele>1069.9</ele>
        <time>2021-07-20T13:15:36Z</time>
      </trkpt>
      <trkpt lat="45.59109" lon="2.81446">
        <ele>1069.4</ele>
        <time>2021-07-20T13:15:49Z</time>
      </trkpt>
      <trkpt lat="45.59108" lon="2.81432">
        <ele>1068.2</ele>
        <time>2021-07-20T13:16:05Z</time>
      </trkpt>
      <trkpt lat="45.59106" lon="2.81421">
        <ele>1067.3</ele>
        <time>2021-07-20T13:16:16Z</time>
      </trkpt>
      <trkpt lat="45.59105" lon="2.81413">
        <ele>1066.7</ele>
        <time>2021-07-20T13:16:25Z</time>
      </trkpt>
      <trkpt lat="45.59103" lon="2.81407">
        <ele>1066.4</ele>
        <time>2021-07-20T13:16:43Z</time>
      </trkpt>
      <trkpt lat="45.59102" lon="2.81407">
        <ele>1066.4</ele>
        <time>2021-07-20T13:16:58Z</time>
      </trkpt>
      <trkpt lat="45.591" lon="2.81405">
        <ele>1066.3</ele>
        <time>2021-07-20T13:17:02Z</time>
      </trkpt>
      <trkpt lat="45.59097" lon="2.81405">
        <ele>1066.3</ele>
        <time>2021-07-20T13:17:05Z</time>
      </trkpt>
      <trkpt lat="45.59094" lon="2.81391">
        <ele>1065.2</ele>
        <time>2021-07-20T13:17:26Z</time>
      </trkpt>
      <trkpt lat="45.59091" lon="2.81386">
        <ele>1064.7</ele>
        <time>2021-07-20T13:17:48Z</time>
      </trkpt>
      <trkpt lat="45.59087" lon="2.81376">
        <ele>1063.7</ele>
        <time>2021-07-20T13:18:09Z</time>
      </trkpt>
      <trkpt lat="45.59086" lon="2.8138">
        <ele>1064.1</ele>
        <time>2021-07-20T13:18:27Z</time>
      </trkpt>
      <trkpt lat="45.59087" lon="2.81394">
        <ele>1065.5</ele>
        <time>2021-07-20T13:18:44Z</time>
      </trkpt>
      <trkpt lat="45.59089" lon="2.81408">
        <ele>1066.9</ele>
        <time>2021-07-20T13:19:03Z</time>
      </trkpt>
      <trkpt lat="45.59092" lon="2.81413">
        <ele>1067.3</ele>
        <time>2021-07-20T13:19:19Z</time>
      </trkpt>
      <trkpt lat="45.59096" lon="2.81405">
        <ele>1066.4</ele>
        <time>2021-07-20T13:19:43Z</time>
      </trkpt>
      <trkpt lat="45.59098" lon="2.81401">
        <ele>1066</ele>
        <time>2021-07-20T13:19:50Z</time>
      </trkpt>
      <trkpt lat="45.59097" lon="2.81394">
        <ele>1065.4</ele>
        <time>2021-07-20T13:20:11Z</time>
      </trkpt>
      <trkpt lat="45.59099" lon="2.81402">
        <ele>1066.1</ele>
        <time>2021-07-20T13:20:32Z</time>
      </trkpt>
      <trkpt lat="45.59101" lon="2.8139">
        <ele>1065</ele>
        <time>2021-07-20T13:20:48Z</time>
      </trkpt>
      <trkpt lat="45.59096" lon="2.81381">
        <ele>1064.2</ele>
        <time>2021-07-20T13:21:02Z</time>
      </trkpt>
      <trkpt lat="45.59092" lon="2.81373">
        <ele>1063.5</ele>
        <time>2021-07-20T13:21:19Z</time>
      </trkpt>
      <trkpt lat="45.59089" lon="2.81371">
        <ele>1063.2</ele>
        <time>2021-07-20T13:21:37Z</time>
      </trkpt>
      <trkpt lat="45.59087" lon="2.81371">
        <ele>1063.1</ele>
        <time>2021-07-20T13:22:09Z</time>
      </trkpt>
      <trkpt lat="45.59089" lon="2.81369">
        <ele>1063</ele>
        <time>2021-07-20T13:22:26Z</time>
      </trkpt>
      <trkpt lat="45.591" lon="2.81357">
        <ele>1062.4</ele>
        <time>2021-07-20T13:22:40Z</time>
      </trkpt>
      <trkpt lat="45.59105" lon="2.81348">
        <ele>1061.9</ele>
        <time>2021-07-20T13:22:55Z</time>
      </trkpt>
      <trkpt lat="45.5911" lon="2.81339">
        <ele>1061.6</ele>
        <time>2021-07-20T13:23:07Z</time>
      </trkpt>
      <trkpt lat="45.59111" lon="2.81331">
        <ele>1061.2</ele>
        <time>2021-07-20T13:23:19Z</time>
      </trkpt>
      <trkpt lat="45.59108" lon="2.81321">
        <ele>1060.3</ele>
        <time>2021-07-20T13:23:33Z</time>
      </trkpt>
      <trkpt lat="45.59107" lon="2.81321">
        <ele>1060.1</ele>
        <time>2021-07-20T13:23:34Z</time>
      </trkpt>
      <trkpt lat="45.59106" lon="2.81319">
        <ele>1060</ele>
        <time>2021-07-20T13:23:36Z</time>
      </trkpt>
      <trkpt lat="45.59105" lon="2.81319">
        <ele>1059.8</ele>
        <time>2021-07-20T13:23:37Z</time>
      </trkpt>
      <trkpt lat="45.59101" lon="2.81317">
        <ele>1059.3</ele>
        <time>2021-07-20T13:23:40Z</time>
      </trkpt>
      <trkpt lat="45.591" lon="2.81317">
        <ele>1059.2</ele>
        <time>2021-07-20T13:23:41Z</time>
      </trkpt>
      <trkpt lat="45.59096" lon="2.81316">
        <ele>1058.7</ele>
        <time>2021-07-20T13:23:44Z</time>
      </trkpt>
      <trkpt lat="45.59087" lon="2.81315">
        <ele>1057.7</ele>
        <time>2021-07-20T13:23:53Z</time>
      </trkpt>
      <trkpt lat="45.59072" lon="2.81322">
        <ele>1058</ele>
        <time>2021-07-20T13:24:08Z</time>
      </trkpt>
      <trkpt lat="45.59054" lon="2.81327">
        <ele>1058.7</ele>
        <time>2021-07-20T13:24:28Z</time>
      </trkpt>
      <trkpt lat="45.59041" lon="2.81326">
        <ele>1058.8</ele>
        <time>2021-07-20T13:24:46Z</time>
      </trkpt>
      <trkpt lat="45.59037" lon="2.8132">
        <ele>1058.3</ele>
        <time>2021-07-20T13:24:54Z</time>
      </trkpt>
      <trkpt lat="45.59035" lon="2.81317">
        <ele>1058</ele>
        <time>2021-07-20T13:24:58Z</time>
      </trkpt>
      <trkpt lat="45.59029" lon="2.81311">
        <ele>1057.5</ele>
        <time>2021-07-20T13:25:16Z</time>
      </trkpt>
      <trkpt lat="45.59029" lon="2.81313">
        <ele>1057.7</ele>
        <time>2021-07-20T13:25:33Z</time>
      </trkpt>
      <trkpt lat="45.59028" lon="2.81309">
        <ele>1057.3</ele>
        <time>2021-07-20T13:25:47Z</time>
      </trkpt>
      <trkpt lat="45.59024" lon="2.81299">
        <ele>1056.4</ele>
        <time>2021-07-20T13:26:00Z</time>
      </trkpt>
      <trkpt lat="45.5902" lon="2.81288">
        <ele>1055.4</ele>
        <time>2021-07-20T13:26:11Z</time>
      </trkpt>
      <trkpt lat="45.59015" lon="2.81276">
        <ele>1054.3</ele>
        <time>2021-07-20T13:26:25Z</time>
      </trkpt>
      <trkpt lat="45.59004" lon="2.81268">
        <ele>1053.7</ele>
        <time>2021-07-20T13:26:41Z</time>
      </trkpt>
      <trkpt lat="45.58999" lon="2.81268">
        <ele>1053.8</ele>
        <time>2021-07-20T13:26:53Z</time>
      </trkpt>
      <trkpt lat="45.58995" lon="2.81272">
        <ele>1054.5</ele>
        <time>2021-07-20T13:27:05Z</time>
      </trkpt>
      <trkpt lat="45.58989" lon="2.81274">
        <ele>1055.2</ele>
        <time>2021-07-20T13:27:19Z</time>
      </trkpt>
      <trkpt lat="45.5899" lon="2.81294">
        <ele>1056.8</ele>
        <time>2021-07-20T13:27:34Z</time>
      </trkpt>
      <trkpt lat="45.5899" lon="2.81314">
        <ele>1058.6</ele>
        <time>2021-07-20T13:27:46Z</time>
      </trkpt>
      <trkpt lat="45.58989" lon="2.81332">
        <ele>1060.3</ele>
        <time>2021-07-20T13:27:58Z</time>
      </trkpt>
      <trkpt lat="45.58982" lon="2.81353">
        <ele>1062.1</ele>
        <time>2021-07-20T13:28:15Z</time>
      </trkpt>
      <trkpt lat="45.58972" lon="2.81371">
        <ele>1064.2</ele>
        <time>2021-07-20T13:28:31Z</time>
      </trkpt>
      <trkpt lat="45.58959" lon="2.81376">
        <ele>1065.6</ele>
        <time>2021-07-20T13:28:49Z</time>
      </trkpt>
      <trkpt lat="45.58948" lon="2.8138">
        <ele>1066.7</ele>
        <time>2021-07-20T13:29:04Z</time>
      </trkpt>
      <trkpt lat="45.58925" lon="2.81384">
        <ele>1069</ele>
        <time>2021-07-20T13:29:23Z</time>
      </trkpt>
      <trkpt lat="45.58909" lon="2.81383">
        <ele>1070.3</ele>
        <time>2021-07-20T13:29:39Z</time>
      </trkpt>
      <trkpt lat="45.58895" lon="2.81389">
        <ele>1072.3</ele>
        <time>2021-07-20T13:29:54Z</time>
      </trkpt>
      <trkpt lat="45.58885" lon="2.81404">
        <ele>1074.7</ele>
        <time>2021-07-20T13:30:08Z</time>
      </trkpt>
      <trkpt lat="45.58879" lon="2.81415">
        <ele>1076.1</ele>
        <time>2021-07-20T13:30:23Z</time>
      </trkpt>
      <trkpt lat="45.58878" lon="2.81422">
        <ele>1078</ele>
        <time>2021-07-20T13:30:38Z</time>
      </trkpt>
      <trkpt lat="45.58868" lon="2.81405">
        <ele>1076</ele>
        <time>2021-07-20T13:30:51Z</time>
      </trkpt>
      <trkpt lat="45.58859" lon="2.81396">
        <ele>1076.1</ele>
        <time>2021-07-20T13:31:04Z</time>
      </trkpt>
      <trkpt lat="45.58849" lon="2.81386">
        <ele>1076.4</ele>
        <time>2021-07-20T13:31:19Z</time>
      </trkpt>
      <trkpt lat="45.58836" lon="2.81382">
        <ele>1077.5</ele>
        <time>2021-07-20T13:31:33Z</time>
      </trkpt>
      <trkpt lat="45.58818" lon="2.81385">
        <ele>1079.7</ele>
        <time>2021-07-20T13:31:48Z</time>
      </trkpt>
      <trkpt lat="45.58804" lon="2.81397">
        <ele>1082.2</ele>
        <time>2021-07-20T13:32:01Z</time>
      </trkpt>
      <trkpt lat="45.58796" lon="2.81408">
        <ele>1084.1</ele>
        <time>2021-07-20T13:32:15Z</time>
      </trkpt>
      <trkpt lat="45.5879" lon="2.81421">
        <ele>1086.9</ele>
        <time>2021-07-20T13:32:30Z</time>
      </trkpt>
      <trkpt lat="45.58787" lon="2.81433">
        <ele>1090.4</ele>
        <time>2021-07-20T13:32:45Z</time>
      </trkpt>
      <trkpt lat="45.58792" lon="2.81443">
        <ele>1092.5</ele>
        <time>2021-07-20T13:33:02Z</time>
      </trkpt>
      <trkpt lat="45.58792" lon="2.81444">
        <ele>1092.8</ele>
        <time>2021-07-20T13:33:03Z</time>
      </trkpt>
      <trkpt lat="45.58791" lon="2.81449">
        <ele>1094</ele>
        <time>2021-07-20T13:33:10Z</time>
      </trkpt>
      <trkpt lat="45.58795" lon="2.81457">
        <ele>1095.6</ele>
        <time>2021-07-20T13:33:30Z</time>
      </trkpt>
      <trkpt lat="45.58788" lon="2.8146">
        <ele>1097.3</ele>
        <time>2021-07-20T13:33:50Z</time>
      </trkpt>
      <trkpt lat="45.58794" lon="2.81452">
        <ele>1094.5</ele>
        <time>2021-07-20T13:34:13Z</time>
      </trkpt>
      <trkpt lat="45.58799" lon="2.81445">
        <ele>1092</ele>
        <time>2021-07-20T13:34:34Z</time>
      </trkpt>
      <trkpt lat="45.58798" lon="2.81443">
        <ele>1091.5</ele>
        <time>2021-07-20T13:34:38Z</time>
      </trkpt>
      <trkpt lat="45.58792" lon="2.8145">
        <ele>1094.2</ele>
        <time>2021-07-20T13:34:58Z</time>
      </trkpt>
      <trkpt lat="45.58791" lon="2.81455">
        <ele>1095.8</ele>
        <time>2021-07-20T13:35:19Z</time>
      </trkpt>
      <trkpt lat="45.58789" lon="2.81459">
        <ele>1097.2</ele>
        <time>2021-07-20T13:35:37Z</time>
      </trkpt>
      <trkpt lat="45.58787" lon="2.81462">
        <ele>1098.3</ele>
        <time>2021-07-20T13:35:57Z</time>
      </trkpt>
      <trkpt lat="45.58784" lon="2.8146">
        <ele>1097.8</ele>
        <time>2021-07-20T13:36:14Z</time>
      </trkpt>
      <trkpt lat="45.58792" lon="2.81454">
        <ele>1095.2</ele>
        <time>2021-07-20T13:36:35Z</time>
      </trkpt>
      <trkpt lat="45.58796" lon="2.81456">
        <ele>1095.2</ele>
        <time>2021-07-20T13:36:54Z</time>
      </trkpt>
      <trkpt lat="45.58802" lon="2.8145">
        <ele>1093.1</ele>
        <time>2021-07-20T13:37:17Z</time>
      </trkpt>
      <trkpt lat="45.58797" lon="2.81433">
        <ele>1089.1</ele>
        <time>2021-07-20T13:37:31Z</time>
      </trkpt>
      <trkpt lat="45.58793" lon="2.81423">
        <ele>1086.9</ele>
        <time>2021-07-20T13:37:44Z</time>
      </trkpt>
      <trkpt lat="45.58791" lon="2.81412">
        <ele>1085.2</ele>
        <time>2021-07-20T13:38:00Z</time>
      </trkpt>
      <trkpt lat="45.5879" lon="2.81411">
        <ele>1085.2</ele>
        <time>2021-07-20T13:38:01Z</time>
      </trkpt>
      <trkpt lat="45.58783" lon="2.81391">
        <ele>1084.5</ele>
        <time>2021-07-20T13:38:19Z</time>
      </trkpt>
      <trkpt lat="45.58773" lon="2.81375">
        <ele>1084</ele>
        <time>2021-07-20T13:38:34Z</time>
      </trkpt>
      <trkpt lat="45.58771" lon="2.81353">
        <ele>1081.9</ele>
        <time>2021-07-20T13:38:53Z</time>
      </trkpt>
      <trkpt lat="45.58773" lon="2.81338">
        <ele>1080.2</ele>
        <time>2021-07-20T13:39:08Z</time>
      </trkpt>
      <trkpt lat="45.58781" lon="2.81326">
        <ele>1078.9</ele>
        <time>2021-07-20T13:39:22Z</time>
      </trkpt>
      <trkpt lat="45.58782" lon="2.81324">
        <ele>1078.8</ele>
        <time>2021-07-20T13:39:24Z</time>
      </trkpt>
      <trkpt lat="45.58786" lon="2.81319">
        <ele>1078.5</ele>
        <time>2021-07-20T13:39:28Z</time>
      </trkpt>
      <trkpt lat="45.58798" lon="2.81302">
        <ele>1077.4</ele>
        <time>2021-07-20T13:39:42Z</time>
      </trkpt>
      <trkpt lat="45.58801" lon="2.81284">
        <ele>1076.9</ele>
        <time>2021-07-20T13:39:57Z</time>
      </trkpt>
      <trkpt lat="45.58801" lon="2.81265">
        <ele>1076.5</ele>
        <time>2021-07-20T13:40:11Z</time>
      </trkpt>
      <trkpt lat="45.588" lon="2.81245">
        <ele>1075.8</ele>
        <time>2021-07-20T13:40:26Z</time>
      </trkpt>
      <trkpt lat="45.58799" lon="2.81242">
        <ele>1075.6</ele>
        <time>2021-07-20T13:40:27Z</time>
      </trkpt>
      <trkpt lat="45.58799" lon="2.81216">
        <ele>1073.3</ele>
        <time>2021-07-20T13:40:43Z</time>
      </trkpt>
      <trkpt lat="45.58805" lon="2.81193">
        <ele>1070.4</ele>
        <time>2021-07-20T13:40:59Z</time>
      </trkpt>
      <trkpt lat="45.5881" lon="2.81172">
        <ele>1067.4</ele>
        <time>2021-07-20T13:41:14Z</time>
      </trkpt>
      <trkpt lat="45.58812" lon="2.81165">
        <ele>1066.3</ele>
        <time>2021-07-20T13:41:18Z</time>
      </trkpt>
      <trkpt lat="45.58815" lon="2.81154">
        <ele>1065.6</ele>
        <time>2021-07-20T13:41:24Z</time>
      </trkpt>
      <trkpt lat="45.58819" lon="2.8114">
        <ele>1064.5</ele>
        <time>2021-07-20T13:41:33Z</time>
      </trkpt>
      <trkpt lat="45.58821" lon="2.81124">
        <ele>1063.6</ele>
        <time>2021-07-20T13:41:45Z</time>
      </trkpt>
      <trkpt lat="45.58822" lon="2.81117">
        <ele>1063.1</ele>
        <time>2021-07-20T13:41:49Z</time>
      </trkpt>
      <trkpt lat="45.58822" lon="2.81111">
        <ele>1063</ele>
        <time>2021-07-20T13:41:52Z</time>
      </trkpt>
      <trkpt lat="45.58827" lon="2.81094">
        <ele>1060.7</ele>
        <time>2021-07-20T13:42:02Z</time>
      </trkpt>
      <trkpt lat="45.5883" lon="2.8108">
        <ele>1059.4</ele>
        <time>2021-07-20T13:42:10Z</time>
      </trkpt>
      <trkpt lat="45.58834" lon="2.81075">
        <ele>1058.1</ele>
        <time>2021-07-20T13:42:14Z</time>
      </trkpt>
      <trkpt lat="45.5884" lon="2.81055">
        <ele>1057.1</ele>
        <time>2021-07-20T13:42:26Z</time>
      </trkpt>
      <trkpt lat="45.58841" lon="2.81047">
        <ele>1056.8</ele>
        <time>2021-07-20T13:42:30Z</time>
      </trkpt>
      <trkpt lat="45.58842" lon="2.81024">
        <ele>1056.7</ele>
        <time>2021-07-20T13:42:41Z</time>
      </trkpt>
      <trkpt lat="45.58843" lon="2.81019">
        <ele>1056.5</ele>
        <time>2021-07-20T13:42:44Z</time>
      </trkpt>
      <trkpt lat="45.58843" lon="2.81014">
        <ele>1056.5</ele>
        <time>2021-07-20T13:42:47Z</time>
      </trkpt>
      <trkpt lat="45.58844" lon="2.80995">
        <ele>1056.2</ele>
        <time>2021-07-20T13:42:57Z</time>
      </trkpt>
      <trkpt lat="45.58844" lon="2.80992">
        <ele>1056.4</ele>
        <time>2021-07-20T13:42:59Z</time>
      </trkpt>
      <trkpt lat="45.58844" lon="2.80976">
        <ele>1056.8</ele>
        <time>2021-07-20T13:43:08Z</time>
      </trkpt>
      <trkpt lat="45.58843" lon="2.80959">
        <ele>1057.4</ele>
        <time>2021-07-20T13:43:19Z</time>
      </trkpt>
      <trkpt lat="45.58843" lon="2.80943">
        <ele>1057.8</ele>
        <time>2021-07-20T13:43:29Z</time>
      </trkpt>
      <trkpt lat="45.58843" lon="2.80941">
        <ele>1057.8</ele>
        <time>2021-07-20T13:43:30Z</time>
      </trkpt>
      <trkpt lat="45.58846" lon="2.80921">
        <ele>1057.5</ele>
        <time>2021-07-20T13:43:41Z</time>
      </trkpt>
      <trkpt lat="45.58849" lon="2.80912">
        <ele>1057.2</ele>
        <time>2021-07-20T13:43:52Z</time>
      </trkpt>
      <trkpt lat="45.58851" lon="2.8091">
        <ele>1056.8</ele>
        <time>2021-07-20T13:43:55Z</time>
      </trkpt>
      <trkpt lat="45.58859" lon="2.80897">
        <ele>1056.1</ele>
        <time>2021-07-20T13:44:05Z</time>
      </trkpt>
      <trkpt lat="45.58861" lon="2.80891">
        <ele>1056.2</ele>
        <time>2021-07-20T13:44:10Z</time>
      </trkpt>
      <trkpt lat="45.58867" lon="2.80873">
        <ele>1056.8</ele>
        <time>2021-07-20T13:44:21Z</time>
      </trkpt>
      <trkpt lat="45.58867" lon="2.8086">
        <ele>1058.1</ele>
        <time>2021-07-20T13:44:29Z</time>
      </trkpt>
      <trkpt lat="45.58868" lon="2.80837">
        <ele>1060.4</ele>
        <time>2021-07-20T13:44:41Z</time>
      </trkpt>
      <trkpt lat="45.58866" lon="2.80824">
        <ele>1061.6</ele>
        <time>2021-07-20T13:44:49Z</time>
      </trkpt>
      <trkpt lat="45.58869" lon="2.80805">
        <ele>1062.4</ele>
        <time>2021-07-20T13:44:58Z</time>
      </trkpt>
      <trkpt lat="45.5887" lon="2.808">
        <ele>1062.6</ele>
        <time>2021-07-20T13:45:01Z</time>
      </trkpt>
      <trkpt lat="45.58868" lon="2.80776">
        <ele>1064.4</ele>
        <time>2021-07-20T13:45:12Z</time>
      </trkpt>
      <trkpt lat="45.58867" lon="2.80757">
        <ele>1065.8</ele>
        <time>2021-07-20T13:45:21Z</time>
      </trkpt>
      <trkpt lat="45.58867" lon="2.80755">
        <ele>1065.9</ele>
        <time>2021-07-20T13:45:22Z</time>
      </trkpt>
      <trkpt lat="45.58867" lon="2.80742">
        <ele>1065.6</ele>
        <time>2021-07-20T13:45:29Z</time>
      </trkpt>
      <trkpt lat="45.58865" lon="2.80731">
        <ele>1064.9</ele>
        <time>2021-07-20T13:45:37Z</time>
      </trkpt>
      <trkpt lat="45.58862" lon="2.80716">
        <ele>1064.1</ele>
        <time>2021-07-20T13:45:47Z</time>
      </trkpt>
      <trkpt lat="45.58859" lon="2.80695">
        <ele>1062.9</ele>
        <time>2021-07-20T13:45:58Z</time>
      </trkpt>
      <trkpt lat="45.58857" lon="2.80678">
        <ele>1062</ele>
        <time>2021-07-20T13:46:06Z</time>
      </trkpt>
      <trkpt lat="45.58854" lon="2.8066">
        <ele>1060.5</ele>
        <time>2021-07-20T13:46:17Z</time>
      </trkpt>
      <trkpt lat="45.5885" lon="2.80646">
        <ele>1058.8</ele>
        <time>2021-07-20T13:46:26Z</time>
      </trkpt>
      <trkpt lat="45.5885" lon="2.80641">
        <ele>1058.1</ele>
        <time>2021-07-20T13:46:29Z</time>
      </trkpt>
      <trkpt lat="45.58847" lon="2.8062">
        <ele>1055.3</ele>
        <time>2021-07-20T13:46:39Z</time>
      </trkpt>
      <trkpt lat="45.58847" lon="2.80603">
        <ele>1052.7</ele>
        <time>2021-07-20T13:46:50Z</time>
      </trkpt>
      <trkpt lat="45.58843" lon="2.80583">
        <ele>1050.5</ele>
        <time>2021-07-20T13:46:59Z</time>
      </trkpt>
      <trkpt lat="45.58843" lon="2.80574">
        <ele>1049.3</ele>
        <time>2021-07-20T13:47:03Z</time>
      </trkpt>
      <trkpt lat="45.58843" lon="2.80569">
        <ele>1048.5</ele>
        <time>2021-07-20T13:47:06Z</time>
      </trkpt>
      <trkpt lat="45.58841" lon="2.80552">
        <ele>1046.2</ele>
        <time>2021-07-20T13:47:16Z</time>
      </trkpt>
      <trkpt lat="45.58841" lon="2.80543">
        <ele>1044.8</ele>
        <time>2021-07-20T13:47:26Z</time>
      </trkpt>
      <trkpt lat="45.58841" lon="2.80541">
        <ele>1044.4</ele>
        <time>2021-07-20T13:47:27Z</time>
      </trkpt>
      <trkpt lat="45.58841" lon="2.80539">
        <ele>1044.1</ele>
        <time>2021-07-20T13:47:28Z</time>
      </trkpt>
      <trkpt lat="45.58841" lon="2.80537">
        <ele>1043.8</ele>
        <time>2021-07-20T13:47:29Z</time>
      </trkpt>
      <trkpt lat="45.58841" lon="2.80531">
        <ele>1042.9</ele>
        <time>2021-07-20T13:47:33Z</time>
      </trkpt>
      <trkpt lat="45.58841" lon="2.80493">
        <ele>1037.4</ele>
        <time>2021-07-20T13:47:50Z</time>
      </trkpt>
      <trkpt lat="45.5884" lon="2.80478">
        <ele>1036</ele>
        <time>2021-07-20T13:47:57Z</time>
      </trkpt>
      <trkpt lat="45.58837" lon="2.80458">
        <ele>1034.7</ele>
        <time>2021-07-20T13:48:09Z</time>
      </trkpt>
      <trkpt lat="45.58831" lon="2.80437">
        <ele>1033.9</ele>
        <time>2021-07-20T13:48:25Z</time>
      </trkpt>
      <trkpt lat="45.58827" lon="2.80411">
        <ele>1032.8</ele>
        <time>2021-07-20T13:48:42Z</time>
      </trkpt>
      <trkpt lat="45.58826" lon="2.80383">
        <ele>1029.6</ele>
        <time>2021-07-20T13:48:58Z</time>
      </trkpt>
      <trkpt lat="45.58826" lon="2.80365">
        <ele>1027.2</ele>
        <time>2021-07-20T13:49:06Z</time>
      </trkpt>
      <trkpt lat="45.58828" lon="2.80347">
        <ele>1024.3</ele>
        <time>2021-07-20T13:49:17Z</time>
      </trkpt>
      <trkpt lat="45.58828" lon="2.80331">
        <ele>1022.7</ele>
        <time>2021-07-20T13:49:27Z</time>
      </trkpt>
      <trkpt lat="45.58828" lon="2.80319">
        <ele>1022.3</ele>
        <time>2021-07-20T13:49:39Z</time>
      </trkpt>
      <trkpt lat="45.58834" lon="2.80328">
        <ele>1020.9</ele>
        <time>2021-07-20T13:49:51Z</time>
      </trkpt>
      <trkpt lat="45.58844" lon="2.80344">
        <ele>1021.2</ele>
        <time>2021-07-20T13:50:05Z</time>
      </trkpt>
      <trkpt lat="45.58847" lon="2.80348">
        <ele>1021.2</ele>
        <time>2021-07-20T13:50:18Z</time>
      </trkpt>
      <trkpt lat="45.58849" lon="2.80346">
        <ele>1020.9</ele>
        <time>2021-07-20T13:50:44Z</time>
      </trkpt>
      <trkpt lat="45.58849" lon="2.80347">
        <ele>1021</ele>
        <time>2021-07-20T13:50:53Z</time>
      </trkpt>
    </trkseg>
  </trk>
</gpx>